Time,TemperatureF,DewpointF,PressureIn,WindDirection,WindDirectionDegrees,WindSpeedMPH,WindSpeedGustMPH,Humidity,HourlyPrecipIn,Conditions,Clouds,dailyrainin,SolarRadiationWatts/m^2,SoftwareType,DateUTC
2013-11-13 00:00:00,66.8,35.6,29.44,NW,319,3.8,4.0,31,-99.99,,,0.00,0,rob ver 1B,2013-11-13 07:00:00,
2013-11-13 00:01:00,66.9,35.7,29.44,NW,326,3.8,4.2,31,-99.99,,,0.00,0,rob ver 1B,2013-11-13 07:01:00,
2013-11-13 00:02:00,67.0,35.7,29.44,NNW,328,3.2,3.7,31,-99.99,,,0.00,0,rob ver 1B,2013-11-13 07:02:00,
2013-11-13 00:03:00,67.2,35.7,29.44,NW,317,3.1,3.5,31,-99.99,,,0.00,0,rob ver 1B,2013-11-13 07:03:00,
2013-11-13 00:04:00,67.2,35.7,29.44,NW,312,2.6,3.1,31,-99.99,,,0.00,0,rob ver 1B,2013-11-13 07:04:00,
2013-11-13 00:05:00,67.2,35.6,29.44,NW,312,2.6,2.9,30,-99.99,,,0.00,0,rob ver 1B,2013-11-13 07:05:00,
2013-11-13 00:06:00,67.2,35.4,29.44,NW,305,2.4,2.7,30,-99.99,,,0.00,0,rob ver 1B,2013-11-13 07:06:00,
2013-11-13 00:07:00,67.0,34.8,29.44,WNW,283,1.8,2.4,30,-99.99,,,0.00,0,rob ver 1B,2013-11-13 07:07:00,
2013-11-13 00:08:00,66.7,34.9,29.44,WNW,289,2.1,2.4,31,-99.99,,,0.00,0,rob ver 1B,2013-11-13 07:08:00,
2013-11-13 00:09:00,66.3,35.1,29.44,WNW,285,2.1,2.4,31,-99.99,,,0.00,0,rob ver 1B,2013-11-13 07:09:00,
2013-11-13 00:10:00,66.1,35.1,29.44,WNW,287,2.3,2.4,31,-99.99,,,0.00,0,rob ver 1B,2013-11-13 07:10:00,
2013-11-13 00:11:00,66.0,35.4,29.44,WNW,293,2.5,2.8,32,-99.99,,,0.00,0,rob ver 1B,2013-11-13 07:11:00,
2013-11-13 00:12:00,66.0,35.6,29.44,WNW,295,2.5,2.8,31,-99.99,,,0.00,0,rob ver 1B,2013-11-13 07:12:00,
2013-11-13 00:13:00,66.1,35.1,29.44,WNW,283,2.7,2.8,31,-99.99,,,0.00,0,rob ver 1B,2013-11-13 07:13:00,
2013-11-13 00:14:00,66.1,34.9,29.44,West,273,2.7,2.9,31,-99.99,,,0.00,0,rob ver 1B,2013-11-13 07:14:00,
2013-11-13 00:15:00,65.9,35.2,29.44,West,276,3.0,3.3,32,-99.99,,,0.00,0,rob ver 1B,2013-11-13 07:15:00,
2013-11-13 00:16:00,65.9,35.5,29.44,WNW,286,3.0,3.2,32,-99.99,,,0.00,0,rob ver 1B,2013-11-13 07:16:00,
2013-11-13 00:17:00,66.0,35.5,29.44,NW,304,2.9,3.0,32,-99.99,,,0.00,0,rob ver 1B,2013-11-13 07:17:00,
2013-11-13 00:18:00,66.1,35.8,29.44,NW,323,2.7,3.0,32,-99.99,,,0.00,0,rob ver 1B,2013-11-13 07:18:00,
2013-11-13 00:19:00,66.2,35.8,29.44,NNW,330,2.8,3.0,32,-99.99,,,0.00,0,rob ver 1B,2013-11-13 07:19:00,
2013-11-13 00:20:00,66.3,36.1,29.44,NNW,343,2.8,3.0,32,-99.99,,,0.00,0,rob ver 1B,2013-11-13 07:20:00,
2013-11-13 00:21:00,66.4,36.2,29.44,NNW,342,2.6,3.0,32,-99.99,,,0.00,0,rob ver 1B,2013-11-13 07:21:00,
2013-11-13 00:22:00,66.5,35.9,29.44,NNW,331,2.0,2.3,31,-99.99,,,0.00,0,rob ver 1B,2013-11-13 07:22:00,
2013-11-13 00:23:00,66.4,35.1,29.44,West,267,1.9,2.3,31,-99.99,,,0.00,0,rob ver 1B,2013-11-13 07:23:00,
2013-11-13 00:24:00,66.1,35.0,29.44,WSW,250,2.4,3.3,31,-99.99,,,0.00,0,rob ver 1B,2013-11-13 07:24:00,
2013-11-13 00:25:00,65.7,35.3,29.44,West,278,1.6,2.7,32,-99.99,,,0.00,0,rob ver 1B,2013-11-13 07:25:00,
2013-11-13 00:26:00,65.5,35.1,29.44,West,277,1.6,2.3,32,-99.99,,,0.00,0,rob ver 1B,2013-11-13 07:26:00,
2013-11-13 00:27:00,65.4,35.3,29.44,West,267,1.2,1.7,32,-99.99,,,0.00,0,rob ver 1B,2013-11-13 07:27:00,
2013-11-13 00:28:00,65.2,35.2,29.44,WNW,287,1.8,2.3,32,-99.99,,,0.00,0,rob ver 1B,2013-11-13 07:28:00,
2013-11-13 00:29:00,65.1,35.4,29.41,WNW,303,1.5,1.9,33,-99.99,,,0.00,0,rob ver 1B,2013-11-13 07:29:00,
2013-11-13 00:30:00,65.0,35.5,29.41,NW,324,1.7,2.1,33,-99.99,,,0.00,0,rob ver 1B,2013-11-13 07:30:00,
2013-11-13 00:31:00,65.0,35.8,29.44,NNW,329,2.2,2.6,33,-99.99,,,0.00,0,rob ver 1B,2013-11-13 07:31:00,
2013-11-13 00:32:00,65.1,35.7,29.41,NNW,333,2.2,2.4,33,-99.99,,,0.00,0,rob ver 1B,2013-11-13 07:32:00,
2013-11-13 00:33:00,65.2,36.0,29.41,NNW,332,2.4,2.6,33,-99.99,,,0.00,0,rob ver 1B,2013-11-13 07:33:00,
2013-11-13 00:34:00,65.2,36.1,29.41,NNW,333,2.3,2.5,33,-99.99,,,0.00,0,rob ver 1B,2013-11-13 07:34:00,
2013-11-13 00:35:00,65.2,36.0,29.44,NNW,340,2.5,2.8,33,-99.99,,,0.00,0,rob ver 1B,2013-11-13 07:35:00,
2013-11-13 00:36:00,65.2,36.2,29.44,NNW,342,2.9,3.0,34,-99.99,,,0.00,0,rob ver 1B,2013-11-13 07:36:00,
2013-11-13 00:37:00,65.3,36.6,29.41,NNW,336,2.6,2.8,34,-99.99,,,0.00,0,rob ver 1B,2013-11-13 07:37:00,
2013-11-13 00:38:00,65.4,36.7,29.44,NNW,328,2.3,2.6,34,-99.99,,,0.00,0,rob ver 1B,2013-11-13 07:38:00,
2013-11-13 00:39:00,65.6,36.9,29.44,NW,326,2.2,2.3,34,-99.99,,,0.00,0,rob ver 1B,2013-11-13 07:39:00,
2013-11-13 00:40:00,65.7,37.0,29.41,NW,326,2.3,2.3,34,-99.99,,,0.00,0,rob ver 1B,2013-11-13 07:40:00,
2013-11-13 00:41:00,65.8,37.0,29.44,NW,321,2.1,2.4,34,-99.99,,,0.00,0,rob ver 1B,2013-11-13 07:41:00,
2013-11-13 00:42:00,65.9,36.9,29.44,NW,313,1.9,2.1,33,-99.99,,,0.00,0,rob ver 1B,2013-11-13 07:42:00,
2013-11-13 00:43:00,66.0,36.4,29.44,WNW,285,2.4,3.9,31,-99.99,,,0.00,0,rob ver 1B,2013-11-13 07:43:00,
2013-11-13 00:44:00,65.8,35.7,29.44,WSW,257,3.2,3.6,33,-99.99,,,0.00,0,rob ver 1B,2013-11-13 07:44:00,
2013-11-13 00:45:00,65.4,36.4,29.44,West,274,4.1,4.7,34,-99.99,,,0.00,0,rob ver 1B,2013-11-13 07:45:00,
2013-11-13 00:46:00,65.3,36.6,29.44,WNW,295,3.1,3.8,35,-99.99,,,0.00,0,rob ver 1B,2013-11-13 07:46:00,
2013-11-13 00:47:00,65.6,38.1,29.44,NNW,329,2.9,4.3,35,-99.99,,,0.00,0,rob ver 1B,2013-11-13 07:47:00,
2013-11-13 00:48:00,65.9,36.8,29.41,NNW,327,3.3,3.8,34,-99.99,,,0.00,0,rob ver 1B,2013-11-13 07:48:00,
2013-11-13 00:49:00,66.0,37.1,29.44,NNW,342,3.8,4.3,33,-99.99,,,0.00,0,rob ver 1B,2013-11-13 07:49:00,
2013-11-13 00:50:00,65.9,36.8,29.44,NNW,342,4.1,4.7,34,-99.99,,,0.00,0,rob ver 1B,2013-11-13 07:50:00,
2013-11-13 00:51:00,65.9,37.5,29.44,North,349,4.2,4.7,34,-99.99,,,0.00,0,rob ver 1B,2013-11-13 07:51:00,
2013-11-13 00:52:00,65.9,37.4,29.44,North,360,4.6,5.1,35,-99.99,,,0.00,0,rob ver 1B,2013-11-13 07:52:00,
2013-11-13 00:53:00,66.0,38.1,29.44,North,10,5.3,5.6,35,-99.99,,,0.00,0,rob ver 1B,2013-11-13 07:53:00,
2013-11-13 00:54:00,66.1,37.6,29.44,North,10,4.6,4.9,34,-99.99,,,0.00,0,rob ver 1B,2013-11-13 07:54:00,
2013-11-13 00:55:00,66.1,37.3,29.44,North,4,4.5,4.9,34,-99.99,,,0.00,0,rob ver 1B,2013-11-13 07:55:00,
2013-11-13 00:56:00,66.1,37.4,29.41,North,359,4.8,5.0,34,-99.99,,,0.00,0,rob ver 1B,2013-11-13 07:56:00,
2013-11-13 00:57:00,66.1,37.7,29.44,North,3,5.1,5.4,34,-99.99,,,0.00,0,rob ver 1B,2013-11-13 07:57:00,
2013-11-13 00:58:00,66.2,37.7,29.44,North,7,4.9,5.2,34,-99.99,,,0.00,0,rob ver 1B,2013-11-13 07:58:00,
2013-11-13 00:59:00,66.3,37.6,29.44,North,8,4.2,4.7,34,-99.99,,,0.00,0,rob ver 1B,2013-11-13 07:59:00,
2013-11-13 01:00:00,66.1,37.2,29.44,North,9,3.7,3.9,34,-99.99,,,0.00,0,rob ver 1B,2013-11-13 08:00:00,
2013-11-13 01:01:00,66.0,37.0,29.44,North,10,3.2,3.6,34,-99.99,,,0.00,0,rob ver 1B,2013-11-13 08:01:00,
2013-11-13 01:02:00,65.8,36.7,29.44,North,8,2.5,3.2,34,-99.99,,,0.00,0,rob ver 1B,2013-11-13 08:02:00,
2013-11-13 01:03:00,65.6,36.8,29.44,NW,305,1.7,2.6,34,-99.99,,,0.00,0,rob ver 1B,2013-11-13 08:03:00,
2013-11-13 01:04:00,65.4,36.9,29.44,West,264,2.9,3.6,35,-99.99,,,0.00,0,rob ver 1B,2013-11-13 08:04:00,
2013-11-13 01:05:00,65.2,37.5,29.44,West,259,3.5,4.6,34,-99.99,,,0.00,0,rob ver 1B,2013-11-13 08:05:00,
2013-11-13 01:06:00,65.0,37.2,29.44,West,260,3.4,4.5,36,-99.99,,,0.00,0,rob ver 1B,2013-11-13 08:06:00,
2013-11-13 01:07:00,64.9,37.4,29.44,West,267,3.1,3.9,36,-99.99,,,0.00,0,rob ver 1B,2013-11-13 08:07:00,
2013-11-13 01:08:00,64.9,38.1,29.44,NW,307,2.3,3.0,37,-99.99,,,0.00,0,rob ver 1B,2013-11-13 08:08:00,
2013-11-13 01:09:00,65.1,38.3,29.44,NNW,345,2.0,2.6,36,-99.99,,,0.00,0,rob ver 1B,2013-11-13 08:09:00,
2013-11-13 01:10:00,65.4,38.0,29.44,NNW,337,1.8,2.1,36,-99.99,,,0.00,0,rob ver 1B,2013-11-13 08:10:00,
2013-11-13 01:11:00,65.5,37.7,29.44,NNW,330,1.4,1.7,35,-99.99,,,0.00,0,rob ver 1B,2013-11-13 08:11:00,
2013-11-13 01:12:00,65.6,37.1,29.44,NNW,335,0.7,1.3,34,-99.99,,,0.00,0,rob ver 1B,2013-11-13 08:12:00,
2013-11-13 01:13:00,65.5,36.6,29.44,SW,225,0.4,0.8,34,-99.99,,,0.00,0,rob ver 1B,2013-11-13 08:13:00,
2013-11-13 01:14:00,65.4,36.7,29.44,SE,136,1.1,1.8,34,-99.99,,,0.00,0,rob ver 1B,2013-11-13 08:14:00,
2013-11-13 01:15:00,65.1,37.2,29.44,SE,133,0.9,1.3,35,-99.99,,,0.00,0,rob ver 1B,2013-11-13 08:15:00,
2013-11-13 01:16:00,65.0,37.3,29.44,South,169,1.0,1.3,35,-99.99,,,0.00,0,rob ver 1B,2013-11-13 08:16:00,
2013-11-13 01:17:00,64.9,37.0,29.44,SSE,167,1.5,2.0,35,-99.99,,,0.00,0,rob ver 1B,2013-11-13 08:17:00,
2013-11-13 01:18:00,64.7,36.9,29.44,SSE,161,1.3,1.9,36,-99.99,,,0.00,0,rob ver 1B,2013-11-13 08:18:00,
2013-11-13 01:19:00,64.6,37.5,29.44,SE,130,2.0,2.6,36,-99.99,,,0.00,0,rob ver 1B,2013-11-13 08:19:00,
2013-11-13 01:20:00,64.6,37.0,29.44,SSE,147,2.0,2.6,35,-99.99,,,0.00,0,rob ver 1B,2013-11-13 08:20:00,
2013-11-13 01:21:00,64.5,37.3,29.44,SE,137,2.3,2.6,36,-99.99,,,0.00,0,rob ver 1B,2013-11-13 08:21:00,
2013-11-13 01:22:00,64.5,37.7,29.44,SE,133,2.3,2.6,36,-99.99,,,0.00,0,rob ver 1B,2013-11-13 08:22:00,
2013-11-13 01:23:00,64.6,37.1,29.44,SSE,162,1.9,2.0,37,-99.99,,,0.00,0,rob ver 1B,2013-11-13 08:23:00,
2013-11-13 01:24:00,64.7,37.6,29.44,South,180,1.8,2.0,36,-99.99,,,0.00,0,rob ver 1B,2013-11-13 08:24:00,
2013-11-13 01:25:00,64.7,37.9,29.44,SSE,165,1.7,1.8,37,-99.99,,,0.00,0,rob ver 1B,2013-11-13 08:25:00,
2013-11-13 01:26:00,64.8,38.0,29.44,SE,125,1.5,1.8,36,-99.99,,,0.00,0,rob ver 1B,2013-11-13 08:26:00,
2013-11-13 01:27:00,65.0,38.1,29.44,East,94,2.2,2.6,36,-99.99,,,0.00,0,rob ver 1B,2013-11-13 08:27:00,
2013-11-13 01:28:00,65.3,38.1,29.44,East,94,2.4,2.8,36,-99.99,,,0.00,0,rob ver 1B,2013-11-13 08:28:00,
2013-11-13 01:29:00,65.5,37.6,29.44,ESE,104,1.8,2.0,35,-99.99,,,0.00,0,rob ver 1B,2013-11-13 08:29:00,
2013-11-13 01:30:00,65.5,36.8,29.44,ESE,116,1.3,1.6,33,-99.99,,,0.00,0,rob ver 1B,2013-11-13 08:30:00,
2013-11-13 01:31:00,65.3,35.8,29.44,SSW,196,1.7,2.5,33,-99.99,,,0.00,0,rob ver 1B,2013-11-13 08:31:00,
2013-11-13 01:32:00,65.0,36.4,29.44,SSE,161,1.3,2.1,35,-99.99,,,0.00,0,rob ver 1B,2013-11-13 08:32:00,
2013-11-13 01:33:00,64.8,36.8,29.44,ESE,103,1.3,1.4,36,-99.99,,,0.00,0,rob ver 1B,2013-11-13 08:33:00,
2013-11-13 01:34:00,64.7,37.3,29.44,ESE,105,1.1,1.3,35,-99.99,,,0.00,0,rob ver 1B,2013-11-13 08:34:00,
2013-11-13 01:35:00,64.6,37.1,29.44,SE,139,0.9,1.0,35,-99.99,,,0.00,0,rob ver 1B,2013-11-13 08:35:00,
2013-11-13 01:36:00,64.5,36.9,29.44,SSW,207,1.0,1.3,34,-99.99,,,0.00,0,rob ver 1B,2013-11-13 08:36:00,
2013-11-13 01:37:00,64.5,36.1,29.44,SW,233,1.5,1.7,34,-99.99,,,0.00,0,rob ver 1B,2013-11-13 08:37:00,
2013-11-13 01:38:00,64.4,35.4,29.44,SW,231,1.8,2.9,33,-99.99,,,0.00,0,rob ver 1B,2013-11-13 08:38:00,
2013-11-13 01:39:00,64.4,35.2,29.44,SW,232,2.5,3.0,33,-99.99,,,0.00,0,rob ver 1B,2013-11-13 08:39:00,
2013-11-13 01:40:00,64.4,35.2,29.44,SW,222,1.7,2.2,33,-99.99,,,0.00,0,rob ver 1B,2013-11-13 08:40:00,
2013-11-13 01:41:00,64.5,35.2,29.44,SW,219,1.2,1.4,33,-99.99,,,0.00,0,rob ver 1B,2013-11-13 08:41:00,
2013-11-13 01:42:00,64.5,35.3,29.44,SW,219,1.1,1.4,33,-99.99,,,0.00,0,rob ver 1B,2013-11-13 08:42:00,
2013-11-13 01:43:00,64.4,35.1,29.44,SW,225,1.1,1.3,33,-99.99,,,0.00,0,rob ver 1B,2013-11-13 08:43:00,
2013-11-13 01:44:00,64.4,35.0,29.44,SW,225,1.0,1.3,33,-99.99,,,0.00,0,rob ver 1B,2013-11-13 08:44:00,
2013-11-13 01:45:00,64.3,35.0,29.41,SW,214,0.8,1.0,33,-99.99,,,0.00,0,rob ver 1B,2013-11-13 08:45:00,
2013-11-13 01:46:00,64.2,35.0,29.44,SSW,210,1.0,1.1,33,-99.99,,,0.00,0,rob ver 1B,2013-11-13 08:46:00,
2013-11-13 01:47:00,64.1,35.1,29.44,SSW,204,1.0,1.2,34,-99.99,,,0.00,0,rob ver 1B,2013-11-13 08:47:00,
2013-11-13 01:48:00,64.1,35.4,29.44,SSW,194,1.1,1.2,34,-99.99,,,0.00,0,rob ver 1B,2013-11-13 08:48:00,
2013-11-13 01:49:00,64.1,35.2,29.44,South,191,1.0,1.2,33,-99.99,,,0.00,0,rob ver 1B,2013-11-13 08:49:00,
2013-11-13 01:50:00,64.1,35.1,29.44,SSW,211,1.2,1.4,33,-99.99,,,0.00,0,rob ver 1B,2013-11-13 08:50:00,
2013-11-13 01:51:00,64.1,35.1,29.44,SSW,212,0.8,0.9,33,-99.99,,,0.00,0,rob ver 1B,2013-11-13 08:51:00,
2013-11-13 01:52:00,64.0,35.1,29.44,SW,226,1.1,1.3,33,-99.99,,,0.00,0,rob ver 1B,2013-11-13 08:52:00,
2013-11-13 01:53:00,64.0,35.1,29.44,WSW,246,0.8,1.2,34,-99.99,,,0.00,0,rob ver 1B,2013-11-13 08:53:00,
2013-11-13 01:54:00,63.9,35.2,29.44,WSW,250,1.3,2.1,34,-99.99,,,0.00,0,rob ver 1B,2013-11-13 08:54:00,
2013-11-13 01:55:00,63.9,35.1,29.44,WSW,251,2.0,2.5,34,-99.99,,,0.00,0,rob ver 1B,2013-11-13 08:55:00,
2013-11-13 01:56:00,63.9,35.1,29.44,WSW,255,2.0,2.3,34,-99.99,,,0.00,0,rob ver 1B,2013-11-13 08:56:00,
2013-11-13 01:57:00,63.9,35.1,29.44,West,261,1.8,2.1,34,-99.99,,,0.00,0,rob ver 1B,2013-11-13 08:57:00,
2013-11-13 01:58:00,63.8,35.1,29.44,West,264,1.6,1.8,34,-99.99,,,0.00,0,rob ver 1B,2013-11-13 08:58:00,
2013-11-13 01:59:00,63.8,35.0,29.44,West,265,1.0,1.3,34,-99.99,,,0.00,0,rob ver 1B,2013-11-13 08:59:00,
2013-11-13 02:00:00,63.7,35.0,29.44,WSW,251,0.7,0.9,34,-99.99,,,0.00,0,rob ver 1B,2013-11-13 09:00:00,
2013-11-13 02:01:00,63.7,35.0,29.44,WSW,238,0.7,0.7,34,-99.99,,,0.00,0,rob ver 1B,2013-11-13 09:01:00,
2013-11-13 02:02:00,63.6,35.0,29.44,SW,236,0.8,1.0,34,-99.99,,,0.00,0,rob ver 1B,2013-11-13 09:02:00,
2013-11-13 02:03:00,63.6,35.0,29.44,West,264,0.8,0.9,34,-99.99,,,0.00,0,rob ver 1B,2013-11-13 09:03:00,
2013-11-13 02:04:00,63.5,35.0,29.44,WSW,258,0.9,1.1,34,-99.99,,,0.00,0,rob ver 1B,2013-11-13 09:04:00,
2013-11-13 02:05:00,63.5,34.9,29.44,West,267,1.1,1.2,34,-99.99,,,0.00,0,rob ver 1B,2013-11-13 09:05:00,
2013-11-13 02:06:00,63.4,34.9,29.44,West,281,1.1,1.3,34,-99.99,,,0.00,0,rob ver 1B,2013-11-13 09:06:00,
2013-11-13 02:07:00,63.3,34.8,29.44,WNW,296,0.9,1.1,34,-99.99,,,0.00,0,rob ver 1B,2013-11-13 09:07:00,
2013-11-13 02:08:00,63.2,34.9,29.44,West,272,1.2,1.5,34,-99.99,,,0.00,0,rob ver 1B,2013-11-13 09:08:00,
2013-11-13 02:09:00,63.2,34.9,29.44,West,280,1.3,1.6,34,-99.99,,,0.00,0,rob ver 1B,2013-11-13 09:09:00,
2013-11-13 02:10:00,63.2,35.0,29.44,West,281,1.6,1.8,34,-99.99,,,0.00,0,rob ver 1B,2013-11-13 09:10:00,
2013-11-13 02:11:00,63.2,34.9,29.44,West,278,1.6,1.8,34,-99.99,,,0.00,0,rob ver 1B,2013-11-13 09:11:00,
2013-11-13 02:12:00,63.2,34.9,29.44,WNW,286,1.8,2.0,34,-99.99,,,0.00,0,rob ver 1B,2013-11-13 09:12:00,
2013-11-13 02:13:00,63.2,34.8,29.44,WNW,283,2.0,2.3,34,-99.99,,,0.00,0,rob ver 1B,2013-11-13 09:13:00,
2013-11-13 02:14:00,63.3,34.9,29.44,West,279,2.1,2.5,34,-99.99,,,0.00,0,rob ver 1B,2013-11-13 09:14:00,
2013-11-13 02:15:00,63.3,34.8,29.44,West,277,2.3,2.4,34,-99.99,,,0.00,0,rob ver 1B,2013-11-13 09:15:00,
2013-11-13 02:16:00,63.4,34.8,29.44,West,275,2.2,2.4,34,-99.99,,,0.00,0,rob ver 1B,2013-11-13 09:16:00,
2013-11-13 02:17:00,63.5,34.8,29.44,West,278,2.2,2.3,34,-99.99,,,0.00,0,rob ver 1B,2013-11-13 09:17:00,
2013-11-13 02:18:00,63.5,34.8,29.44,West,277,2.3,2.4,34,-99.99,,,0.00,0,rob ver 1B,2013-11-13 09:18:00,
2013-11-13 02:19:00,63.6,34.8,29.44,West,279,2.3,2.3,34,-99.99,,,0.00,0,rob ver 1B,2013-11-13 09:19:00,
2013-11-13 02:20:00,63.6,34.8,29.44,WNW,283,2.3,2.3,34,-99.99,,,0.00,0,rob ver 1B,2013-11-13 09:20:00,
2013-11-13 02:21:00,63.7,34.9,29.44,WNW,293,2.2,2.4,34,-99.99,,,0.00,0,rob ver 1B,2013-11-13 09:21:00,
2013-11-13 02:22:00,63.6,35.0,29.44,NW,310,2.1,2.2,34,-99.99,,,0.00,0,rob ver 1B,2013-11-13 09:22:00,
2013-11-13 02:23:00,63.5,34.8,29.44,NW,326,2.2,2.3,34,-99.99,,,0.00,0,rob ver 1B,2013-11-13 09:23:00,
2013-11-13 02:24:00,63.4,34.9,29.44,NNW,330,2.1,2.4,34,-99.99,,,0.00,0,rob ver 1B,2013-11-13 09:24:00,
2013-11-13 02:25:00,63.2,35.1,29.44,NNW,333,2.2,2.4,35,-99.99,,,0.00,0,rob ver 1B,2013-11-13 09:25:00,
2013-11-13 02:26:00,63.1,35.3,29.44,NNW,339,2.2,2.6,35,-99.99,,,0.00,0,rob ver 1B,2013-11-13 09:26:00,
2013-11-13 02:27:00,63.1,35.7,29.44,North,353,2.6,2.7,36,-99.99,,,0.00,0,rob ver 1B,2013-11-13 09:27:00,
2013-11-13 02:28:00,63.2,35.9,29.44,North,357,2.6,2.8,35,-99.99,,,0.00,0,rob ver 1B,2013-11-13 09:28:00,
2013-11-13 02:29:00,63.1,35.6,29.44,North,355,2.8,3.0,35,-99.99,,,0.00,0,rob ver 1B,2013-11-13 09:29:00,
2013-11-13 02:30:00,63.1,35.3,29.44,North,356,3.1,3.2,35,-99.99,,,0.00,0,rob ver 1B,2013-11-13 09:30:00,
2013-11-13 02:31:00,63.1,35.1,29.44,North,356,3.1,3.3,34,-99.99,,,0.00,0,rob ver 1B,2013-11-13 09:31:00,
2013-11-13 02:32:00,63.1,35.1,29.44,North,356,3.1,3.4,35,-99.99,,,0.00,0,rob ver 1B,2013-11-13 09:32:00,
2013-11-13 02:33:00,63.1,35.2,29.41,North,352,3.1,3.3,35,-99.99,,,0.00,0,rob ver 1B,2013-11-13 09:33:00,
2013-11-13 02:34:00,63.1,35.4,29.44,North,352,3.0,3.2,35,-99.99,,,0.00,0,rob ver 1B,2013-11-13 09:34:00,
2013-11-13 02:35:00,63.3,35.6,29.44,North,349,2.8,3.0,34,-99.99,,,0.00,0,rob ver 1B,2013-11-13 09:35:00,
2013-11-13 02:36:00,63.5,35.2,29.44,NNW,343,2.6,2.9,34,-99.99,,,0.00,0,rob ver 1B,2013-11-13 09:36:00,
2013-11-13 02:37:00,63.6,35.3,29.44,NW,326,2.7,3.1,34,-99.99,,,0.00,0,rob ver 1B,2013-11-13 09:37:00,
2013-11-13 02:38:00,63.6,35.4,29.44,NW,321,2.5,2.8,34,-99.99,,,0.00,0,rob ver 1B,2013-11-13 09:38:00,
2013-11-13 02:39:00,63.7,35.5,29.44,NW,322,2.5,2.8,34,-99.99,,,0.00,0,rob ver 1B,2013-11-13 09:39:00,
2013-11-13 02:40:00,63.8,35.5,29.44,NW,322,2.4,2.8,34,-99.99,,,0.00,0,rob ver 1B,2013-11-13 09:40:00,
2013-11-13 02:41:00,63.9,35.5,29.44,NW,320,2.3,2.5,34,-99.99,,,0.00,0,rob ver 1B,2013-11-13 09:41:00,
2013-11-13 02:42:00,63.8,35.4,29.44,NW,320,2.2,2.5,34,-99.99,,,0.00,0,rob ver 1B,2013-11-13 09:42:00,
2013-11-13 02:43:00,63.8,35.4,29.44,NW,318,2.3,2.6,34,-99.99,,,0.00,0,rob ver 1B,2013-11-13 09:43:00,
2013-11-13 02:44:00,63.7,35.5,29.44,NW,316,2.2,2.5,34,-99.99,,,0.00,0,rob ver 1B,2013-11-13 09:44:00,
2013-11-13 02:45:00,63.7,35.5,29.44,NW,326,2.3,2.5,35,-99.99,,,0.00,0,rob ver 1B,2013-11-13 09:45:00,
2013-11-13 02:46:00,63.6,35.5,29.44,NW,323,2.2,2.5,35,-99.99,,,0.00,0,rob ver 1B,2013-11-13 09:46:00,
2013-11-13 02:47:00,63.5,35.4,29.41,NW,326,2.4,2.8,34,-99.99,,,0.00,0,rob ver 1B,2013-11-13 09:47:00,
2013-11-13 02:48:00,63.4,35.4,29.41,NNW,328,2.4,2.8,35,-99.99,,,0.00,0,rob ver 1B,2013-11-13 09:48:00,
2013-11-13 02:49:00,63.3,35.5,29.44,NNW,331,2.6,2.9,35,-99.99,,,0.00,0,rob ver 1B,2013-11-13 09:49:00,
2013-11-13 02:50:00,63.2,35.4,29.41,NNW,331,2.7,2.9,35,-99.99,,,0.00,0,rob ver 1B,2013-11-13 09:50:00,
2013-11-13 02:51:00,63.2,35.3,29.41,NNW,335,2.8,3.0,35,-99.99,,,0.00,0,rob ver 1B,2013-11-13 09:51:00,
2013-11-13 02:52:00,63.2,35.3,29.41,NNW,335,2.7,3.1,35,-99.99,,,0.00,0,rob ver 1B,2013-11-13 09:52:00,
2013-11-13 02:53:00,63.2,35.2,29.44,NNW,330,3.0,3.3,34,-99.99,,,0.00,0,rob ver 1B,2013-11-13 09:53:00,
2013-11-13 02:54:00,63.3,35.1,29.41,NW,323,2.8,3.2,34,-99.99,,,0.00,0,rob ver 1B,2013-11-13 09:54:00,
2013-11-13 02:55:00,63.4,35.1,29.41,NW,322,2.8,3.0,34,-99.99,,,0.00,0,rob ver 1B,2013-11-13 09:55:00,
2013-11-13 02:56:00,63.5,35.1,29.44,NW,324,3.0,3.6,34,-99.99,,,0.00,0,rob ver 1B,2013-11-13 09:56:00,
2013-11-13 02:57:00,63.8,35.0,29.44,NNW,327,3.2,3.5,34,-99.99,,,0.00,0,rob ver 1B,2013-11-13 09:57:00,
2013-11-13 02:58:00,64.1,35.0,29.41,NW,326,3.5,3.9,33,-99.99,,,0.00,0,rob ver 1B,2013-11-13 09:58:00,
2013-11-13 02:59:00,64.5,34.9,29.41,NW,326,3.5,3.7,32,-99.99,,,0.00,0,rob ver 1B,2013-11-13 09:59:00,
2013-11-13 03:00:00,64.9,34.8,29.44,NNW,328,3.7,4.2,32,-99.99,,,0.00,0,rob ver 1B,2013-11-13 10:00:00,
2013-11-13 03:01:00,65.2,34.7,29.41,NNW,330,4.0,4.3,32,-99.99,,,0.00,0,rob ver 1B,2013-11-13 10:01:00,
2013-11-13 03:02:00,65.4,34.8,29.41,NNW,328,3.9,4.1,31,-99.99,,,0.00,0,rob ver 1B,2013-11-13 10:02:00,
2013-11-13 03:03:00,65.3,34.3,29.44,NW,314,3.0,4.0,31,-99.99,,,0.00,0,rob ver 1B,2013-11-13 10:03:00,
2013-11-13 03:04:00,64.8,34.3,29.44,NW,316,2.5,3.0,32,-99.99,,,0.00,0,rob ver 1B,2013-11-13 10:04:00,
2013-11-13 03:05:00,64.3,34.2,29.41,NW,305,2.6,2.9,32,-99.99,,,0.00,0,rob ver 1B,2013-11-13 10:05:00,
2013-11-13 03:06:00,63.8,34.4,29.41,WNW,298,2.6,3.0,33,-99.99,,,0.00,0,rob ver 1B,2013-11-13 10:06:00,
2013-11-13 03:07:00,63.4,34.4,29.44,NW,321,3.1,3.5,34,-99.99,,,0.00,0,rob ver 1B,2013-11-13 10:07:00,
2013-11-13 03:08:00,63.2,34.4,29.44,NNW,331,3.3,3.6,34,-99.99,,,0.00,0,rob ver 1B,2013-11-13 10:08:00,
2013-11-13 03:09:00,63.1,34.5,29.44,NNW,333,3.3,3.5,34,-99.99,,,0.00,0,rob ver 1B,2013-11-13 10:09:00,
2013-11-13 03:10:00,63.0,34.7,29.44,NNW,334,3.3,3.7,34,-99.99,,,0.00,0,rob ver 1B,2013-11-13 10:10:00,
2013-11-13 03:11:00,63.0,34.6,29.44,NNW,337,3.1,3.4,34,-99.99,,,0.00,0,rob ver 1B,2013-11-13 10:11:00,
2013-11-13 03:12:00,63.0,34.5,29.44,NNW,338,3.0,3.5,34,-99.99,,,0.00,0,rob ver 1B,2013-11-13 10:12:00,
2013-11-13 03:13:00,62.9,34.2,29.44,NNW,331,2.4,3.0,34,-99.99,,,0.00,0,rob ver 1B,2013-11-13 10:13:00,
2013-11-13 03:14:00,62.8,34.2,29.44,NW,322,2.2,2.4,34,-99.99,,,0.00,0,rob ver 1B,2013-11-13 10:14:00,
2013-11-13 03:15:00,62.5,34.3,29.44,NNW,336,2.3,2.8,35,-99.99,,,0.00,0,rob ver 1B,2013-11-13 10:15:00,
2013-11-13 03:16:00,62.2,34.7,29.44,NNW,341,2.7,3.3,36,-99.99,,,0.00,0,rob ver 1B,2013-11-13 10:16:00,
2013-11-13 03:17:00,62.1,35.1,29.44,NNW,344,2.9,3.8,37,-99.99,,,0.00,0,rob ver 1B,2013-11-13 10:17:00,
2013-11-13 03:18:00,61.9,35.4,29.44,NNW,344,2.8,3.2,37,-99.99,,,0.00,0,rob ver 1B,2013-11-13 10:18:00,
2013-11-13 03:19:00,61.8,35.6,29.44,NNW,344,2.8,3.3,37,-99.99,,,0.00,0,rob ver 1B,2013-11-13 10:19:00,
2013-11-13 03:20:00,61.6,35.7,29.44,NNW,347,2.8,3.3,38,-99.99,,,0.00,0,rob ver 1B,2013-11-13 10:20:00,
2013-11-13 03:21:00,61.5,35.9,29.44,North,350,3.1,3.7,38,-99.99,,,0.00,0,rob ver 1B,2013-11-13 10:21:00,
2013-11-13 03:22:00,61.5,36.3,29.44,North,353,3.3,3.8,38,-99.99,,,0.00,0,rob ver 1B,2013-11-13 10:22:00,
2013-11-13 03:23:00,61.4,36.0,29.44,NW,324,2.0,2.6,38,-99.99,,,0.00,0,rob ver 1B,2013-11-13 10:23:00,
2013-11-13 03:24:00,61.4,36.5,29.44,North,352,2.8,3.2,39,-99.99,,,0.00,0,rob ver 1B,2013-11-13 10:24:00,
2013-11-13 03:25:00,61.4,36.7,29.44,NNW,347,2.2,3.0,39,-99.99,,,0.00,0,rob ver 1B,2013-11-13 10:25:00,
2013-11-13 03:26:00,61.4,36.4,29.44,NNW,328,1.5,1.9,39,-99.99,,,0.00,0,rob ver 1B,2013-11-13 10:26:00,
2013-11-13 03:27:00,61.4,36.6,29.44,NNW,348,1.9,2.4,39,-99.99,,,0.00,0,rob ver 1B,2013-11-13 10:27:00,
2013-11-13 03:28:00,61.4,36.5,29.44,NNW,348,1.5,2.1,38,-99.99,,,0.00,0,rob ver 1B,2013-11-13 10:28:00,
2013-11-13 03:29:00,61.3,35.7,29.44,NNW,340,0.7,1.0,38,-99.99,,,0.00,0,rob ver 1B,2013-11-13 10:29:00,
2013-11-13 03:30:00,61.3,36.1,29.44,NNE,24,1.0,1.4,39,-99.99,,,0.00,0,rob ver 1B,2013-11-13 10:30:00,
2013-11-13 03:31:00,61.2,36.7,29.44,NE,35,1.5,2.0,40,-99.99,,,0.00,0,rob ver 1B,2013-11-13 10:31:00,
2013-11-13 03:32:00,61.3,37.1,29.44,NE,46,1.7,2.1,39,-99.99,,,0.00,0,rob ver 1B,2013-11-13 10:32:00,
2013-11-13 03:33:00,61.4,37.1,29.44,ENE,78,2.0,2.5,40,-99.99,,,0.00,0,rob ver 1B,2013-11-13 10:33:00,
2013-11-13 03:34:00,61.5,36.9,29.44,ENE,73,2.6,3.0,40,-99.99,,,0.00,0,rob ver 1B,2013-11-13 10:34:00,
2013-11-13 03:35:00,61.5,36.8,29.44,ENE,63,2.5,3.1,40,-99.99,,,0.00,0,rob ver 1B,2013-11-13 10:35:00,
2013-11-13 03:36:00,61.4,37.1,29.44,NE,54,2.7,3.7,40,-99.99,,,0.00,0,rob ver 1B,2013-11-13 10:36:00,
2013-11-13 03:37:00,61.4,37.2,29.44,NE,51,3.6,5.1,40,-99.99,,,0.00,0,rob ver 1B,2013-11-13 10:37:00,
2013-11-13 03:38:00,61.3,37.1,29.44,NE,45,3.9,5.1,40,-99.99,,,0.00,0,rob ver 1B,2013-11-13 10:38:00,
2013-11-13 03:39:00,61.3,37.2,29.44,NE,43,4.3,4.8,40,-99.99,,,0.00,0,rob ver 1B,2013-11-13 10:39:00,
2013-11-13 03:40:00,61.3,37.2,29.44,NE,42,4.4,4.8,40,-99.99,,,0.00,0,rob ver 1B,2013-11-13 10:40:00,
2013-11-13 03:41:00,61.2,37.1,29.44,NE,44,4.6,5.1,40,-99.99,,,0.00,0,rob ver 1B,2013-11-13 10:41:00,
2013-11-13 03:42:00,61.1,37.1,29.41,NE,46,5.1,5.8,40,-99.99,,,0.00,0,rob ver 1B,2013-11-13 10:42:00,
2013-11-13 03:43:00,60.9,37.0,29.44,NE,43,5.4,6.1,40,-99.99,,,0.00,0,rob ver 1B,2013-11-13 10:43:00,
2013-11-13 03:44:00,60.8,37.1,29.44,NE,41,5.7,6.1,41,-99.99,,,0.00,0,rob ver 1B,2013-11-13 10:44:00,
2013-11-13 03:45:00,60.7,37.0,29.41,NE,39,5.6,6.1,41,-99.99,,,0.00,0,rob ver 1B,2013-11-13 10:45:00,
2013-11-13 03:46:00,60.7,37.0,29.41,NE,36,6.3,7.0,41,-99.99,,,0.00,0,rob ver 1B,2013-11-13 10:46:00,
2013-11-13 03:47:00,60.8,37.1,29.41,NE,35,6.5,6.8,41,-99.99,,,0.00,0,rob ver 1B,2013-11-13 10:47:00,
2013-11-13 03:48:00,60.8,37.0,29.41,NE,35,6.4,6.7,41,-99.99,,,0.00,0,rob ver 1B,2013-11-13 10:48:00,
2013-11-13 03:49:00,60.8,37.0,29.41,NE,37,6.2,6.7,41,-99.99,,,0.00,0,rob ver 1B,2013-11-13 10:49:00,
2013-11-13 03:50:00,60.7,37.0,29.41,NE,36,5.8,6.4,41,-99.99,,,0.00,0,rob ver 1B,2013-11-13 10:50:00,
2013-11-13 03:51:00,60.7,37.0,29.41,NE,37,5.7,6.3,41,-99.99,,,0.00,0,rob ver 1B,2013-11-13 10:51:00,
2013-11-13 03:52:00,60.7,36.9,29.41,NE,36,5.6,6.4,41,-99.99,,,0.00,0,rob ver 1B,2013-11-13 10:52:00,
2013-11-13 03:53:00,60.7,36.9,29.41,NE,35,5.7,6.3,40,-99.99,,,0.00,0,rob ver 1B,2013-11-13 10:53:00,
2013-11-13 03:54:00,60.7,36.9,29.41,NE,37,5.9,6.6,41,-99.99,,,0.00,0,rob ver 1B,2013-11-13 10:54:00,
2013-11-13 03:55:00,60.7,36.9,29.41,NE,36,6.0,7.2,41,-99.99,,,0.00,0,rob ver 1B,2013-11-13 10:55:00,
2013-11-13 03:56:00,60.7,36.9,29.41,NE,41,5.9,6.8,41,-99.99,,,0.00,0,rob ver 1B,2013-11-13 10:56:00,
2013-11-13 03:57:00,60.7,37.0,29.41,NE,45,6.3,7.5,41,-99.99,,,0.00,0,rob ver 1B,2013-11-13 10:57:00,
2013-11-13 03:58:00,60.8,37.0,29.41,NE,43,6.0,7.5,41,-99.99,,,0.00,0,rob ver 1B,2013-11-13 10:58:00,
2013-11-13 03:59:00,60.8,37.1,29.41,NE,41,6.8,8.0,41,-99.99,,,0.00,0,rob ver 1B,2013-11-13 10:59:00,
2013-11-13 04:00:00,60.9,37.1,29.41,NE,40,6.8,8.0,41,-99.99,,,0.00,0,rob ver 1B,2013-11-13 11:00:00,
2013-11-13 04:01:00,61.0,37.1,29.41,NE,40,6.9,7.7,40,-99.99,,,0.00,0,rob ver 1B,2013-11-13 11:01:00,
2013-11-13 04:02:00,61.0,37.1,29.41,NE,40,7.0,8.4,40,-99.99,,,0.00,0,rob ver 1B,2013-11-13 11:02:00,
2013-11-13 04:03:00,61.0,37.1,29.41,NE,40,7.2,8.3,40,-99.99,,,0.00,0,rob ver 1B,2013-11-13 11:03:00,
2013-11-13 04:04:00,61.1,37.2,29.41,NE,38,7.7,8.9,40,-99.99,,,0.00,0,rob ver 1B,2013-11-13 11:04:00,
2013-11-13 04:05:00,61.1,37.1,29.41,NE,38,6.9,8.5,40,-99.99,,,0.00,0,rob ver 1B,2013-11-13 11:05:00,
2013-11-13 04:06:00,61.1,37.1,29.41,NE,36,7.5,8.3,40,-99.99,,,0.00,0,rob ver 1B,2013-11-13 11:06:00,
2013-11-13 04:07:00,61.2,37.1,29.41,NE,34,7.1,7.8,40,-99.99,,,0.00,0,rob ver 1B,2013-11-13 11:07:00,
2013-11-13 04:08:00,61.2,37.0,29.41,NNE,33,7.4,8.8,40,-99.99,,,0.00,0,rob ver 1B,2013-11-13 11:08:00,
2013-11-13 04:09:00,61.3,36.9,29.41,NE,34,7.9,8.7,39,-99.99,,,0.00,0,rob ver 1B,2013-11-13 11:09:00,
2013-11-13 04:10:00,61.4,36.9,29.41,NE,34,7.7,8.9,39,-99.99,,,0.00,0,rob ver 1B,2013-11-13 11:10:00,
2013-11-13 04:11:00,61.5,36.9,29.41,NE,34,7.8,8.9,39,-99.99,,,0.00,0,rob ver 1B,2013-11-13 11:11:00,
2013-11-13 04:12:00,61.6,36.9,29.41,NE,35,7.6,8.4,39,-99.99,,,0.00,0,rob ver 1B,2013-11-13 11:12:00,
2013-11-13 04:13:00,61.6,37.0,29.41,NE,34,8.2,8.8,39,-99.99,,,0.00,0,rob ver 1B,2013-11-13 11:13:00,
2013-11-13 04:14:00,61.7,37.1,29.41,NNE,32,7.7,9.0,40,-99.99,,,0.00,0,rob ver 1B,2013-11-13 11:14:00,
2013-11-13 04:15:00,61.8,37.2,29.41,NNE,30,7.6,8.4,40,-99.99,,,0.00,0,rob ver 1B,2013-11-13 11:15:00,
2013-11-13 04:16:00,61.8,37.3,29.41,NNE,28,7.6,8.4,40,-99.99,,,0.00,0,rob ver 1B,2013-11-13 11:16:00,
2013-11-13 04:17:00,61.9,37.3,29.41,NNE,26,6.7,7.8,39,-99.99,,,0.00,0,rob ver 1B,2013-11-13 11:17:00,
2013-11-13 04:18:00,61.9,37.3,29.41,NNE,20,6.3,7.7,39,-99.99,,,0.00,0,rob ver 1B,2013-11-13 11:18:00,
2013-11-13 04:19:00,61.9,37.2,29.41,NNE,16,6.4,7.0,39,-99.99,,,0.00,0,rob ver 1B,2013-11-13 11:19:00,
2013-11-13 04:20:00,62.0,36.9,29.41,NNE,14,5.4,6.7,38,-99.99,,,0.00,0,rob ver 1B,2013-11-13 11:20:00,
2013-11-13 04:21:00,62.0,36.7,29.41,North,5,3.9,5.0,39,-99.99,,,0.00,0,rob ver 1B,2013-11-13 11:21:00,
2013-11-13 04:22:00,61.9,36.7,29.41,North,356,3.4,4.3,38,-99.99,,,0.00,0,rob ver 1B,2013-11-13 11:22:00,
2013-11-13 04:23:00,61.7,36.8,29.41,NNE,12,4.9,6.4,39,-99.99,,,0.00,0,rob ver 1B,2013-11-13 11:23:00,
2013-11-13 04:24:00,61.8,36.9,29.41,North,5,4.2,5.5,39,-99.99,,,0.00,0,rob ver 1B,2013-11-13 11:24:00,
2013-11-13 04:25:00,61.8,36.8,29.41,NNE,13,4.8,6.1,39,-99.99,,,0.00,0,rob ver 1B,2013-11-13 11:25:00,
2013-11-13 04:26:00,61.8,36.8,29.41,NNE,21,6.4,7.4,39,-99.99,,,0.00,0,rob ver 1B,2013-11-13 11:26:00,
2013-11-13 04:27:00,61.9,36.8,29.41,NNE,23,5.8,6.8,38,-99.99,,,0.00,0,rob ver 1B,2013-11-13 11:27:00,
2013-11-13 04:28:00,62.0,36.6,29.41,NNE,30,6.4,7.2,38,-99.99,,,0.00,0,rob ver 1B,2013-11-13 11:28:00,
2013-11-13 04:29:00,62.1,36.4,29.41,NE,34,6.4,7.4,37,-99.99,,,0.00,0,rob ver 1B,2013-11-13 11:29:00,
2013-11-13 04:30:00,62.2,36.1,29.41,NE,36,6.8,7.5,37,-99.99,,,0.00,0,rob ver 1B,2013-11-13 11:30:00,
2013-11-13 04:31:00,62.3,36.1,29.41,NE,46,5.2,6.8,37,-99.99,,,0.00,0,rob ver 1B,2013-11-13 11:31:00,
2013-11-13 04:32:00,62.4,36.2,29.41,NE,51,4.6,6.5,37,-99.99,,,0.00,0,rob ver 1B,2013-11-13 11:32:00,
2013-11-13 04:33:00,62.3,36.1,29.41,NE,54,4.3,5.5,37,-99.99,,,0.00,0,rob ver 1B,2013-11-13 11:33:00,
2013-11-13 04:34:00,62.3,36.1,29.41,NE,56,4.5,6.0,37,-99.99,,,0.00,0,rob ver 1B,2013-11-13 11:34:00,
2013-11-13 04:35:00,62.3,36.1,29.41,NE,50,4.8,6.4,37,-99.99,,,0.00,0,rob ver 1B,2013-11-13 11:35:00,
2013-11-13 04:36:00,62.3,36.2,29.41,NE,47,4.7,6.0,37,-99.99,,,0.00,0,rob ver 1B,2013-11-13 11:36:00,
2013-11-13 04:37:00,62.2,36.2,29.41,NE,45,4.6,6.2,38,-99.99,,,0.00,0,rob ver 1B,2013-11-13 11:37:00,
2013-11-13 04:38:00,62.1,36.2,29.41,NE,44,5.5,6.2,38,-99.99,,,0.00,0,rob ver 1B,2013-11-13 11:38:00,
2013-11-13 04:39:00,62.0,36.1,29.41,NE,42,5.8,6.6,38,-99.99,,,0.00,0,rob ver 1B,2013-11-13 11:39:00,
2013-11-13 04:40:00,61.9,36.1,29.41,NE,42,5.9,7.0,38,-99.99,,,0.00,0,rob ver 1B,2013-11-13 11:40:00,
2013-11-13 04:41:00,61.8,36.0,29.41,NE,41,5.6,6.7,38,-99.99,,,0.00,0,rob ver 1B,2013-11-13 11:41:00,
2013-11-13 04:42:00,61.6,35.9,29.41,NE,41,5.7,6.5,38,-99.99,,,0.00,0,rob ver 1B,2013-11-13 11:42:00,
2013-11-13 04:43:00,61.4,35.9,29.41,NE,37,6.0,6.8,38,-99.99,,,0.00,0,rob ver 1B,2013-11-13 11:43:00,
2013-11-13 04:44:00,61.3,35.8,29.41,NE,34,6.0,7.1,38,-99.99,,,0.00,0,rob ver 1B,2013-11-13 11:44:00,
2013-11-13 04:45:00,61.3,35.8,29.41,NE,34,6.5,7.2,38,-99.99,,,0.00,0,rob ver 1B,2013-11-13 11:45:00,
2013-11-13 04:46:00,61.2,35.7,29.41,NNE,32,7.2,7.8,38,-99.99,,,0.00,0,rob ver 1B,2013-11-13 11:46:00,
2013-11-13 04:47:00,61.3,35.6,29.41,NNE,32,7.0,7.4,37,-99.99,,,0.00,0,rob ver 1B,2013-11-13 11:47:00,
2013-11-13 04:48:00,61.4,35.4,29.41,NNE,31,6.3,6.8,37,-99.99,,,0.00,0,rob ver 1B,2013-11-13 11:48:00,
2013-11-13 04:49:00,61.4,35.2,29.41,NNE,29,5.9,6.5,37,-99.99,,,0.00,0,rob ver 1B,2013-11-13 11:49:00,
2013-11-13 04:50:00,61.4,35.0,29.41,NNE,31,5.2,5.9,36,-99.99,,,0.00,0,rob ver 1B,2013-11-13 11:50:00,
2013-11-13 04:51:00,61.4,34.8,29.41,NNE,24,4.1,4.7,36,-99.99,,,0.00,0,rob ver 1B,2013-11-13 11:51:00,
2013-11-13 04:52:00,61.4,34.6,29.41,NNE,23,3.5,3.9,36,-99.99,,,0.00,0,rob ver 1B,2013-11-13 11:52:00,
2013-11-13 04:53:00,61.3,34.3,29.41,NNE,29,2.7,3.3,36,-99.99,,,0.00,0,rob ver 1B,2013-11-13 11:53:00,
2013-11-13 04:54:00,61.3,34.3,29.41,NNE,25,2.7,3.4,36,-99.99,,,0.00,0,rob ver 1B,2013-11-13 11:54:00,
2013-11-13 04:55:00,61.2,34.2,29.41,NNE,14,1.9,2.2,35,-99.99,,,0.00,0,rob ver 1B,2013-11-13 11:55:00,
2013-11-13 04:56:00,61.2,33.7,29.41,NNE,21,2.6,2.9,35,-99.99,,,0.00,0,rob ver 1B,2013-11-13 11:56:00,
2013-11-13 04:57:00,61.3,33.4,29.41,NNE,16,2.7,3.2,34,-99.99,,,0.00,0,rob ver 1B,2013-11-13 11:57:00,
2013-11-13 04:58:00,61.6,33.3,29.41,North,11,2.9,3.6,34,-99.99,,,0.00,0,rob ver 1B,2013-11-13 11:58:00,
2013-11-13 04:59:00,61.8,33.3,29.41,NNE,14,3.1,3.6,33,-99.99,,,0.00,0,rob ver 1B,2013-11-13 11:59:00,
2013-11-13 05:00:00,61.9,33.2,29.41,North,10,3.2,3.6,33,-99.99,,,0.00,0,rob ver 1B,2013-11-13 12:00:00,
2013-11-13 05:01:00,61.9,33.2,29.41,North,10,4.1,4.6,33,-99.99,,,0.00,0,rob ver 1B,2013-11-13 12:01:00,
2013-11-13 05:02:00,62.0,33.2,29.41,NNE,14,4.0,4.3,33,-99.99,,,0.00,0,rob ver 1B,2013-11-13 12:02:00,
2013-11-13 05:03:00,61.9,33.0,29.41,NNE,14,3.9,4.3,33,-99.99,,,0.00,0,rob ver 1B,2013-11-13 12:03:00,
2013-11-13 05:04:00,61.6,32.9,29.41,NNE,12,4.3,4.8,34,-99.99,,,0.00,0,rob ver 1B,2013-11-13 12:04:00,
2013-11-13 05:05:00,61.4,32.9,29.41,North,5,4.4,4.8,34,-99.99,,,0.00,0,rob ver 1B,2013-11-13 12:05:00,
2013-11-13 05:06:00,61.3,33.1,29.41,North,5,4.8,5.1,34,-99.99,,,0.00,0,rob ver 1B,2013-11-13 12:06:00,
2013-11-13 05:07:00,61.4,33.1,29.41,North,4,4.9,5.2,34,-99.99,,,0.00,0,rob ver 1B,2013-11-13 12:07:00,
2013-11-13 05:08:00,61.5,33.1,29.41,North,0,4.5,5.0,34,-99.99,,,0.00,0,rob ver 1B,2013-11-13 12:08:00,
2013-11-13 05:09:00,61.5,33.0,29.41,North,4,4.4,4.7,34,-99.99,,,0.00,0,rob ver 1B,2013-11-13 12:09:00,
2013-11-13 05:10:00,61.4,32.9,29.41,North,2,4.5,5.0,34,-99.99,,,0.00,0,rob ver 1B,2013-11-13 12:10:00,
2013-11-13 05:11:00,61.4,32.9,29.41,North,3,4.3,4.6,33,-99.99,,,0.00,0,rob ver 1B,2013-11-13 12:11:00,
2013-11-13 05:12:00,61.5,32.8,29.41,North,7,3.9,4.1,33,-99.99,,,0.00,0,rob ver 1B,2013-11-13 12:12:00,
2013-11-13 05:13:00,61.4,32.8,29.41,North,10,3.4,3.6,33,-99.99,,,0.00,0,rob ver 1B,2013-11-13 12:13:00,
2013-11-13 05:14:00,61.4,32.8,29.41,NNE,12,3.1,3.5,33,-99.99,,,0.00,0,rob ver 1B,2013-11-13 12:14:00,
2013-11-13 05:15:00,61.4,32.8,29.41,NNE,17,2.4,2.8,33,-99.99,,,0.00,0,rob ver 1B,2013-11-13 12:15:00,
2013-11-13 05:16:00,61.4,32.7,29.41,NNE,26,1.7,2.3,34,-99.99,,,0.00,0,rob ver 1B,2013-11-13 12:16:00,
2013-11-13 05:17:00,61.3,32.8,29.41,ENE,68,1.1,1.7,34,-99.99,,,0.00,0,rob ver 1B,2013-11-13 12:17:00,
2013-11-13 05:18:00,61.2,32.8,29.41,SSE,154,1.5,2.4,34,-99.99,,,0.00,0,rob ver 1B,2013-11-13 12:18:00,
2013-11-13 05:19:00,61.0,32.9,29.41,SSE,149,1.9,2.4,34,-99.99,,,0.00,0,rob ver 1B,2013-11-13 12:19:00,
2013-11-13 05:20:00,60.8,32.9,29.41,SE,144,1.5,1.9,34,-99.99,,,0.00,0,rob ver 1B,2013-11-13 12:20:00,
2013-11-13 05:21:00,60.7,32.7,29.41,ESE,105,1.3,1.6,34,-99.99,,,0.00,0,rob ver 1B,2013-11-13 12:21:00,
2013-11-13 05:22:00,60.9,32.7,29.41,East,98,1.4,1.7,34,-99.99,,,0.00,0,rob ver 1B,2013-11-13 12:22:00,
2013-11-13 05:23:00,60.9,32.7,29.41,ESE,117,2.0,2.3,34,-99.99,,,0.00,0,rob ver 1B,2013-11-13 12:23:00,
2013-11-13 05:24:00,60.8,32.6,29.41,East,84,2.3,2.9,34,-99.99,,,0.00,0,rob ver 1B,2013-11-13 12:24:00,
2013-11-13 05:25:00,60.7,32.8,29.41,ENE,58,2.4,2.8,34,-99.99,,,0.00,0,rob ver 1B,2013-11-13 12:25:00,
2013-11-13 05:26:00,60.7,32.8,29.41,NE,52,2.0,2.6,34,-99.99,,,0.00,0,rob ver 1B,2013-11-13 12:26:00,
2013-11-13 05:27:00,60.6,32.9,29.44,ENE,59,2.0,2.7,35,-99.99,,,0.00,0,rob ver 1B,2013-11-13 12:27:00,
2013-11-13 05:28:00,60.5,33.1,29.44,NE,55,2.9,4.0,35,-99.99,,,0.00,0,rob ver 1B,2013-11-13 12:28:00,
2013-11-13 05:29:00,60.4,33.4,29.41,NE,53,4.1,4.8,36,-99.99,,,0.00,0,rob ver 1B,2013-11-13 12:29:00,
2013-11-13 05:30:00,60.4,33.7,29.41,NE,51,4.7,5.9,36,-99.99,,,0.00,0,rob ver 1B,2013-11-13 12:30:00,
2013-11-13 05:31:00,60.5,33.9,29.41,NE,49,5.5,7.0,36,-99.99,,,0.00,0,rob ver 1B,2013-11-13 12:31:00,
2013-11-13 05:32:00,60.7,34.2,29.41,NE,46,6.3,7.5,36,-99.99,,,0.00,0,rob ver 1B,2013-11-13 12:32:00,
2013-11-13 05:33:00,60.8,34.3,29.41,NE,46,5.5,6.6,36,-99.99,,,0.00,0,rob ver 1B,2013-11-13 12:33:00,
2013-11-13 05:34:00,60.8,34.4,29.44,NE,43,5.2,6.2,37,-99.99,,,0.00,0,rob ver 1B,2013-11-13 12:34:00,
2013-11-13 05:35:00,60.7,34.5,29.41,NE,42,4.8,5.8,37,-99.99,,,0.00,0,rob ver 1B,2013-11-13 12:35:00,
2013-11-13 05:36:00,60.6,34.7,29.41,NE,41,4.7,5.8,37,-99.99,,,0.00,0,rob ver 1B,2013-11-13 12:36:00,
2013-11-13 05:37:00,60.5,34.8,29.41,NE,41,4.1,5.1,38,-99.99,,,0.00,0,rob ver 1B,2013-11-13 12:37:00,
2013-11-13 05:38:00,60.3,35.1,29.41,NE,43,4.2,5.2,39,-99.99,,,0.00,0,rob ver 1B,2013-11-13 12:38:00,
2013-11-13 05:39:00,60.3,35.4,29.41,NE,38,5.2,6.2,39,-99.99,,,0.00,0,rob ver 1B,2013-11-13 12:39:00,
2013-11-13 05:40:00,60.3,35.7,29.41,NE,40,6.1,6.9,39,-99.99,,,0.00,0,rob ver 1B,2013-11-13 12:40:00,
2013-11-13 05:41:00,60.4,36.0,29.41,NE,40,6.4,7.7,39,-99.99,,,0.00,0,rob ver 1B,2013-11-13 12:41:00,
2013-11-13 05:42:00,60.6,36.0,29.41,NNE,30,6.6,7.3,39,-99.99,,,0.00,0,rob ver 1B,2013-11-13 12:42:00,
2013-11-13 05:43:00,60.7,36.2,29.41,NNE,33,6.8,7.3,39,-99.99,,,0.00,0,rob ver 1B,2013-11-13 12:43:00,
2013-11-13 05:44:00,60.8,36.2,29.41,NE,35,6.1,7.3,39,-99.99,,,0.00,0,rob ver 1B,2013-11-13 12:44:00,
2013-11-13 05:45:00,60.9,36.4,29.41,NE,37,5.8,6.8,39,-99.99,,,0.00,0,rob ver 1B,2013-11-13 12:45:00,
2013-11-13 05:46:00,61.0,36.5,29.41,NE,34,5.1,6.0,39,-99.99,,,0.00,0,rob ver 1B,2013-11-13 12:46:00,
2013-11-13 05:47:00,61.0,36.4,29.41,NE,38,4.6,5.8,39,-99.99,,,0.00,0,rob ver 1B,2013-11-13 12:47:00,
2013-11-13 05:48:00,61.0,36.7,29.41,NNE,29,5.3,5.7,40,-99.99,,,0.00,0,rob ver 1B,2013-11-13 12:48:00,
2013-11-13 05:49:00,61.2,36.7,29.41,NNE,21,4.0,4.7,39,-99.99,,,0.00,0,rob ver 1B,2013-11-13 12:49:00,
2013-11-13 05:50:00,61.2,36.7,29.41,North,9,4.7,5.9,40,-99.99,,,0.00,0,rob ver 1B,2013-11-13 12:50:00,
2013-11-13 05:51:00,61.2,36.9,29.41,North,6,4.5,5.6,39,-99.99,,,0.00,0,rob ver 1B,2013-11-13 12:51:00,
2013-11-13 05:52:00,61.3,36.7,29.41,NNE,17,4.5,5.5,40,-99.99,,,0.00,0,rob ver 1B,2013-11-13 12:52:00,
2013-11-13 05:53:00,61.3,36.7,29.41,North,10,5.3,6.0,39,-99.99,,,0.00,0,rob ver 1B,2013-11-13 12:53:00,
2013-11-13 05:54:00,61.2,36.6,29.41,NNE,13,5.8,6.3,40,-99.99,,,0.00,0,rob ver 1B,2013-11-13 12:54:00,
2013-11-13 05:55:00,61.2,36.8,29.41,NNE,17,6.1,6.5,40,-99.99,,,0.00,0,rob ver 1B,2013-11-13 12:55:00,
2013-11-13 05:56:00,61.4,36.8,29.41,NNE,15,5.4,6.2,39,-99.99,,,0.00,0,rob ver 1B,2013-11-13 12:56:00,
2013-11-13 05:57:00,61.3,36.6,29.41,NNE,17,5.0,5.5,40,-99.99,,,0.00,0,rob ver 1B,2013-11-13 12:57:00,
2013-11-13 05:58:00,61.2,36.8,29.41,NNE,17,5.3,5.8,40,-99.99,,,0.00,0,rob ver 1B,2013-11-13 12:58:00,
2013-11-13 05:59:00,61.2,37.0,29.41,NNE,20,5.2,5.8,40,-99.99,,,0.00,0,rob ver 1B,2013-11-13 12:59:00,
2013-11-13 06:00:00,61.2,37.1,29.41,NNE,20,5.5,5.8,40,-99.99,,,0.00,0,rob ver 1B,2013-11-13 13:00:00,
2013-11-13 06:01:00,61.5,37.4,29.41,NNE,18,5.4,5.9,40,-99.99,,,0.00,0,rob ver 1B,2013-11-13 13:01:00,
2013-11-13 06:02:00,61.6,37.2,29.41,NNE,16,4.7,5.2,39,-99.99,,,0.00,0,rob ver 1B,2013-11-13 13:02:00,
2013-11-13 06:03:00,61.6,37.2,29.41,NNE,16,4.4,4.9,40,-99.99,,,0.00,0,rob ver 1B,2013-11-13 13:03:00,
2013-11-13 06:04:00,61.6,37.2,29.41,NNE,17,4.1,4.5,40,-99.99,,,0.00,0,rob ver 1B,2013-11-13 13:04:00,
2013-11-13 06:05:00,61.6,37.1,29.41,NNE,20,4.2,4.7,40,-99.99,,,0.00,0,rob ver 1B,2013-11-13 13:05:00,
2013-11-13 06:06:00,61.5,37.0,29.41,NNE,22,4.6,5.0,39,-99.99,,,0.00,0,rob ver 1B,2013-11-13 13:06:00,
2013-11-13 06:07:00,61.2,36.8,29.41,NNE,25,4.7,5.7,40,-99.99,,,0.00,0,rob ver 1B,2013-11-13 13:07:00,
2013-11-13 06:08:00,61.1,37.4,29.41,NNE,25,5.7,6.2,41,-99.99,,,0.00,0,rob ver 1B,2013-11-13 13:08:00,
2013-11-13 06:09:00,61.4,37.6,29.41,NNE,26,5.8,6.3,41,-99.99,,,0.00,0,rob ver 1B,2013-11-13 13:09:00,
2013-11-13 06:10:00,61.5,37.6,29.41,NNE,27,5.6,6.0,40,-99.99,,,0.00,0,rob ver 1B,2013-11-13 13:10:00,
2013-11-13 06:11:00,61.6,37.5,29.41,NNE,29,5.1,5.9,40,-99.99,,,0.00,0,rob ver 1B,2013-11-13 13:11:00,
2013-11-13 06:12:00,61.5,37.4,29.41,NNE,31,5.0,5.6,40,-99.99,,,0.00,0,rob ver 1B,2013-11-13 13:12:00,
2013-11-13 06:13:00,61.4,37.6,29.41,NNE,30,5.0,5.5,41,-99.99,,,0.00,0,rob ver 1B,2013-11-13 13:13:00,
2013-11-13 06:14:00,61.4,37.6,29.41,NNE,28,5.0,5.6,41,-99.99,,,0.00,0,rob ver 1B,2013-11-13 13:14:00,
2013-11-13 06:15:00,61.5,37.9,29.41,NNE,25,5.6,5.9,41,-99.99,,,0.00,0,rob ver 1B,2013-11-13 13:15:00,
2013-11-13 06:16:00,61.7,38.0,29.41,NNE,24,5.4,5.8,41,-99.99,,,0.00,0,rob ver 1B,2013-11-13 13:16:00,
2013-11-13 06:17:00,61.8,37.9,29.41,NNE,25,5.1,5.6,40,-99.99,,,0.00,0,rob ver 1B,2013-11-13 13:17:00,
2013-11-13 06:18:00,61.9,37.9,29.41,NNE,25,5.1,5.5,40,-99.99,,,0.00,0,rob ver 1B,2013-11-13 13:18:00,
2013-11-13 06:19:00,61.9,37.8,29.41,NNE,27,5.3,5.6,40,-99.99,,,0.00,0,rob ver 1B,2013-11-13 13:19:00,
2013-11-13 06:20:00,61.8,37.7,29.41,NE,34,4.6,5.3,40,-99.99,,,0.00,0,rob ver 1B,2013-11-13 13:20:00,
2013-11-13 06:21:00,61.8,37.9,29.44,NNE,33,4.7,5.3,41,-99.99,,,0.00,0,rob ver 1B,2013-11-13 13:21:00,
2013-11-13 06:22:00,61.8,38.0,29.44,NNE,33,4.5,5.0,41,-99.99,,,0.00,0,rob ver 1B,2013-11-13 13:22:00,
2013-11-13 06:23:00,61.8,37.9,29.44,NNE,33,4.2,4.6,41,-99.99,,,0.00,0,rob ver 1B,2013-11-13 13:23:00,
2013-11-13 06:24:00,61.8,38.0,29.44,NE,38,4.3,4.8,41,-99.99,,,0.00,0,rob ver 1B,2013-11-13 13:24:00,
2013-11-13 06:25:00,61.9,38.2,29.44,NE,39,4.4,4.9,41,-99.99,,,0.00,0,rob ver 1B,2013-11-13 13:25:00,
2013-11-13 06:26:00,62.1,38.3,29.44,NE,37,4.6,5.0,41,-99.99,,,0.00,0,rob ver 1B,2013-11-13 13:26:00,
2013-11-13 06:27:00,62.3,38.2,29.44,NE,36,4.7,5.2,40,-99.99,,,0.00,0,rob ver 1B,2013-11-13 13:27:00,
2013-11-13 06:28:00,62.5,38.1,29.44,NE,36,4.5,4.8,40,-99.99,,,0.00,0,rob ver 1B,2013-11-13 13:28:00,
2013-11-13 06:29:00,62.6,38.1,29.44,NE,34,4.6,5.0,40,-99.99,,,0.00,0,rob ver 1B,2013-11-13 13:29:00,
2013-11-13 06:30:00,62.6,38.1,29.44,NE,34,4.5,5.1,39,-99.99,,,0.00,0,rob ver 1B,2013-11-13 13:30:00,
2013-11-13 06:31:00,62.6,38.0,29.44,NE,35,4.4,5.0,40,-99.99,,,0.00,0,rob ver 1B,2013-11-13 13:31:00,
2013-11-13 06:32:00,62.6,38.1,29.44,NE,35,4.7,5.0,40,-99.99,,,0.00,0,rob ver 1B,2013-11-13 13:32:00,
2013-11-13 06:33:00,62.6,38.1,29.44,NE,36,5.2,5.6,39,-99.99,,,0.00,0,rob ver 1B,2013-11-13 13:33:00,
2013-11-13 06:34:00,62.5,37.8,29.44,NE,35,5.2,5.6,40,-99.99,,,0.00,0,rob ver 1B,2013-11-13 13:34:00,
2013-11-13 06:35:00,62.3,37.7,29.44,NE,36,4.8,5.2,39,-99.99,,,0.00,0,rob ver 1B,2013-11-13 13:35:00,
2013-11-13 06:36:00,62.0,37.5,29.44,NNE,32,4.8,5.0,40,-99.99,,,0.00,0,rob ver 1B,2013-11-13 13:36:00,
2013-11-13 06:37:00,61.6,37.5,29.44,NNE,27,4.7,5.2,40,-99.99,,,0.00,0,rob ver 1B,2013-11-13 13:37:00,
2013-11-13 06:38:00,61.4,37.6,29.44,NNE,29,4.7,5.1,41,-99.99,,,0.00,0,rob ver 1B,2013-11-13 13:38:00,
2013-11-13 06:39:00,61.3,37.6,29.44,NNE,29,4.4,5.1,41,-99.99,,,0.00,0,rob ver 1B,2013-11-13 13:39:00,
2013-11-13 06:40:00,61.2,37.6,29.44,NNE,27,4.9,5.7,41,-99.99,,,0.00,0,rob ver 1B,2013-11-13 13:40:00,
2013-11-13 06:41:00,61.1,37.7,29.44,NNE,21,4.7,5.4,41,-99.99,,,0.00,0,rob ver 1B,2013-11-13 13:41:00,
2013-11-13 06:42:00,61.1,37.7,29.44,NNE,18,5.0,5.8,41,-99.99,,,0.00,0,rob ver 1B,2013-11-13 13:42:00,
2013-11-13 06:43:00,61.1,37.7,29.44,NNE,13,5.2,5.8,41,-99.99,,,0.00,0,rob ver 1B,2013-11-13 13:43:00,
2013-11-13 06:44:00,61.2,37.9,29.44,NNE,14,5.5,6.1,41,-99.99,,,0.00,0,rob ver 1B,2013-11-13 13:44:00,
2013-11-13 06:45:00,61.5,38.0,29.44,NNE,16,5.9,6.3,41,-99.99,,,0.00,0,rob ver 1B,2013-11-13 13:45:00,
2013-11-13 06:46:00,61.8,38.0,29.44,NNE,15,5.2,5.9,40,-99.99,,,0.00,0,rob ver 1B,2013-11-13 13:46:00,
2013-11-13 06:47:00,61.9,37.8,29.44,North,11,4.9,5.5,40,-99.99,,,0.00,0,rob ver 1B,2013-11-13 13:47:00,
2013-11-13 06:48:00,62.0,37.8,29.44,North,11,4.7,5.2,40,-99.99,,,0.00,.165,rob ver 1B,2013-11-13 13:48:00,
2013-11-13 06:49:00,62.0,37.8,29.44,NNE,15,5.0,5.7,40,-99.99,,,0.00,.66,rob ver 1B,2013-11-13 13:49:00,
2013-11-13 06:50:00,62.0,37.7,29.44,NNE,14,4.8,5.2,40,-99.99,,,0.00,.66,rob ver 1B,2013-11-13 13:50:00,
2013-11-13 06:51:00,61.8,37.6,29.44,NNE,13,4.7,4.9,40,-99.99,,,0.00,.66,rob ver 1B,2013-11-13 13:51:00,
2013-11-13 06:52:00,61.6,37.6,29.44,NNE,15,4.3,4.7,41,-99.99,,,0.00,.66,rob ver 1B,2013-11-13 13:52:00,
2013-11-13 06:53:00,61.5,37.8,29.44,NNE,12,4.2,4.4,41,-99.99,,,0.00,.825,rob ver 1B,2013-11-13 13:53:00,
2013-11-13 06:54:00,61.4,37.5,29.44,North,9,3.4,4.1,41,-99.99,,,0.00,.99,rob ver 1B,2013-11-13 13:54:00,
2013-11-13 06:55:00,61.2,37.5,29.44,North,355,2.3,3.1,41,-99.99,,,0.00,.99,rob ver 1B,2013-11-13 13:55:00,
2013-11-13 06:56:00,61.0,37.7,29.44,North,353,2.2,2.7,41,-99.99,,,0.00,.99,rob ver 1B,2013-11-13 13:56:00,
2013-11-13 06:57:00,60.9,37.8,29.44,North,8,3.3,3.8,42,-99.99,,,0.00,1.32,rob ver 1B,2013-11-13 13:57:00,
2013-11-13 06:58:00,60.9,37.9,29.44,North,7,3.3,3.8,42,-99.99,,,0.00,1.65,rob ver 1B,2013-11-13 13:58:00,
2013-11-13 06:59:00,61.1,37.8,29.44,NNE,26,2.5,3.0,41,-99.99,,,0.00,1.98,rob ver 1B,2013-11-13 13:59:00,
2013-11-13 07:00:00,60.9,37.6,29.44,NNE,29,4.6,5.3,42,-99.99,,,0.00,2.31,rob ver 1B,2013-11-13 14:00:00,
2013-11-13 07:01:00,61.3,38.2,29.44,NNE,27,5.0,5.3,41,-99.99,,,0.00,2.805,rob ver 1B,2013-11-13 14:01:00,
2013-11-13 07:02:00,61.5,37.9,29.44,NE,36,5.1,5.4,41,-99.99,,,0.00,2.97,rob ver 1B,2013-11-13 14:02:00,
2013-11-13 07:03:00,61.8,38.1,29.44,NNE,29,5.0,5.3,40,-99.99,,,0.00,3.629,rob ver 1B,2013-11-13 14:03:00,
2013-11-13 07:04:00,62.2,37.9,29.44,NNE,28,4.7,5.1,40,-99.99,,,0.00,3.629,rob ver 1B,2013-11-13 14:04:00,
2013-11-13 07:05:00,62.2,37.8,29.44,NNE,24,3.7,4.0,40,-99.99,,,0.00,4.289,rob ver 1B,2013-11-13 14:05:00,
2013-11-13 07:06:00,62.2,37.6,29.44,NNE,20,2.8,3.7,39,-99.99,,,0.00,4.949,rob ver 1B,2013-11-13 14:06:00,
2013-11-13 07:07:00,62.0,37.5,29.44,NNE,23,1.9,2.3,40,-99.99,,,0.00,5.609,rob ver 1B,2013-11-13 14:07:00,
2013-11-13 07:08:00,61.8,37.6,29.44,North,350,1.5,1.9,40,-99.99,,,0.00,6.269,rob ver 1B,2013-11-13 14:08:00,
2013-11-13 07:09:00,61.7,37.7,29.44,ENE,70,1.4,2.1,41,-99.99,,,0.00,7.59,rob ver 1B,2013-11-13 14:09:00,
2013-11-13 07:10:00,61.7,38.0,29.44,NE,35,0.8,1.5,41,-99.99,,,0.00,9.57,rob ver 1B,2013-11-13 14:10:00,
2013-11-13 07:11:00,61.7,37.4,29.44,SSW,194,0.9,2.0,39,-99.99,,,0.00,11.55,rob ver 1B,2013-11-13 14:11:00,
2013-11-13 07:12:00,61.5,36.9,29.44,SW,231,1.8,2.5,40,-99.99,,,0.00,13.53,rob ver 1B,2013-11-13 14:12:00,
2013-11-13 07:13:00,61.2,37.2,29.44,WSW,253,2.0,2.5,41,-99.99,,,0.00,15.51,rob ver 1B,2013-11-13 14:13:00,
2013-11-13 07:14:00,61.0,37.9,29.44,West,271,1.3,1.9,42,-99.99,,,0.00,17.16,rob ver 1B,2013-11-13 14:14:00,
2013-11-13 07:15:00,61.2,37.9,29.44,WNW,291,0.8,1.2,41,-99.99,,,0.00,19.47,rob ver 1B,2013-11-13 14:15:00,
2013-11-13 07:16:00,61.3,37.0,29.44,SW,230,1.4,2.0,38,-99.99,,,0.00,21.94,rob ver 1B,2013-11-13 14:16:00,
2013-11-13 07:17:00,61.3,36.1,29.44,SW,230,1.4,2.3,40,-99.99,,,0.00,24.09,rob ver 1B,2013-11-13 14:17:00,
2013-11-13 07:18:00,61.1,36.8,29.44,SW,233,1.2,2.1,40,-99.99,,,0.00,26.73,rob ver 1B,2013-11-13 14:18:00,
2013-11-13 07:19:00,60.8,36.8,29.44,WSW,244,1.3,2.0,40,-99.99,,,0.00,30.02,rob ver 1B,2013-11-13 14:19:00,
2013-11-13 07:20:00,60.7,37.1,29.44,West,265,0.6,1.1,41,-99.99,,,0.00,32,rob ver 1B,2013-11-13 14:20:00,
2013-11-13 07:21:00,60.6,37.8,29.44,NNW,328,1.1,2.0,42,-99.99,,,0.00,34.64,rob ver 1B,2013-11-13 14:21:00,
2013-11-13 07:22:00,60.9,38.0,29.44,NNE,18,1.1,2.2,42,-99.99,,,0.00,37.28,rob ver 1B,2013-11-13 14:22:00,
2013-11-13 07:23:00,61.3,38.0,29.44,NNW,332,0.8,1.8,41,-99.99,,,0.00,39.92,rob ver 1B,2013-11-13 14:23:00,
2013-11-13 07:24:00,61.6,37.8,29.44,West,272,0.4,0.9,40,-99.99,,,0.00,42.4,rob ver 1B,2013-11-13 14:24:00,
2013-11-13 07:25:00,61.9,37.3,29.44,SW,217,1.7,3.4,39,-99.99,,,0.00,44.54,rob ver 1B,2013-11-13 14:25:00,
2013-11-13 07:26:00,61.8,37.2,29.44,SSW,213,3.4,3.6,40,-99.99,,,0.00,47.18,rob ver 1B,2013-11-13 14:26:00,
2013-11-13 07:27:00,61.6,37.6,29.44,SW,221,3.4,3.8,40,-99.99,,,0.00,49.82,rob ver 1B,2013-11-13 14:27:00,
2013-11-13 07:28:00,61.3,37.2,29.44,SW,227,4.2,4.5,40,-99.99,,,0.00,51.8,rob ver 1B,2013-11-13 14:28:00,
2013-11-13 07:29:00,61.0,37.5,29.44,SW,231,3.3,4.2,41,-99.99,,,0.00,54.61,rob ver 1B,2013-11-13 14:29:00,
2013-11-13 07:30:00,60.9,37.4,29.44,WSW,247,3.6,4.2,41,-99.99,,,0.00,57.08,rob ver 1B,2013-11-13 14:30:00,
2013-11-13 07:31:00,60.6,37.3,29.44,WSW,257,3.5,4.1,41,-99.99,,,0.00,59.72,rob ver 1B,2013-11-13 14:31:00,
2013-11-13 07:32:00,60.5,37.2,29.44,West,261,2.9,3.3,41,-99.99,,,0.00,62.36,rob ver 1B,2013-11-13 14:32:00,
2013-11-13 07:33:00,60.4,36.9,29.44,West,280,2.3,2.5,41,-99.99,,,0.00,64.34,rob ver 1B,2013-11-13 14:33:00,
2013-11-13 07:34:00,60.3,37.1,29.44,NW,310,2.0,2.3,42,-99.99,,,0.00,66.98,rob ver 1B,2013-11-13 14:34:00,
2013-11-13 07:35:00,60.4,37.8,29.44,NW,321,2.5,2.6,42,-99.99,,,0.00,69.62,rob ver 1B,2013-11-13 14:35:00,
2013-11-13 07:36:00,60.6,37.7,29.44,NW,321,2.5,2.8,42,-99.99,,,0.00,72.3,rob ver 1B,2013-11-13 14:36:00,
2013-11-13 07:37:00,60.8,37.6,29.44,NW,315,3.0,3.2,41,-99.99,,,0.00,74.9,rob ver 1B,2013-11-13 14:37:00,
2013-11-13 07:38:00,61.0,37.1,29.44,NW,307,3.0,3.3,40,-99.99,,,0.00,77.5,rob ver 1B,2013-11-13 14:38:00,
2013-11-13 07:39:00,60.8,37.1,29.44,NW,305,3.9,4.1,41,-99.99,,,0.00,80.2,rob ver 1B,2013-11-13 14:39:00,
2013-11-13 07:40:00,60.5,37.2,29.44,WNW,299,4.5,5.1,42,-99.99,,,0.00,82.8,rob ver 1B,2013-11-13 14:40:00,
2013-11-13 07:41:00,60.2,37.3,29.44,WNW,301,4.6,5.1,42,-99.99,,,0.00,85.1,rob ver 1B,2013-11-13 14:41:00,
2013-11-13 07:42:00,60.1,37.4,29.44,WNW,303,4.8,5.1,42,-99.99,,,0.00,88.1,rob ver 1B,2013-11-13 14:42:00,
2013-11-13 07:43:00,59.9,37.3,29.44,NW,305,4.8,5.2,42,-99.99,,,0.00,90.7,rob ver 1B,2013-11-13 14:43:00,
2013-11-13 07:44:00,59.7,37.3,29.44,NW,305,4.7,5.1,43,-99.99,,,0.00,93.4,rob ver 1B,2013-11-13 14:44:00,
2013-11-13 07:45:00,59.6,37.3,29.44,NW,308,4.1,4.6,43,-99.99,,,0.00,95.7,rob ver 1B,2013-11-13 14:45:00,
2013-11-13 07:46:00,59.6,37.4,29.44,NW,307,4.1,4.5,43,-99.99,,,0.00,98.7,rob ver 1B,2013-11-13 14:46:00,
2013-11-13 07:47:00,59.6,37.4,29.44,NW,304,4.0,4.3,43,-99.99,,,0.00,102,rob ver 1B,2013-11-13 14:47:00,
2013-11-13 07:48:00,59.7,37.4,29.44,WNW,301,3.5,4.0,43,-99.99,,,0.00,104.4,rob ver 1B,2013-11-13 14:48:00,
2013-11-13 07:49:00,59.8,37.4,29.44,WNW,302,3.5,3.9,43,-99.99,,,0.00,107.2,rob ver 1B,2013-11-13 14:49:00,
2013-11-13 07:50:00,59.8,37.3,29.44,WNW,300,3.4,3.8,42,-99.99,,,0.00,109.9,rob ver 1B,2013-11-13 14:50:00,
2013-11-13 07:51:00,59.9,37.3,29.44,NW,307,3.0,3.5,42,-99.99,,,0.00,112.5,rob ver 1B,2013-11-13 14:51:00,
2013-11-13 07:52:00,60.0,37.3,29.44,NW,313,2.6,3.0,42,-99.99,,,0.00,115.2,rob ver 1B,2013-11-13 14:52:00,
2013-11-13 07:53:00,60.2,37.3,29.44,NW,314,2.7,3.2,42,-99.99,,,0.00,117.8,rob ver 1B,2013-11-13 14:53:00,
2013-11-13 07:54:00,60.4,37.4,29.44,NW,319,2.3,2.8,42,-99.99,,,0.00,120.4,rob ver 1B,2013-11-13 14:54:00,
2013-11-13 07:55:00,60.5,37.3,29.44,NW,315,3.1,3.5,41,-99.99,,,0.00,123.1,rob ver 1B,2013-11-13 14:55:00,
2013-11-13 07:56:00,60.7,37.4,29.44,WNW,299,3.6,4.1,41,-99.99,,,0.00,126.4,rob ver 1B,2013-11-13 14:56:00,
2013-11-13 07:57:00,60.7,37.4,29.44,WNW,302,3.9,4.5,41,-99.99,,,0.00,129,rob ver 1B,2013-11-13 14:57:00,
2013-11-13 07:58:00,60.9,37.4,29.44,NW,304,4.0,4.5,41,-99.99,,,0.00,131.7,rob ver 1B,2013-11-13 14:58:00,
2013-11-13 07:59:00,61.1,37.4,29.44,NW,312,3.6,4.3,40,-99.99,,,0.00,134.8,rob ver 1B,2013-11-13 14:59:00,
2013-11-13 08:00:00,61.3,37.2,29.44,NW,307,3.7,4.2,40,-99.99,,,0.00,137.6,rob ver 1B,2013-11-13 15:00:00,
2013-11-13 08:01:00,61.5,37.0,29.44,NW,310,3.7,4.3,39,-99.99,,,0.00,140.9,rob ver 1B,2013-11-13 15:01:00,
2013-11-13 08:02:00,61.8,36.6,29.44,NW,310,4.2,4.7,38,-99.99,,,0.00,143.5,rob ver 1B,2013-11-13 15:02:00,
2013-11-13 08:03:00,61.9,36.1,29.44,NW,307,4.1,4.8,37,-99.99,,,0.00,146.5,rob ver 1B,2013-11-13 15:03:00,
2013-11-13 08:04:00,62.1,35.7,29.44,NW,307,4.2,5.3,35,-99.99,,,0.00,149.5,rob ver 1B,2013-11-13 15:04:00,
2013-11-13 08:05:00,62.3,35.0,29.44,NW,305,4.3,5.1,35,-99.99,,,0.00,152.8,rob ver 1B,2013-11-13 15:05:00,
2013-11-13 08:06:00,62.4,34.4,29.44,WNW,302,4.5,5.0,34,-99.99,,,0.00,155.7,rob ver 1B,2013-11-13 15:06:00,
2013-11-13 08:07:00,62.6,34.3,29.44,WNW,301,4.3,5.1,34,-99.99,,,0.00,158.2,rob ver 1B,2013-11-13 15:07:00,
2013-11-13 08:08:00,62.7,34.1,29.44,WNW,299,4.3,4.9,34,-99.99,,,0.00,161.3,rob ver 1B,2013-11-13 15:08:00,
2013-11-13 08:09:00,62.9,34.2,29.44,WNW,300,4.0,4.6,33,-99.99,,,0.00,164,rob ver 1B,2013-11-13 15:09:00,
2013-11-13 08:10:00,63.0,34.1,29.44,WNW,300,4.1,4.7,33,-99.99,,,0.00,167.3,rob ver 1B,2013-11-13 15:10:00,
2013-11-13 08:11:00,63.1,34.0,29.44,WNW,295,4.5,4.8,33,-99.99,,,0.00,169.9,rob ver 1B,2013-11-13 15:11:00,
2013-11-13 08:12:00,63.1,33.8,29.44,WNW,297,4.4,5.3,32,-99.99,,,0.00,173.2,rob ver 1B,2013-11-13 15:12:00,
2013-11-13 08:13:00,63.2,33.5,29.44,WNW,302,4.2,5.1,32,-99.99,,,0.00,176,rob ver 1B,2013-11-13 15:13:00,
2013-11-13 08:14:00,63.3,33.5,29.44,WNW,302,4.0,4.6,32,-99.99,,,0.00,179.8,rob ver 1B,2013-11-13 15:14:00,
2013-11-13 08:15:00,63.4,33.3,29.44,WNW,300,4.0,4.8,31,-99.99,,,0.00,182.5,rob ver 1B,2013-11-13 15:15:00,
2013-11-13 08:16:00,63.5,33.0,29.44,WNW,295,4.1,4.8,31,-99.99,,,0.00,185.1,rob ver 1B,2013-11-13 15:16:00,
2013-11-13 08:17:00,63.6,33.1,29.47,WNW,292,4.1,5.0,31,-99.99,,,0.00,188.1,rob ver 1B,2013-11-13 15:17:00,
2013-11-13 08:18:00,63.6,33.1,29.47,WNW,289,3.5,4.0,31,-99.99,,,0.00,191,rob ver 1B,2013-11-13 15:18:00,
2013-11-13 08:19:00,63.7,32.8,29.47,WNW,285,3.9,4.7,31,-99.99,,,0.00,194.2,rob ver 1B,2013-11-13 15:19:00,
2013-11-13 08:20:00,63.8,32.7,29.44,WNW,286,4.1,4.9,30,-99.99,,,0.00,196.3,rob ver 1B,2013-11-13 15:20:00,
2013-11-13 08:21:00,63.8,32.3,29.47,WNW,282,4.6,5.3,30,-99.99,,,0.00,200.3,rob ver 1B,2013-11-13 15:21:00,
2013-11-13 08:22:00,63.8,32.2,29.47,WNW,288,4.5,5.2,30,-99.99,,,0.00,203.1,rob ver 1B,2013-11-13 15:22:00,
2013-11-13 08:23:00,63.7,32.1,29.47,WNW,290,4.4,5.3,30,-99.99,,,0.00,206.5,rob ver 1B,2013-11-13 15:23:00,
2013-11-13 08:24:00,63.8,32.0,29.47,WNW,290,3.8,4.5,30,-99.99,,,0.00,209.5,rob ver 1B,2013-11-13 15:24:00,
2013-11-13 08:25:00,63.8,31.8,29.47,WNW,290,4.3,4.9,29,-99.99,,,0.00,212.1,rob ver 1B,2013-11-13 15:25:00,
2013-11-13 08:26:00,63.9,31.8,29.47,WNW,297,4.1,4.7,29,-99.99,,,0.00,215.4,rob ver 1B,2013-11-13 15:26:00,
2013-11-13 08:27:00,63.9,32.1,29.47,WNW,296,3.8,4.4,29,-99.99,,,0.00,218.2,rob ver 1B,2013-11-13 15:27:00,
2013-11-13 08:28:00,64.0,32.1,29.47,WNW,297,3.8,4.7,30,-99.99,,,0.00,221.5,rob ver 1B,2013-11-13 15:28:00,
2013-11-13 08:29:00,64.1,32.1,29.47,NW,305,3.6,4.2,30,-99.99,,,0.00,224.7,rob ver 1B,2013-11-13 15:29:00,
2013-11-13 08:30:00,64.2,32.1,29.47,WNW,303,3.7,4.3,29,-99.99,,,0.00,227.3,rob ver 1B,2013-11-13 15:30:00,
2013-11-13 08:31:00,64.3,32.1,29.44,WNW,299,3.9,4.4,29,-99.99,,,0.00,230.9,rob ver 1B,2013-11-13 15:31:00,
2013-11-13 08:32:00,64.3,32.1,29.47,WNW,293,3.7,4.6,29,-99.99,,,0.00,233.9,rob ver 1B,2013-11-13 15:32:00,
2013-11-13 08:33:00,64.4,32.1,29.47,WNW,295,4.0,4.7,29,-99.99,,,0.00,236.7,rob ver 1B,2013-11-13 15:33:00,
2013-11-13 08:34:00,64.5,32.2,29.47,WNW,293,3.6,4.1,29,-99.99,,,0.00,239.8,rob ver 1B,2013-11-13 15:34:00,
2013-11-13 08:35:00,64.6,32.3,29.44,WNW,292,3.9,4.4,29,-99.99,,,0.00,243.3,rob ver 1B,2013-11-13 15:35:00,
2013-11-13 08:36:00,64.7,32.3,29.44,WNW,296,3.9,4.6,29,-99.99,,,0.00,245.9,rob ver 1B,2013-11-13 15:36:00,
2013-11-13 08:37:00,64.8,32.3,29.47,WNW,294,4.1,4.9,29,-99.99,,,0.00,249.1,rob ver 1B,2013-11-13 15:37:00,
2013-11-13 08:38:00,64.9,32.2,29.44,WNW,300,4.5,5.1,29,-99.99,,,0.00,252,rob ver 1B,2013-11-13 15:38:00,
2013-11-13 08:39:00,65.0,32.2,29.44,NW,305,4.6,5.5,29,-99.99,,,0.00,255.2,rob ver 1B,2013-11-13 15:39:00,
2013-11-13 08:40:00,65.0,32.3,29.47,NW,305,5.1,5.7,29,-99.99,,,0.00,257.5,rob ver 1B,2013-11-13 15:40:00,
2013-11-13 08:41:00,65.2,32.3,29.47,NW,309,5.2,5.8,28,-99.99,,,0.00,261.3,rob ver 1B,2013-11-13 15:41:00,
2013-11-13 08:42:00,65.2,32.1,29.47,NW,312,5.7,6.5,28,-99.99,,,0.00,263.6,rob ver 1B,2013-11-13 15:42:00,
2013-11-13 08:43:00,65.3,32.1,29.47,NW,310,5.8,6.5,29,-99.99,,,0.00,266.4,rob ver 1B,2013-11-13 15:43:00,
2013-11-13 08:44:00,65.4,32.3,29.47,NW,308,5.4,5.9,28,-99.99,,,0.00,269.8,rob ver 1B,2013-11-13 15:44:00,
2013-11-13 08:45:00,65.5,32.4,29.47,NW,308,5.4,6.0,28,-99.99,,,0.00,272.8,rob ver 1B,2013-11-13 15:45:00,
2013-11-13 08:46:00,65.7,32.6,29.47,NW,313,5.6,6.5,28,-99.99,,,0.00,275.1,rob ver 1B,2013-11-13 15:46:00,
2013-11-13 08:47:00,65.8,32.5,29.47,NW,308,6.0,6.7,28,-99.99,,,0.00,278.7,rob ver 1B,2013-11-13 15:47:00,
2013-11-13 08:48:00,66.0,32.7,29.47,NW,306,5.8,6.4,28,-99.99,,,0.00,281.4,rob ver 1B,2013-11-13 15:48:00,
2013-11-13 08:49:00,66.1,32.6,29.47,NW,317,5.1,6.1,28,-99.99,,,0.00,284.8,rob ver 1B,2013-11-13 15:49:00,
2013-11-13 08:50:00,66.3,32.6,29.47,NW,317,4.8,5.9,28,-99.99,,,0.00,288,rob ver 1B,2013-11-13 15:50:00,
2013-11-13 08:51:00,66.6,32.7,29.47,NW,312,5.5,7.2,27,-99.99,,,0.00,290.5,rob ver 1B,2013-11-13 15:51:00,
2013-11-13 08:52:00,66.6,32.6,29.47,NW,314,5.9,6.8,28,-99.99,,,0.00,292.9,rob ver 1B,2013-11-13 15:52:00,
2013-11-13 08:53:00,66.8,33.0,29.47,NW,311,4.8,5.9,28,-99.99,,,0.00,296.1,rob ver 1B,2013-11-13 15:53:00,
2013-11-13 08:54:00,67.0,32.8,29.47,NW,308,5.8,6.5,28,-99.99,,,0.00,298.9,rob ver 1B,2013-11-13 15:54:00,
2013-11-13 08:55:00,67.1,32.8,29.47,NW,305,5.9,6.5,27,-99.99,,,0.00,302.2,rob ver 1B,2013-11-13 15:55:00,
2013-11-13 08:56:00,67.2,32.9,29.47,NW,309,5.6,6.7,27,-99.99,,,0.00,304.8,rob ver 1B,2013-11-13 15:56:00,
2013-11-13 08:57:00,67.3,32.9,29.47,NW,309,5.3,6.1,27,-99.99,,,0.00,307.4,rob ver 1B,2013-11-13 15:57:00,
2013-11-13 08:58:00,67.4,33.2,29.47,NW,304,4.5,5.2,27,-99.99,,,0.00,310.7,rob ver 1B,2013-11-13 15:58:00,
2013-11-13 08:59:00,67.7,33.2,29.47,WNW,297,4.5,5.1,27,-99.99,,,0.00,314,rob ver 1B,2013-11-13 15:59:00,
2013-11-13 09:00:00,67.8,33.2,29.47,WNW,303,4.5,5.0,27,-99.99,,,0.00,316.7,rob ver 1B,2013-11-13 16:00:00,
2013-11-13 09:01:00,68.0,33.2,29.44,WNW,294,3.9,4.6,27,-99.99,,,0.00,319.3,rob ver 1B,2013-11-13 16:01:00,
2013-11-13 09:02:00,68.2,33.3,29.44,WNW,298,3.6,4.2,27,-99.99,,,0.00,321.9,rob ver 1B,2013-11-13 16:02:00,
2013-11-13 09:03:00,68.4,33.3,29.47,WNW,299,3.7,4.1,27,-99.99,,,0.00,324.6,rob ver 1B,2013-11-13 16:03:00,
2013-11-13 09:04:00,68.6,33.4,29.47,WNW,291,3.9,4.5,26,-99.99,,,0.00,327.9,rob ver 1B,2013-11-13 16:04:00,
2013-11-13 09:05:00,68.6,33.4,29.47,WNW,293,4.2,4.7,27,-99.99,,,0.00,331,rob ver 1B,2013-11-13 16:05:00,
2013-11-13 09:06:00,68.6,33.7,29.47,NW,307,3.7,4.3,27,-99.99,,,0.00,333.2,rob ver 1B,2013-11-13 16:06:00,
2013-11-13 09:07:00,68.8,33.7,29.47,WNW,294,3.6,4.3,27,-99.99,,,0.00,336.5,rob ver 1B,2013-11-13 16:07:00,
2013-11-13 09:08:00,69.0,34.0,29.47,WNW,300,3.7,4.3,27,-99.99,,,0.00,339.8,rob ver 1B,2013-11-13 16:08:00,
2013-11-13 09:09:00,69.1,34.2,29.47,WNW,303,3.1,4.0,27,-99.99,,,0.00,341.7,rob ver 1B,2013-11-13 16:09:00,
2013-11-13 09:10:00,69.4,34.2,29.44,WNW,298,3.2,3.8,27,-99.99,,,0.00,344.4,rob ver 1B,2013-11-13 16:10:00,
2013-11-13 09:11:00,69.5,34.2,29.47,WNW,292,3.0,3.5,27,-99.99,,,0.00,347.7,rob ver 1B,2013-11-13 16:11:00,
2013-11-13 09:12:00,69.7,34.7,29.47,NW,304,3.0,3.8,27,-99.99,,,0.00,350,rob ver 1B,2013-11-13 16:12:00,
2013-11-13 09:13:00,69.9,35.1,29.47,NW,308,3.0,3.6,27,-99.99,,,0.00,353,rob ver 1B,2013-11-13 16:13:00,
2013-11-13 09:14:00,70.0,35.2,29.47,NW,315,2.4,3.1,27,-99.99,,,0.00,355.4,rob ver 1B,2013-11-13 16:14:00,
2013-11-13 09:15:00,70.2,35.2,29.47,WNW,292,2.4,2.8,27,-99.99,,,0.00,358.4,rob ver 1B,2013-11-13 16:15:00,
2013-11-13 09:16:00,70.5,35.3,29.47,WNW,299,2.8,3.5,27,-99.99,,,0.00,361.5,rob ver 1B,2013-11-13 16:16:00,
2013-11-13 09:17:00,70.7,35.2,29.47,West,281,2.6,3.1,27,-99.99,,,0.00,364.7,rob ver 1B,2013-11-13 16:17:00,
2013-11-13 09:18:00,70.8,35.4,29.47,WNW,287,2.5,3.3,27,-99.99,,,0.00,367,rob ver 1B,2013-11-13 16:18:00,
2013-11-13 09:19:00,70.9,35.6,29.47,WSW,254,2.3,2.9,27,-99.99,,,0.00,369.4,rob ver 1B,2013-11-13 16:19:00,
2013-11-13 09:20:00,71.1,36.0,29.47,WSW,258,2.0,2.9,27,-99.99,,,0.00,372.2,rob ver 1B,2013-11-13 16:20:00,
2013-11-13 09:21:00,71.3,35.9,29.47,West,264,2.0,2.6,27,-99.99,,,0.00,375.4,rob ver 1B,2013-11-13 16:21:00,
2013-11-13 09:22:00,71.5,36.0,29.47,WSW,252,1.9,2.6,27,-99.99,,,0.00,378,rob ver 1B,2013-11-13 16:22:00,
2013-11-13 09:23:00,71.7,36.2,29.47,West,267,2.0,2.6,27,-99.99,,,0.00,380.7,rob ver 1B,2013-11-13 16:23:00,
2013-11-13 09:24:00,71.9,36.5,29.47,West,266,1.9,2.3,27,-99.99,,,0.00,383.6,rob ver 1B,2013-11-13 16:24:00,
2013-11-13 09:25:00,72.0,36.5,29.47,West,262,1.8,2.6,27,-99.99,,,0.00,385.9,rob ver 1B,2013-11-13 16:25:00,
2013-11-13 09:26:00,72.3,36.5,29.47,WSW,249,2.1,3.7,27,-99.99,,,0.00,388.9,rob ver 1B,2013-11-13 16:26:00,
2013-11-13 09:27:00,72.4,36.7,29.47,West,266,2.8,3.6,26,-99.99,,,0.00,391.5,rob ver 1B,2013-11-13 16:27:00,
2013-11-13 09:28:00,72.3,35.3,29.47,WSW,242,3.8,5.1,25,-99.99,,,0.00,394.2,rob ver 1B,2013-11-13 16:28:00,
2013-11-13 09:29:00,72.0,35.3,29.47,WSW,257,4.3,5.1,26,-99.99,,,0.00,396.8,rob ver 1B,2013-11-13 16:29:00,
2013-11-13 09:30:00,71.8,35.5,29.47,WSW,244,3.5,4.7,26,-99.99,,,0.00,399.4,rob ver 1B,2013-11-13 16:30:00,
2013-11-13 09:31:00,71.7,34.8,29.47,SW,233,5.1,6.9,25,-99.99,,,0.00,402.1,rob ver 1B,2013-11-13 16:31:00,
2013-11-13 09:32:00,71.3,34.2,29.47,SW,230,5.4,7.0,25,-99.99,,,0.00,404.9,rob ver 1B,2013-11-13 16:32:00,
2013-11-13 09:33:00,71.2,34.9,29.47,WSW,247,5.1,6.1,26,-99.99,,,0.00,407.4,rob ver 1B,2013-11-13 16:33:00,
2013-11-13 09:34:00,71.2,35.9,29.47,West,262,3.6,4.8,27,-99.99,,,0.00,409.7,rob ver 1B,2013-11-13 16:34:00,
2013-11-13 09:35:00,71.4,36.5,29.47,West,264,2.8,3.9,27,-99.99,,,0.00,412.1,rob ver 1B,2013-11-13 16:35:00,
2013-11-13 09:36:00,71.6,36.2,29.47,West,270,3.6,4.5,27,-99.99,,,0.00,414.6,rob ver 1B,2013-11-13 16:36:00,
2013-11-13 09:37:00,71.7,36.2,29.47,West,262,3.5,5.6,25,-99.99,,,0.00,417.2,rob ver 1B,2013-11-13 16:37:00,
2013-11-13 09:38:00,71.7,34.5,29.47,WSW,250,5.4,6.4,25,-99.99,,,0.00,420,rob ver 1B,2013-11-13 16:38:00,
2013-11-13 09:39:00,71.4,34.6,29.47,WSW,251,4.7,6.0,26,-99.99,,,0.00,422.2,rob ver 1B,2013-11-13 16:39:00,
2013-11-13 09:40:00,71.3,35.2,29.47,WSW,251,3.7,4.4,26,-99.99,,,0.00,425.1,rob ver 1B,2013-11-13 16:40:00,
2013-11-13 09:41:00,71.4,35.5,29.47,West,267,4.1,5.3,26,-99.99,,,0.00,426.8,rob ver 1B,2013-11-13 16:41:00,
2013-11-13 09:42:00,71.5,34.9,29.47,WSW,254,5.4,6.3,25,-99.99,,,0.00,429.1,rob ver 1B,2013-11-13 16:42:00,
2013-11-13 09:43:00,71.5,34.8,29.47,WSW,257,5.6,6.6,26,-99.99,,,0.00,431.7,rob ver 1B,2013-11-13 16:43:00,
2013-11-13 09:44:00,71.4,35.4,29.47,WSW,253,5.4,6.1,26,-99.99,,,0.00,434.4,rob ver 1B,2013-11-13 16:44:00,
2013-11-13 09:45:00,71.5,35.3,29.47,West,261,5.1,6.4,26,-99.99,,,0.00,437,rob ver 1B,2013-11-13 16:45:00,
2013-11-13 09:46:00,71.6,35.3,29.47,West,268,5.4,6.4,26,-99.99,,,0.00,439.6,rob ver 1B,2013-11-13 16:46:00,
2013-11-13 09:47:00,71.8,35.5,29.47,West,272,5.2,6.2,26,-99.99,,,0.00,442.1,rob ver 1B,2013-11-13 16:47:00,
2013-11-13 09:48:00,71.9,35.6,29.47,West,272,4.4,5.7,26,-99.99,,,0.00,444.2,rob ver 1B,2013-11-13 16:48:00,
2013-11-13 09:49:00,72.1,36.3,29.47,WNW,288,4.9,6.4,26,-99.99,,,0.00,446.9,rob ver 1B,2013-11-13 16:49:00,
2013-11-13 09:50:00,72.2,35.9,29.47,WNW,293,4.5,5.2,26,-99.99,,,0.00,449.5,rob ver 1B,2013-11-13 16:50:00,
2013-11-13 09:51:00,72.4,36.0,29.47,West,276,4.5,5.2,26,-99.99,,,0.00,452.8,rob ver 1B,2013-11-13 16:51:00,
2013-11-13 09:52:00,72.6,36.0,29.47,West,268,3.5,4.8,26,-99.99,,,0.00,455.4,rob ver 1B,2013-11-13 16:52:00,
2013-11-13 09:53:00,72.8,36.1,29.47,WNW,285,2.8,3.8,26,-99.99,,,0.00,458.7,rob ver 1B,2013-11-13 16:53:00,
2013-11-13 09:54:00,73.1,36.3,29.47,WNW,299,3.0,3.8,26,-99.99,,,0.00,462.2,rob ver 1B,2013-11-13 16:54:00,
2013-11-13 09:55:00,73.3,36.6,29.47,West,269,2.1,2.9,26,-99.99,,,0.00,466,rob ver 1B,2013-11-13 16:55:00,
2013-11-13 09:56:00,73.7,36.6,29.47,WSW,252,1.7,2.3,25,-99.99,,,0.00,469.9,rob ver 1B,2013-11-13 16:56:00,
2013-11-13 09:57:00,74.0,36.8,29.47,WSW,248,2.2,3.2,25,-99.99,,,0.00,474.6,rob ver 1B,2013-11-13 16:57:00,
2013-11-13 09:58:00,74.2,36.9,29.47,SW,230,2.1,2.5,25,-99.99,,,0.00,479.8,rob ver 1B,2013-11-13 16:58:00,
2013-11-13 09:59:00,74.3,37.0,29.47,SW,231,2.6,3.4,25,-99.99,,,0.00,486.1,rob ver 1B,2013-11-13 16:59:00,
2013-11-13 10:00:00,74.4,37.1,29.47,SW,219,1.9,2.9,25,-99.99,,,0.00,494,rob ver 1B,2013-11-13 17:00:00,
2013-11-13 10:01:00,74.7,37.1,29.47,SW,230,2.5,4.4,25,-99.99,,,0.00,500.3,rob ver 1B,2013-11-13 17:01:00,
2013-11-13 10:02:00,74.7,37.3,29.47,SW,231,2.8,4.0,25,-99.99,,,0.00,501.6,rob ver 1B,2013-11-13 17:02:00,
2013-11-13 10:03:00,74.7,37.0,29.47,WSW,244,2.4,4.2,25,-99.99,,,0.00,446.9,rob ver 1B,2013-11-13 17:03:00,
2013-11-13 10:04:00,74.8,36.7,29.47,West,259,1.3,2.0,24,-99.99,,,0.00,386.2,rob ver 1B,2013-11-13 17:04:00,
2013-11-13 10:05:00,75.1,36.3,29.47,WNW,282,2.9,5.0,24,-99.99,,,0.00,466.8,rob ver 1B,2013-11-13 17:05:00,
2013-11-13 10:06:00,75.1,36.8,29.47,West,281,3.6,4.8,24,-99.99,,,0.00,508.8,rob ver 1B,2013-11-13 17:06:00,
2013-11-13 10:07:00,75.0,36.2,29.47,West,274,3.6,4.7,24,-99.99,,,0.00,498,rob ver 1B,2013-11-13 17:07:00,
2013-11-13 10:08:00,74.8,36.2,29.47,West,274,3.3,4.6,24,-99.99,,,0.00,444.9,rob ver 1B,2013-11-13 17:08:00,
2013-11-13 10:09:00,74.8,36.0,29.47,WNW,284,3.9,5.8,24,-99.99,,,0.00,436.3,rob ver 1B,2013-11-13 17:09:00,
2013-11-13 10:10:00,74.7,35.8,29.47,West,259,3.7,4.8,24,-99.99,,,0.00,386.2,rob ver 1B,2013-11-13 17:10:00,
2013-11-13 10:11:00,74.5,36.1,29.47,WSW,241,3.8,4.9,24,-99.99,,,0.00,508.5,rob ver 1B,2013-11-13 17:11:00,
2013-11-13 10:12:00,74.5,35.9,29.47,West,259,3.3,4.3,24,-99.99,,,0.00,530.6,rob ver 1B,2013-11-13 17:12:00,
2013-11-13 10:13:00,74.6,35.9,29.47,WSW,254,3.2,5.0,24,-99.99,,,0.00,468.9,rob ver 1B,2013-11-13 17:13:00,
2013-11-13 10:14:00,74.6,35.7,29.47,WSW,255,4.0,5.4,24,-99.99,,,0.00,523.3,rob ver 1B,2013-11-13 17:14:00,
2013-11-13 10:15:00,74.7,35.8,29.47,WSW,256,3.9,5.3,24,-99.99,,,0.00,524.3,rob ver 1B,2013-11-13 17:15:00,
2013-11-13 10:16:00,74.7,35.6,29.47,WNW,286,4.4,5.8,24,-99.99,,,0.00,510,rob ver 1B,2013-11-13 17:16:00,
2013-11-13 10:17:00,74.6,35.6,29.47,WNW,285,3.7,4.8,23,-99.99,,,0.00,389.8,rob ver 1B,2013-11-13 17:17:00,
2013-11-13 10:18:00,74.6,35.2,29.47,West,270,4.3,6.0,23,-99.99,,,0.00,423.1,rob ver 1B,2013-11-13 17:18:00,
2013-11-13 10:19:00,74.5,35.3,29.47,West,267,4.3,6.6,24,-99.99,,,0.00,303.4,rob ver 1B,2013-11-13 17:19:00,
2013-11-13 10:20:00,74.4,35.3,29.47,WNW,297,3.2,4.5,24,-99.99,,,0.00,401,rob ver 1B,2013-11-13 17:20:00,
2013-11-13 10:21:00,74.3,35.1,29.47,West,276,3.4,5.2,23,-99.99,,,0.00,525.1,rob ver 1B,2013-11-13 17:21:00,
2013-11-13 10:22:00,74.4,35.2,29.47,WSW,244,2.7,4.9,24,-99.99,,,0.00,443.5,rob ver 1B,2013-11-13 17:22:00,
2013-11-13 10:23:00,74.5,35.4,29.47,West,259,4.2,5.5,23,-99.99,,,0.00,364.7,rob ver 1B,2013-11-13 17:23:00,
2013-11-13 10:24:00,74.5,35.2,29.47,West,259,4.7,5.9,24,-99.99,,,0.00,312.4,rob ver 1B,2013-11-13 17:24:00,
2013-11-13 10:25:00,74.3,35.3,29.47,West,274,3.9,5.7,24,-99.99,,,0.00,326.1,rob ver 1B,2013-11-13 17:25:00,
2013-11-13 10:26:00,74.2,35.1,29.47,WSW,255,4.8,6.1,23,-99.99,,,0.00,405.6,rob ver 1B,2013-11-13 17:26:00,
2013-11-13 10:27:00,74.2,34.9,29.47,WSW,256,3.7,5.8,23,-99.99,,,0.00,453.9,rob ver 1B,2013-11-13 17:27:00,
2013-11-13 10:28:00,74.3,35.2,29.47,SW,236,4.2,5.5,23,-99.99,,,0.00,524.3,rob ver 1B,2013-11-13 17:28:00,
2013-11-13 10:29:00,74.4,35.1,29.47,West,260,4.6,6.3,23,-99.99,,,0.00,466.9,rob ver 1B,2013-11-13 17:29:00,
2013-11-13 10:30:00,74.5,35.3,29.47,WSW,258,3.4,4.5,24,-99.99,,,0.00,466.9,rob ver 1B,2013-11-13 17:30:00,
2013-11-13 10:31:00,74.6,35.6,29.47,WSW,251,3.3,4.2,24,-99.99,,,0.00,477.4,rob ver 1B,2013-11-13 17:31:00,
2013-11-13 10:32:00,74.7,35.6,29.47,WSW,249,4.6,5.9,23,-99.99,,,0.00,494.4,rob ver 1B,2013-11-13 17:32:00,
2013-11-13 10:33:00,74.7,35.5,29.47,WSW,254,4.4,5.5,23,-99.99,,,0.00,513.9,rob ver 1B,2013-11-13 17:33:00,
2013-11-13 10:34:00,74.8,35.4,29.47,WSW,241,3.5,4.4,23,-99.99,,,0.00,560.5,rob ver 1B,2013-11-13 17:34:00,
2013-11-13 10:35:00,75.0,35.5,29.47,SW,232,3.3,4.9,23,-99.99,,,0.00,582.3,rob ver 1B,2013-11-13 17:35:00,
2013-11-13 10:36:00,75.2,35.6,29.47,SW,222,3.4,4.7,23,-99.99,,,0.00,587.4,rob ver 1B,2013-11-13 17:36:00,
2013-11-13 10:37:00,75.5,35.3,29.47,WSW,245,3.0,4.3,23,-99.99,,,0.00,584.9,rob ver 1B,2013-11-13 17:37:00,
2013-11-13 10:38:00,75.6,35.4,29.47,SW,224,4.3,5.4,23,-99.99,,,0.00,429.8,rob ver 1B,2013-11-13 17:38:00,
2013-11-13 10:39:00,75.6,35.7,29.47,WSW,251,3.9,5.3,23,-99.99,,,0.00,421.2,rob ver 1B,2013-11-13 17:39:00,
2013-11-13 10:40:00,75.5,35.7,29.44,WNW,282,3.1,4.3,23,-99.99,,,0.00,453.2,rob ver 1B,2013-11-13 17:40:00,
2013-11-13 10:41:00,75.6,35.5,29.47,WNW,283,3.2,4.2,23,-99.99,,,0.00,466.2,rob ver 1B,2013-11-13 17:41:00,
2013-11-13 10:42:00,75.6,35.3,29.47,WSW,258,4.8,5.8,23,-99.99,,,0.00,405.4,rob ver 1B,2013-11-13 17:42:00,
2013-11-13 10:43:00,75.6,35.3,29.47,SW,232,4.8,5.4,23,-99.99,,,0.00,576,rob ver 1B,2013-11-13 17:43:00,
2013-11-13 10:44:00,75.6,35.5,29.44,West,265,4.2,5.8,23,-99.99,,,0.00,566.8,rob ver 1B,2013-11-13 17:44:00,
2013-11-13 10:45:00,75.7,35.9,29.47,West,271,2.9,3.7,23,-99.99,,,0.00,560.5,rob ver 1B,2013-11-13 17:45:00,
2013-11-13 10:46:00,76.0,35.9,29.47,WSW,245,1.9,3.1,23,-99.99,,,0.00,560.5,rob ver 1B,2013-11-13 17:46:00,
2013-11-13 10:47:00,76.3,36.2,29.47,WSW,239,1.3,3.5,23,-99.99,,,0.00,576,rob ver 1B,2013-11-13 17:47:00,
2013-11-13 10:48:00,76.6,36.2,29.44,WSW,248,2.8,4.1,23,-99.99,,,0.00,548.6,rob ver 1B,2013-11-13 17:48:00,
2013-11-13 10:49:00,76.7,35.5,29.44,WSW,245,4.0,7.1,21,-99.99,,,0.00,579,rob ver 1B,2013-11-13 17:49:00,
2013-11-13 10:50:00,76.4,35.1,29.44,SW,229,4.6,6.1,22,-99.99,,,0.00,593.7,rob ver 1B,2013-11-13 17:50:00,
2013-11-13 10:51:00,76.2,35.3,29.44,WSW,243,3.8,4.7,22,-99.99,,,0.00,604,rob ver 1B,2013-11-13 17:51:00,
2013-11-13 10:52:00,76.2,35.4,29.44,West,262,3.2,4.3,22,-99.99,,,0.00,614.1,rob ver 1B,2013-11-13 17:52:00,
2013-11-13 10:53:00,76.3,35.5,29.44,West,264,2.3,3.1,22,-99.99,,,0.00,582.6,rob ver 1B,2013-11-13 17:53:00,
2013-11-13 10:54:00,76.5,35.4,29.44,West,277,1.8,3.5,22,-99.99,,,0.00,566.9,rob ver 1B,2013-11-13 17:54:00,
2013-11-13 10:55:00,76.7,35.5,29.47,WSW,239,2.7,4.7,22,-99.99,,,0.00,590.2,rob ver 1B,2013-11-13 17:55:00,
2013-11-13 10:56:00,76.9,35.6,29.44,West,275,1.9,3.6,22,-99.99,,,0.00,519.1,rob ver 1B,2013-11-13 17:56:00,
2013-11-13 10:57:00,77.1,35.7,29.44,West,279,3.8,5.2,22,-99.99,,,0.00,418.6,rob ver 1B,2013-11-13 17:57:00,
2013-11-13 10:58:00,82.7,36.9,29.53,NNE,16,13.4,18.1,19,-99.99,,,0.00,569.3,rob ver 1A,2013-11-13 17:58:00,
2013-11-13 10:59:00,76.9,35.6,29.44,WNW,288,3.0,4.9,22,-99.99,,,0.00,517.8,rob ver 1B,2013-11-13 17:59:00,
2013-11-13 11:00:00,76.8,35.6,29.44,NW,309,3.6,5.5,22,-99.99,,,0.00,538.9,rob ver 1B,2013-11-13 18:00:00,
2013-11-13 11:01:00,82.7,36.9,29.53,NNE,32,15.8,19.1,19,-99.99,,,0.00,573,rob ver 1A,2013-11-13 18:01:00,
2013-11-13 11:02:00,77.0,35.5,29.44,WNW,288,3.2,4.5,22,-99.99,,,0.00,535.1,rob ver 1B,2013-11-13 18:02:00,
2013-11-13 11:03:00,82.6,36.8,29.53,NNE,19,14.1,17.8,19,-99.99,,,0.00,575.8,rob ver 1A,2013-11-13 18:03:00,
2013-11-13 11:04:00,77.1,35.8,29.47,WSW,246,4.1,5.9,22,-99.99,,,0.00,593.5,rob ver 1B,2013-11-13 18:04:00,
2013-11-13 11:05:00,76.9,36.0,29.44,SW,229,2.9,4.9,22,-99.99,,,0.00,591.8,rob ver 1B,2013-11-13 18:05:00,
2013-11-13 11:06:00,77.1,36.4,29.44,SSW,193,1.1,1.8,22,-99.99,,,0.00,590.5,rob ver 1B,2013-11-13 18:06:00,
2013-11-13 11:07:00,82.7,37.1,29.53,North,11,12.9,15.9,19,-99.99,,,0.00,580.5,rob ver 1A,2013-11-13 18:07:00,
2013-11-13 11:08:00,77.6,35.2,29.44,WNW,289,4.8,5.7,21,-99.99,,,0.00,591.3,rob ver 1B,2013-11-13 18:08:00,
2013-11-13 11:09:00,77.4,35.3,29.44,WNW,292,4.4,5.9,21,-99.99,,,0.00,591,rob ver 1B,2013-11-13 18:09:00,
2013-11-13 11:10:00,77.3,35.4,29.44,WNW,297,4.3,5.3,22,-99.99,,,0.00,592.6,rob ver 1B,2013-11-13 18:10:00,
2013-11-13 11:11:00,77.2,35.3,29.44,WNW,297,3.8,4.9,21,-99.99,,,0.00,592.6,rob ver 1B,2013-11-13 18:11:00,
2013-11-13 11:12:00,82.9,37.0,29.53,NNE,32,12.0,14.0,19,-99.99,,,0.00,586.8,rob ver 1A,2013-11-13 18:12:00,
2013-11-13 11:13:00,76.8,35.5,29.44,NW,322,2.5,4.3,22,-99.99,,,0.00,594.5,rob ver 1B,2013-11-13 18:13:00,
2013-11-13 11:14:00,77.1,35.3,29.44,West,269,3.9,6.0,22,-99.99,,,0.00,595.5,rob ver 1B,2013-11-13 18:14:00,
2013-11-13 11:15:00,77.2,35.4,29.44,WSW,239,5.5,7.2,22,-99.99,,,0.00,596.5,rob ver 1B,2013-11-13 18:15:00,
2013-11-13 11:16:00,77.0,35.5,29.44,WSW,246,4.2,6.1,22,-99.99,,,0.00,597.4,rob ver 1B,2013-11-13 18:16:00,
2013-11-13 11:17:00,83.2,37.0,29.53,NNE,29,12.0,14.3,19,-99.99,,,0.00,592.2,rob ver 1A,2013-11-13 18:17:00,
2013-11-13 11:18:00,77.1,35.2,29.44,West,277,2.5,4.6,21,-99.99,,,0.00,598.4,rob ver 1B,2013-11-13 18:18:00,
2013-11-13 11:19:00,77.4,35.2,29.44,WSW,243,4.2,5.9,21,-99.99,,,0.00,599.7,rob ver 1B,2013-11-13 18:19:00,
2013-11-13 11:20:00,77.3,34.9,29.44,WNW,287,4.8,6.1,21,-99.99,,,0.00,601.6,rob ver 1B,2013-11-13 18:20:00,
2013-11-13 11:21:00,77.2,34.7,29.44,West,276,5.1,7.0,21,-99.99,,,0.00,603,rob ver 1B,2013-11-13 18:21:00,
2013-11-13 11:22:00,83.0,37.1,29.53,NNE,33,13.5,16.2,19,-99.99,,,0.00,597.8,rob ver 1A,2013-11-13 18:22:00,
2013-11-13 11:23:00,77.1,34.8,29.44,WSW,248,4.5,6.2,21,-99.99,,,0.00,605.2,rob ver 1B,2013-11-13 18:23:00,
2013-11-13 11:24:00,77.2,35.2,29.44,SW,231,3.1,4.2,21,-99.99,,,0.00,606.2,rob ver 1B,2013-11-13 18:24:00,
2013-11-13 11:25:00,77.5,34.9,29.44,SSW,205,2.8,4.3,21,-99.99,,,0.00,606.8,rob ver 1B,2013-11-13 18:25:00,
2013-11-13 11:26:00,78.0,34.9,29.44,WSW,237,2.5,5.0,20,-99.99,,,0.00,607,rob ver 1B,2013-11-13 18:26:00,
2013-11-13 11:27:00,83.6,37.3,29.50,NNE,33,11.2,15.7,19,-99.99,,,0.00,604.2,rob ver 1A,2013-11-13 18:27:00,
2013-11-13 11:28:00,78.1,34.7,29.44,West,277,3.0,6.0,20,-99.99,,,0.00,610.3,rob ver 1B,2013-11-13 18:28:00,
2013-11-13 11:29:00,78.1,34.5,29.44,NW,311,3.7,5.1,20,-99.99,,,0.00,610.1,rob ver 1B,2013-11-13 18:29:00,
2013-11-13 11:30:00,78.1,34.5,29.44,West,263,4.3,6.2,20,-99.99,,,0.00,611.7,rob ver 1B,2013-11-13 18:30:00,
2013-11-13 11:31:00,78.1,34.5,29.44,West,266,2.8,3.8,20,-99.99,,,0.00,612.2,rob ver 1B,2013-11-13 18:31:00,
2013-11-13 11:32:00,84.1,37.2,29.50,NE,40,10.8,12.7,18,-99.99,,,0.00,608.3,rob ver 1A,2013-11-13 18:32:00,
2013-11-13 11:33:00,78.4,34.8,29.44,WNW,294,3.9,5.4,20,-99.99,,,0.00,614.1,rob ver 1B,2013-11-13 18:33:00,
2013-11-13 11:34:00,78.6,34.5,29.44,West,261,3.1,4.1,20,-99.99,,,0.00,615.7,rob ver 1B,2013-11-13 18:34:00,
2013-11-13 11:35:00,78.7,34.6,29.44,West,270,5.4,7.0,20,-99.99,,,0.00,616.2,rob ver 1B,2013-11-13 18:35:00,
2013-11-13 11:36:00,78.3,34.8,29.44,West,260,3.2,4.7,20,-99.99,,,0.00,616.7,rob ver 1B,2013-11-13 18:36:00,
2013-11-13 11:37:00,78.4,34.8,29.44,West,268,2.8,4.5,20,-99.99,,,0.00,617.7,rob ver 1B,2013-11-13 18:37:00,
2013-11-13 11:38:00,84.2,37.3,29.50,ENE,58,11.2,15.7,19,-99.99,,,0.00,612.4,rob ver 1A,2013-11-13 18:38:00,
2013-11-13 11:39:00,78.6,34.7,29.44,WNW,284,4.0,5.5,20,-99.99,,,0.00,618.8,rob ver 1B,2013-11-13 18:39:00,
2013-11-13 11:40:00,78.6,34.6,29.44,West,272,4.8,7.2,20,-99.99,,,0.00,619.8,rob ver 1B,2013-11-13 18:40:00,
2013-11-13 11:41:00,78.5,34.7,29.44,West,261,3.4,4.6,20,-99.99,,,0.00,620.1,rob ver 1B,2013-11-13 18:41:00,
2013-11-13 11:42:00,78.5,34.9,29.44,West,274,2.8,3.6,20,-99.99,,,0.00,620.5,rob ver 1B,2013-11-13 18:42:00,
2013-11-13 11:43:00,84.1,37.5,29.50,ENE,60,9.4,12.0,19,-99.99,,,0.00,616.4,rob ver 1A,2013-11-13 18:43:00,
2013-11-13 11:44:00,79.1,34.8,29.44,West,271,3.3,5.8,20,-99.99,,,0.00,621.8,rob ver 1B,2013-11-13 18:44:00,
2013-11-13 11:45:00,79.1,34.7,29.44,WNW,294,5.3,7.0,20,-99.99,,,0.00,622.8,rob ver 1B,2013-11-13 18:45:00,
2013-11-13 11:46:00,78.8,34.8,29.44,WNW,284,3.1,4.9,20,-99.99,,,0.00,623.1,rob ver 1B,2013-11-13 18:46:00,
2013-11-13 11:47:00,79.0,35.0,29.44,WSW,255,1.4,2.2,20,-99.99,,,0.00,624.1,rob ver 1B,2013-11-13 18:47:00,
2013-11-13 11:48:00,84.5,37.6,29.50,NE,49,13.2,18.1,18,-99.99,,,0.00,619.5,rob ver 1A,2013-11-13 18:48:00,
2013-11-13 11:49:00,79.6,34.6,29.44,WSW,240,5.1,8.0,19,-99.99,,,0.00,625.1,rob ver 1B,2013-11-13 18:49:00,
2013-11-13 11:50:00,79.3,34.6,29.44,SW,220,4.7,6.8,19,-99.99,,,0.00,625.6,rob ver 1B,2013-11-13 18:50:00,
2013-11-13 11:51:00,79.2,34.7,29.44,SW,224,5.2,6.7,20,-99.99,,,0.00,626.9,rob ver 1B,2013-11-13 18:51:00,
2013-11-13 11:52:00,79.1,34.6,29.44,West,259,4.0,5.3,19,-99.99,,,0.00,626.5,rob ver 1B,2013-11-13 18:52:00,
2013-11-13 11:53:00,84.1,37.7,29.50,ENE,60,10.5,14.2,19,-99.99,,,0.00,621.5,rob ver 1A,2013-11-13 18:53:00,
2013-11-13 11:54:00,79.2,34.7,29.44,WSW,254,4.8,7.2,20,-99.99,,,0.00,627.2,rob ver 1B,2013-11-13 18:54:00,
2013-11-13 11:55:00,79.2,34.7,29.44,SW,234,4.9,7.7,19,-99.99,,,0.00,628.4,rob ver 1B,2013-11-13 18:55:00,
2013-11-13 11:56:00,79.1,34.7,29.44,WSW,251,5.6,6.9,19,-99.99,,,0.00,628.5,rob ver 1B,2013-11-13 18:56:00,
2013-11-13 11:57:00,79.1,34.7,29.44,WSW,247,5.2,6.7,20,-99.99,,,0.00,628,rob ver 1B,2013-11-13 18:57:00,
2013-11-13 11:58:00,84.5,37.6,29.50,ENE,57,9.9,13.2,18,-99.99,,,0.00,623.4,rob ver 1A,2013-11-13 18:58:00,
2013-11-13 11:59:00,79.2,34.6,29.44,WSW,241,5.5,6.4,19,-99.99,,,0.00,630.2,rob ver 1B,2013-11-13 18:59:00,
2013-11-13 12:00:00,79.2,34.8,29.44,West,259,4.6,5.4,20,-99.99,,,0.00,629.3,rob ver 1B,2013-11-13 19:00:00,
2013-11-13 12:01:00,79.2,34.9,29.44,SW,232,3.0,4.6,19,-99.99,,,0.00,630.3,rob ver 1B,2013-11-13 19:01:00,
2013-11-13 12:02:00,79.4,34.9,29.44,WSW,245,4.7,8.0,20,-99.99,,,0.00,631,rob ver 1B,2013-11-13 19:02:00,
2013-11-13 12:03:00,84.6,37.6,29.50,ENE,57,8.1,10.5,18,-99.99,,,0.00,624.8,rob ver 1A,2013-11-13 19:03:00,
2013-11-13 12:04:00,79.2,34.7,29.44,WSW,245,5.5,7.2,19,-99.99,,,0.00,630.5,rob ver 1B,2013-11-13 19:04:00,
2013-11-13 12:05:00,79.1,34.6,29.44,WSW,249,3.7,5.5,20,-99.99,,,0.00,631.5,rob ver 1B,2013-11-13 19:05:00,
2013-11-13 12:06:00,79.3,34.9,29.44,WSW,239,3.3,4.6,19,-99.99,,,0.00,631.6,rob ver 1B,2013-11-13 19:06:00,
2013-11-13 12:07:00,79.7,34.7,29.44,SSW,207,2.9,5.0,19,-99.99,,,0.00,631.3,rob ver 1B,2013-11-13 19:07:00,
2013-11-13 12:08:00,84.8,37.5,29.50,NE,40,9.0,18.2,18,-99.99,,,0.00,626.7,rob ver 1A,2013-11-13 19:08:00,
2013-11-13 12:09:00,79.9,34.8,29.44,West,278,4.0,5.1,19,-99.99,,,0.00,632.6,rob ver 1B,2013-11-13 19:09:00,
2013-11-13 12:10:00,79.9,34.9,29.44,SW,233,5.0,6.4,19,-99.99,,,0.00,632.5,rob ver 1B,2013-11-13 19:10:00,
2013-11-13 12:11:00,79.8,35.2,29.41,SW,225,6.8,8.7,20,-99.99,,,0.00,632.3,rob ver 1B,2013-11-13 19:11:00,
2013-11-13 12:12:00,79.7,35.1,29.41,SW,232,5.6,7.7,20,-99.99,,,0.00,632.5,rob ver 1B,2013-11-13 19:12:00,
2013-11-13 12:13:00,84.8,37.2,29.50,North,11,7.6,10.2,18,-99.99,,,0.00,626.7,rob ver 1A,2013-11-13 19:13:00,
2013-11-13 12:14:00,79.8,35.1,29.44,West,277,3.0,4.2,19,-99.99,,,0.00,633,rob ver 1B,2013-11-13 19:14:00,
2013-11-13 12:15:00,79.9,34.5,29.41,NW,325,3.8,5.2,19,-99.99,,,0.00,633,rob ver 1B,2013-11-13 19:15:00,
2013-11-13 12:16:00,80.0,34.4,29.41,NW,304,2.0,3.1,19,-99.99,,,0.00,633.3,rob ver 1B,2013-11-13 19:16:00,
2013-11-13 12:17:00,80.5,34.1,29.41,WSW,250,4.1,6.9,18,-99.99,,,0.00,633.9,rob ver 1B,2013-11-13 19:17:00,
2013-11-13 12:18:00,85.0,37.4,29.47,NE,34,8.1,10.8,18,-99.99,,,0.00,627.4,rob ver 1A,2013-11-13 19:18:00,
2013-11-13 12:19:00,80.4,33.2,29.41,West,276,4.9,7.5,18,-99.99,,,0.00,633.3,rob ver 1B,2013-11-13 19:19:00,
2013-11-13 12:20:00,80.5,33.4,29.41,WNW,287,2.6,3.8,18,-99.99,,,0.00,632.6,rob ver 1B,2013-11-13 19:20:00,
2013-11-13 12:21:00,80.6,33.2,29.41,SW,235,2.7,3.7,18,-99.99,,,0.00,633.1,rob ver 1B,2013-11-13 19:21:00,
2013-11-13 12:22:00,80.7,33.7,29.41,WSW,253,3.4,4.4,18,-99.99,,,0.00,633.4,rob ver 1B,2013-11-13 19:22:00,
2013-11-13 12:23:00,85.5,37.2,29.47,NNE,19,9.9,11.7,18,-99.99,,,0.00,627.9,rob ver 1A,2013-11-13 19:23:00,
2013-11-13 12:24:00,80.7,34.1,29.41,West,267,2.0,3.4,18,-99.99,,,0.00,633.8,rob ver 1B,2013-11-13 19:24:00,
2013-11-13 12:25:00,80.8,33.7,29.41,West,270,4.8,8.3,17,-99.99,,,0.00,634.1,rob ver 1B,2013-11-13 19:25:00,
2013-11-13 12:26:00,80.5,33.2,29.41,West,266,5.8,8.0,18,-99.99,,,0.00,634.9,rob ver 1B,2013-11-13 19:26:00,
2013-11-13 12:27:00,80.3,32.8,29.41,WSW,255,4.4,6.9,17,-99.99,,,0.00,634.2,rob ver 1B,2013-11-13 19:27:00,
2013-11-13 12:28:00,85.2,37.4,29.47,North,0,6.7,8.5,18,-99.99,,,0.00,627,rob ver 1A,2013-11-13 19:28:00,
2013-11-13 12:29:00,80.2,32.4,29.41,WSW,240,3.1,5.4,18,-99.99,,,0.00,632.4,rob ver 1B,2013-11-13 19:29:00,
2013-11-13 12:30:00,80.4,33.8,29.41,SSW,199,2.2,3.3,18,-99.99,,,0.00,632.9,rob ver 1B,2013-11-13 19:30:00,
2013-11-13 12:31:00,80.8,33.9,29.41,SSW,194,2.3,5.0,17,-99.99,,,0.00,632.6,rob ver 1B,2013-11-13 19:31:00,
2013-11-13 12:32:00,81.0,33.0,29.41,WNW,290,4.6,6.1,17,-99.99,,,0.00,632.6,rob ver 1B,2013-11-13 19:32:00,
2013-11-13 12:33:00,85.0,37.2,29.47,East,87,5.2,7.2,18,-99.99,,,0.00,625.4,rob ver 1A,2013-11-13 19:33:00,
2013-11-13 12:34:00,80.6,33.2,29.41,West,265,2.8,4.3,17,-99.99,,,0.00,632.2,rob ver 1B,2013-11-13 19:34:00,
2013-11-13 12:35:00,80.7,32.5,29.41,West,280,1.6,2.4,17,-99.99,,,0.00,631.9,rob ver 1B,2013-11-13 19:35:00,
2013-11-13 12:36:00,81.0,31.7,29.41,NW,308,1.0,2.1,16,-99.99,,,0.00,632.2,rob ver 1B,2013-11-13 19:36:00,
2013-11-13 12:37:00,81.4,30.5,29.41,East,81,0.6,1.1,15,-99.99,,,0.00,632.5,rob ver 1B,2013-11-13 19:37:00,
2013-11-13 12:38:00,81.9,30.6,29.41,SSW,213,1.5,2.8,15,-99.99,,,0.00,632.2,rob ver 1B,2013-11-13 19:38:00,
2013-11-13 12:39:00,85.1,37.4,29.47,NNE,20,4.4,7.7,18,-99.99,,,0.00,625.7,rob ver 1A,2013-11-13 19:39:00,
2013-11-13 12:40:00,82.7,31.3,29.41,WSW,237,1.8,2.9,15,-99.99,,,0.00,632.5,rob ver 1B,2013-11-13 19:40:00,
2013-11-13 12:41:00,82.8,31.0,29.41,West,266,2.2,5.0,15,-99.99,,,0.00,630.7,rob ver 1B,2013-11-13 19:41:00,
2013-11-13 12:42:00,82.6,30.3,29.41,WSW,249,3.7,4.9,15,-99.99,,,0.00,630.6,rob ver 1B,2013-11-13 19:42:00,
2013-11-13 12:43:00,82.1,29.6,29.41,SW,231,4.1,5.6,14,-99.99,,,0.00,630.9,rob ver 1B,2013-11-13 19:43:00,
2013-11-13 12:44:00,86.5,37.2,29.47,NE,47,4.4,7.3,17,-99.99,,,0.00,623.9,rob ver 1A,2013-11-13 19:44:00,
2013-11-13 12:45:00,81.4,28.2,29.41,WSW,258,2.1,2.8,14,-99.99,,,0.00,629.9,rob ver 1B,2013-11-13 19:45:00,
2013-11-13 12:46:00,81.5,29.1,29.41,SW,233,2.1,3.8,14,-99.99,,,0.00,629.9,rob ver 1B,2013-11-13 19:46:00,
2013-11-13 12:47:00,81.8,29.6,29.41,West,281,1.0,2.5,14,-99.99,,,0.00,629.7,rob ver 1B,2013-11-13 19:47:00,
2013-11-13 12:48:00,82.4,30.0,29.41,NE,51,0.8,2.7,14,-99.99,,,0.00,628.4,rob ver 1B,2013-11-13 19:48:00,
2013-11-13 12:49:00,86.0,37.1,29.47,NNE,32,7.1,11.1,17,-99.99,,,0.00,619.9,rob ver 1A,2013-11-13 19:49:00,
2013-11-13 12:50:00,83.0,29.9,29.41,WSW,244,4.1,5.8,14,-99.99,,,0.00,628.2,rob ver 1B,2013-11-13 19:50:00,
2013-11-13 12:51:00,82.6,30.0,29.41,WSW,239,5.8,7.1,14,-99.99,,,0.00,626.1,rob ver 1B,2013-11-13 19:51:00,
2013-11-13 12:52:00,81.9,29.8,29.41,SW,236,4.9,6.0,15,-99.99,,,0.00,626.2,rob ver 1B,2013-11-13 19:52:00,
2013-11-13 12:53:00,81.7,29.5,29.41,WSW,237,3.5,5.7,14,-99.99,,,0.00,625.9,rob ver 1B,2013-11-13 19:53:00,
2013-11-13 12:54:00,81.6,28.7,29.41,SW,234,3.8,4.5,14,-99.99,,,0.00,625.3,rob ver 1B,2013-11-13 19:54:00,
2013-11-13 12:55:00,81.5,29.0,29.41,SW,225,2.7,4.5,14,-99.99,,,0.00,624.6,rob ver 1B,2013-11-13 19:55:00,
2013-11-13 12:56:00,81.6,28.8,29.41,SW,233,3.0,4.3,14,-99.99,,,0.00,624.8,rob ver 1B,2013-11-13 19:56:00,
2013-11-13 12:57:00,81.6,28.3,29.41,SW,214,3.5,4.4,14,-99.99,,,0.00,623.1,rob ver 1B,2013-11-13 19:57:00,
2013-11-13 12:58:00,81.8,28.7,29.41,SW,219,2.2,3.2,14,-99.99,,,0.00,623.3,rob ver 1B,2013-11-13 19:58:00,
2013-11-13 12:59:00,85.9,37.2,29.47,NE,36,8.1,11.0,17,-99.99,,,0.00,615.1,rob ver 1A,2013-11-13 19:59:00,
2013-11-13 13:00:00,82.0,27.7,29.41,West,260,1.7,3.8,13,-99.99,,,0.00,622.1,rob ver 1B,2013-11-13 20:00:00,
2013-11-13 13:01:00,82.1,27.5,29.41,ESE,106,1.4,2.9,13,-99.99,,,0.00,621.1,rob ver 1B,2013-11-13 20:01:00,
2013-11-13 13:02:00,82.2,27.8,29.41,NW,321,1.7,3.8,13,-99.99,,,0.00,619.6,rob ver 1B,2013-11-13 20:02:00,
2013-11-13 13:03:00,82.4,27.9,29.41,WNW,303,4.6,6.6,13,-99.99,,,0.00,619.8,rob ver 1B,2013-11-13 20:03:00,
2013-11-13 13:04:00,87.5,37.2,29.47,East,99,2.8,6.1,16,-99.99,,,0.00,610.5,rob ver 1A,2013-11-13 20:04:00,
2013-11-13 13:05:00,81.9,27.9,29.38,WNW,291,4.7,5.8,14,-99.99,,,0.00,617.8,rob ver 1B,2013-11-13 20:05:00,
2013-11-13 13:06:00,81.9,28.1,29.38,West,270,4.9,6.2,13,-99.99,,,0.00,617,rob ver 1B,2013-11-13 20:06:00,
2013-11-13 13:07:00,81.8,28.0,29.38,WSW,246,3.5,4.9,14,-99.99,,,0.00,616.2,rob ver 1B,2013-11-13 20:07:00,
2013-11-13 13:08:00,81.8,28.2,29.38,SW,226,2.0,2.6,14,-99.99,,,0.00,616.3,rob ver 1B,2013-11-13 20:08:00,
2013-11-13 13:09:00,82.2,28.3,29.38,SSW,196,1.8,2.6,13,-99.99,,,0.00,614.4,rob ver 1B,2013-11-13 20:09:00,
2013-11-13 13:10:00,86.7,37.3,29.47,ENE,68,5.8,8.6,17,-99.99,,,0.00,606.4,rob ver 1A,2013-11-13 20:10:00,
2013-11-13 13:11:00,83.1,28.2,29.38,WNW,285,2.9,4.3,13,-99.99,,,0.00,613.5,rob ver 1B,2013-11-13 20:11:00,
2013-11-13 13:12:00,83.0,28.2,29.38,WNW,287,1.7,2.9,13,-99.99,,,0.00,611.6,rob ver 1B,2013-11-13 20:12:00,
2013-11-13 13:13:00,83.1,28.3,29.38,West,277,2.8,4.4,13,-99.99,,,0.00,611.4,rob ver 1B,2013-11-13 20:13:00,
2013-11-13 13:14:00,83.0,28.2,29.38,WSW,255,2.8,3.5,13,-99.99,,,0.00,610.2,rob ver 1B,2013-11-13 20:14:00,
2013-11-13 13:15:00,87.0,37.2,29.47,NNE,13,7.1,9.0,17,-99.99,,,0.00,602.1,rob ver 1A,2013-11-13 20:15:00,
2013-11-13 13:16:00,83.1,28.7,29.38,SE,142,0.6,1.3,13,-99.99,,,0.00,608.1,rob ver 1B,2013-11-13 20:16:00,
2013-11-13 13:17:00,83.6,28.5,29.38,SE,138,1.2,1.8,13,-99.99,,,0.00,608.1,rob ver 1B,2013-11-13 20:17:00,
2013-11-13 13:18:00,83.8,28.4,29.38,SSE,156,1.6,2.2,13,-99.99,,,0.00,607.1,rob ver 1B,2013-11-13 20:18:00,
2013-11-13 13:19:00,83.9,28.4,29.38,SSE,149,1.9,2.7,13,-99.99,,,0.00,606.3,rob ver 1B,2013-11-13 20:19:00,
2013-11-13 13:20:00,86.6,37.3,29.47,NNE,16,3.6,6.1,17,-99.99,,,0.00,598.5,rob ver 1A,2013-11-13 20:20:00,
2013-11-13 13:21:00,83.6,28.2,29.38,ESE,108,1.1,1.7,13,-99.99,,,0.00,603.7,rob ver 1B,2013-11-13 20:21:00,
2013-11-13 13:22:00,83.6,28.1,29.38,ESE,116,1.5,2.1,13,-99.99,,,0.00,603.5,rob ver 1B,2013-11-13 20:22:00,
2013-11-13 13:23:00,83.8,28.2,29.38,East,98,2.3,4.4,13,-99.99,,,0.00,601.3,rob ver 1B,2013-11-13 20:23:00,
2013-11-13 13:24:00,83.6,28.0,29.38,ENE,65,4.1,5.8,13,-99.99,,,0.00,600.8,rob ver 1B,2013-11-13 20:24:00,
2013-11-13 13:25:00,88.0,36.8,29.47,NNW,339,1.3,2.0,15,-99.99,,,0.00,592.6,rob ver 1A,2013-11-13 20:25:00,
2013-11-13 13:26:00,82.8,28.0,29.38,ENE,60,2.6,3.9,13,-99.99,,,0.00,598.9,rob ver 1B,2013-11-13 20:26:00,
2013-11-13 13:27:00,83.0,28.0,29.38,East,83,1.8,3.2,13,-99.99,,,0.00,597.1,rob ver 1B,2013-11-13 20:27:00,
2013-11-13 13:28:00,83.5,28.5,29.38,South,171,1.5,3.2,13,-99.99,,,0.00,596.4,rob ver 1B,2013-11-13 20:28:00,
2013-11-13 13:29:00,84.1,28.5,29.38,SSW,199,2.3,2.9,13,-99.99,,,0.00,596.9,rob ver 1B,2013-11-13 20:29:00,
2013-11-13 13:30:00,86.9,37.1,29.44,NE,45,5.8,7.3,17,-99.99,,,0.00,588,rob ver 1A,2013-11-13 20:30:00,
2013-11-13 13:31:00,84.8,28.6,29.38,SE,128,1.8,2.7,13,-99.99,,,0.00,592.3,rob ver 1B,2013-11-13 20:31:00,
2013-11-13 13:32:00,84.7,28.5,29.38,SE,140,1.5,2.1,12,-99.99,,,0.00,591.4,rob ver 1B,2013-11-13 20:32:00,
2013-11-13 13:33:00,84.9,28.6,29.38,SE,139,1.0,1.8,13,-99.99,,,0.00,590.3,rob ver 1B,2013-11-13 20:33:00,
2013-11-13 13:34:00,85.2,28.8,29.38,SSE,162,2.2,3.2,12,-99.99,,,0.00,589,rob ver 1B,2013-11-13 20:34:00,
2013-11-13 13:35:00,87.7,37.3,29.44,WSW,249,1.5,3.9,16,-99.99,,,0.00,580.9,rob ver 1A,2013-11-13 20:35:00,
2013-11-13 13:36:00,85.2,28.8,29.38,SW,215,2.5,3.6,13,-99.99,,,0.00,586.5,rob ver 1B,2013-11-13 20:36:00,
2013-11-13 13:37:00,85.1,28.8,29.38,WSW,237,2.3,4.0,12,-99.99,,,0.00,584.8,rob ver 1B,2013-11-13 20:37:00,
2013-11-13 13:38:00,85.0,28.6,29.38,West,279,3.6,4.5,13,-99.99,,,0.00,584,rob ver 1B,2013-11-13 20:38:00,
2013-11-13 13:39:00,84.3,28.5,29.38,West,279,5.2,7.1,13,-99.99,,,0.00,582.7,rob ver 1B,2013-11-13 20:39:00,
2013-11-13 13:40:00,87.5,36.9,29.44,NNW,334,6.7,9.8,16,-99.99,,,0.00,574.3,rob ver 1A,2013-11-13 20:40:00,
2013-11-13 13:41:00,83.4,28.4,29.38,West,266,3.4,5.0,13,-99.99,,,0.00,580.1,rob ver 1B,2013-11-13 20:41:00,
2013-11-13 13:42:00,83.3,28.3,29.38,WSW,246,3.0,4.3,13,-99.99,,,0.00,578.7,rob ver 1B,2013-11-13 20:42:00,
2013-11-13 13:43:00,83.2,28.3,29.38,West,272,3.2,4.6,13,-99.99,,,0.00,576.9,rob ver 1B,2013-11-13 20:43:00,
2013-11-13 13:44:00,83.2,28.2,29.38,WSW,252,4.0,6.4,13,-99.99,,,0.00,576.8,rob ver 1B,2013-11-13 20:44:00,
2013-11-13 13:45:00,87.4,37.0,29.44,North,6,1.8,3.6,16,-99.99,,,0.00,566.4,rob ver 1A,2013-11-13 20:45:00,
2013-11-13 13:46:00,83.0,28.1,29.38,West,262,2.1,2.9,13,-99.99,,,0.00,573,rob ver 1B,2013-11-13 20:46:00,
2013-11-13 13:47:00,83.2,28.1,29.38,West,278,2.6,3.9,13,-99.99,,,0.00,571.8,rob ver 1B,2013-11-13 20:47:00,
2013-11-13 13:48:00,83.4,28.1,29.38,SSW,210,1.5,2.2,13,-99.99,,,0.00,569.7,rob ver 1B,2013-11-13 20:48:00,
2013-11-13 13:49:00,83.8,28.3,29.38,South,170,1.3,2.9,13,-99.99,,,0.00,568.2,rob ver 1B,2013-11-13 20:49:00,
2013-11-13 13:50:00,84.2,28.3,29.38,SW,218,1.7,2.6,12,-99.99,,,0.00,566.4,rob ver 1B,2013-11-13 20:50:00,
2013-11-13 13:51:00,87.8,37.0,29.44,NW,307,7.4,9.5,16,-99.99,,,0.00,559.1,rob ver 1A,2013-11-13 20:51:00,
2013-11-13 13:52:00,84.4,28.1,29.38,West,279,1.5,2.4,13,-99.99,,,0.00,563.6,rob ver 1B,2013-11-13 20:52:00,
2013-11-13 13:53:00,84.5,28.2,29.38,WSW,241,0.4,1.1,13,-99.99,,,0.00,561.4,rob ver 1B,2013-11-13 20:53:00,
2013-11-13 13:54:00,84.8,28.3,29.38,WNW,302,1.0,2.4,12,-99.99,,,0.00,559.9,rob ver 1B,2013-11-13 20:54:00,
2013-11-13 13:55:00,85.0,28.4,29.38,WNW,282,1.4,2.5,12,-99.99,,,0.00,558.6,rob ver 1B,2013-11-13 20:55:00,
2013-11-13 13:56:00,87.6,37.1,29.44,NNE,14,2.2,3.9,16,-99.99,,,0.00,551.4,rob ver 1A,2013-11-13 20:56:00,
2013-11-13 13:57:00,85.1,28.1,29.38,SW,235,3.5,4.7,12,-99.99,,,0.00,556.3,rob ver 1B,2013-11-13 20:57:00,
2013-11-13 13:58:00,84.8,28.2,29.38,West,266,2.0,3.4,12,-99.99,,,0.00,554,rob ver 1B,2013-11-13 20:58:00,
2013-11-13 13:59:00,84.7,28.1,29.38,WSW,256,2.9,5.2,13,-99.99,,,0.00,553,rob ver 1B,2013-11-13 20:59:00,
2013-11-13 14:00:00,84.5,28.1,29.38,WSW,258,4.3,5.5,12,-99.99,,,0.00,550.9,rob ver 1B,2013-11-13 21:00:00,
2013-11-13 14:01:00,89.1,36.2,29.44,South,175,2.5,4.0,15,-99.99,,,0.00,543.4,rob ver 1A,2013-11-13 21:01:00,
2013-11-13 14:02:00,83.8,27.8,29.38,SW,235,3.4,4.7,13,-99.99,,,0.00,547.6,rob ver 1B,2013-11-13 21:02:00,
2013-11-13 14:03:00,83.7,27.9,29.38,SW,225,2.5,4.4,12,-99.99,,,0.00,546.8,rob ver 1B,2013-11-13 21:03:00,
2013-11-13 14:04:00,83.9,27.7,29.38,SSW,197,2.1,3.2,12,-99.99,,,0.00,545.1,rob ver 1B,2013-11-13 21:04:00,
2013-11-13 14:05:00,84.1,27.8,29.38,South,179,2.0,2.6,12,-99.99,,,0.00,543.1,rob ver 1B,2013-11-13 21:05:00,
2013-11-13 14:06:00,88.1,36.1,29.44,WNW,303,6.5,9.9,15,-99.99,,,0.00,535.5,rob ver 1A,2013-11-13 21:06:00,
2013-11-13 14:07:00,84.3,27.9,29.38,SE,137,2.0,3.3,12,-99.99,,,0.00,539.2,rob ver 1B,2013-11-13 21:07:00,
2013-11-13 14:08:00,84.2,27.7,29.38,East,86,1.9,3.7,12,-99.99,,,0.00,537.9,rob ver 1B,2013-11-13 21:08:00,
2013-11-13 14:09:00,84.1,27.6,29.35,SE,127,2.0,3.2,12,-99.99,,,0.00,536.5,rob ver 1B,2013-11-13 21:09:00,
2013-11-13 14:10:00,84.3,27.9,29.35,SE,140,1.4,2.9,12,-99.99,,,0.00,535.2,rob ver 1B,2013-11-13 21:10:00,
2013-11-13 14:11:00,87.4,36.9,29.44,NNW,335,7.0,9.5,16,-99.99,,,0.00,527.6,rob ver 1A,2013-11-13 21:11:00,
2013-11-13 14:12:00,84.7,28.0,29.35,SE,133,3.2,4.0,12,-99.99,,,0.00,531.1,rob ver 1B,2013-11-13 21:12:00,
2013-11-13 14:13:00,84.6,27.8,29.35,South,171,2.1,4.5,12,-99.99,,,0.00,529.3,rob ver 1B,2013-11-13 21:13:00,
2013-11-13 14:14:00,84.8,27.9,29.35,SE,135,2.3,4.4,12,-99.99,,,0.00,527,rob ver 1B,2013-11-13 21:14:00,
2013-11-13 14:15:00,84.9,28.0,29.35,SSE,160,2.6,5.2,12,-99.99,,,0.00,525.7,rob ver 1B,2013-11-13 21:15:00,
2013-11-13 14:16:00,87.2,36.9,29.44,NW,319,7.6,11.6,16,-99.99,,,0.00,517,rob ver 1A,2013-11-13 21:16:00,
2013-11-13 14:17:00,84.7,27.8,29.35,SE,143,3.3,4.5,12,-99.99,,,0.00,521.4,rob ver 1B,2013-11-13 21:17:00,
2013-11-13 14:18:00,84.4,27.9,29.35,SE,140,4.3,4.8,12,-99.99,,,0.00,520.1,rob ver 1B,2013-11-13 21:18:00,
2013-11-13 14:19:00,84.1,27.8,29.35,SSE,153,2.9,4.7,13,-99.99,,,0.00,518.3,rob ver 1B,2013-11-13 21:19:00,
2013-11-13 14:20:00,84.1,27.9,29.35,SSE,164,3.6,5.4,13,-99.99,,,0.00,516.1,rob ver 1B,2013-11-13 21:20:00,
2013-11-13 14:21:00,87.2,36.7,29.44,NNW,332,9.3,11.3,17,-99.99,,,0.00,506.8,rob ver 1A,2013-11-13 21:21:00,
2013-11-13 14:22:00,84.0,27.8,29.35,SSW,194,3.3,4.5,12,-99.99,,,0.00,512.2,rob ver 1B,2013-11-13 21:22:00,
2013-11-13 14:23:00,84.1,28.0,29.35,South,174,3.5,6.1,12,-99.99,,,0.00,509.5,rob ver 1B,2013-11-13 21:23:00,
2013-11-13 14:24:00,84.1,27.9,29.35,SSE,161,5.4,6.5,12,-99.99,,,0.00,507.5,rob ver 1B,2013-11-13 21:24:00,
2013-11-13 14:25:00,83.9,27.9,29.35,SSE,154,3.6,4.7,13,-99.99,,,0.00,505.4,rob ver 1B,2013-11-13 21:25:00,
2013-11-13 14:26:00,83.8,28.1,29.35,SSW,199,2.9,4.0,13,-99.99,,,0.00,502.8,rob ver 1B,2013-11-13 21:26:00,
2013-11-13 14:27:00,87.2,36.9,29.44,NW,309,6.3,8.3,16,-99.99,,,0.00,496.6,rob ver 1A,2013-11-13 21:27:00,
2013-11-13 14:28:00,84.4,28.2,29.35,WSW,257,2.6,4.9,13,-99.99,,,0.00,499,rob ver 1B,2013-11-13 21:28:00,
2013-11-13 14:29:00,84.5,28.3,29.35,WNW,283,2.9,4.8,12,-99.99,,,0.00,496.8,rob ver 1B,2013-11-13 21:29:00,
2013-11-13 14:30:00,84.6,28.2,29.35,West,263,1.7,3.2,12,-99.99,,,0.00,494.4,rob ver 1B,2013-11-13 21:30:00,
2013-11-13 14:31:00,84.7,28.2,29.35,SSW,203,3.6,5.3,12,-99.99,,,0.00,493,rob ver 1B,2013-11-13 21:31:00,
2013-11-13 14:32:00,87.6,33.9,29.44,WNW,286,10.1,11.4,14,-99.99,,,0.00,487.3,rob ver 1A,2013-11-13 21:32:00,
2013-11-13 14:33:00,84.3,28.1,29.35,SSW,211,4.6,6.2,12,-99.99,,,0.00,489.6,rob ver 1B,2013-11-13 21:33:00,
2013-11-13 14:34:00,84.3,28.1,29.35,South,191,3.1,5.0,12,-99.99,,,0.00,488.1,rob ver 1B,2013-11-13 21:34:00,
2013-11-13 14:35:00,84.3,28.2,29.35,SSW,208,5.5,9.4,13,-99.99,,,0.00,485.1,rob ver 1B,2013-11-13 21:35:00,
2013-11-13 14:36:00,84.2,28.0,29.35,SW,234,7.3,9.2,13,-99.99,,,0.00,483.2,rob ver 1B,2013-11-13 21:36:00,
2013-11-13 14:37:00,87.5,34.0,29.44,WNW,290,7.6,10.5,14,-99.99,,,0.00,477.1,rob ver 1A,2013-11-13 21:37:00,
2013-11-13 14:38:00,83.8,28.0,29.35,WNW,290,3.2,6.2,13,-99.99,,,0.00,478.9,rob ver 1B,2013-11-13 21:38:00,
2013-11-13 14:39:00,83.7,28.0,29.35,WNW,285,2.8,5.9,13,-99.99,,,0.00,476.9,rob ver 1B,2013-11-13 21:39:00,
2013-11-13 14:40:00,83.7,27.9,29.35,NNW,339,2.4,3.3,13,-99.99,,,0.00,474.6,rob ver 1B,2013-11-13 21:40:00,
2013-11-13 14:41:00,83.7,27.8,29.35,North,350,1.6,2.6,13,-99.99,,,0.00,471.9,rob ver 1B,2013-11-13 21:41:00,
2013-11-13 14:42:00,86.7,33.9,29.44,WNW,303,6.3,10.3,15,-99.99,,,0.00,464.8,rob ver 1A,2013-11-13 21:42:00,
2013-11-13 14:43:00,84.1,27.8,29.35,West,266,2.3,3.3,12,-99.99,,,0.00,468.8,rob ver 1B,2013-11-13 21:43:00,
2013-11-13 14:44:00,84.3,27.8,29.35,SW,227,3.7,4.8,12,-99.99,,,0.00,466.7,rob ver 1B,2013-11-13 21:44:00,
2013-11-13 14:45:00,84.4,27.8,29.35,WSW,244,4.3,6.9,12,-99.99,,,0.00,464.4,rob ver 1B,2013-11-13 21:45:00,
2013-11-13 14:46:00,84.2,27.9,29.35,West,266,5.4,6.8,12,-99.99,,,0.00,462.1,rob ver 1B,2013-11-13 21:46:00,
2013-11-13 14:47:00,87.1,33.8,29.44,WSW,258,8.0,9.6,14,-99.99,,,0.00,454.9,rob ver 1A,2013-11-13 21:47:00,
2013-11-13 14:48:00,83.9,27.7,29.35,WNW,288,3.2,4.2,12,-99.99,,,0.00,456.8,rob ver 1B,2013-11-13 21:48:00,
2013-11-13 14:49:00,83.9,27.7,29.35,WNW,299,4.3,7.3,12,-99.99,,,0.00,454.7,rob ver 1B,2013-11-13 21:49:00,
2013-11-13 14:50:00,83.8,27.7,29.35,NNW,336,4.4,6.3,12,-99.99,,,0.00,452.2,rob ver 1B,2013-11-13 21:50:00,
2013-11-13 14:51:00,83.7,27.5,29.35,North,9,4.4,5.7,12,-99.99,,,0.00,449.5,rob ver 1B,2013-11-13 21:51:00,
2013-11-13 14:52:00,86.9,33.8,29.44,West,276,7.9,10.1,14,-99.99,,,0.00,443.4,rob ver 1A,2013-11-13 21:52:00,
2013-11-13 14:53:00,83.5,27.5,29.35,ENE,59,2.8,4.4,12,-99.99,,,0.00,443.6,rob ver 1B,2013-11-13 21:53:00,
2013-11-13 14:54:00,83.6,27.4,29.35,NE,52,3.9,5.1,12,-99.99,,,0.00,441.8,rob ver 1B,2013-11-13 21:54:00,
2013-11-13 14:55:00,83.4,27.3,29.35,NE,44,4.1,5.1,13,-99.99,,,0.00,439.3,rob ver 1B,2013-11-13 21:55:00,
2013-11-13 14:56:00,83.5,27.5,29.35,NE,49,2.1,3.4,13,-99.99,,,0.00,436.9,rob ver 1B,2013-11-13 21:56:00,
2013-11-13 14:57:00,87.1,33.6,29.44,West,277,10.1,13.2,14,-99.99,,,0.00,429.2,rob ver 1A,2013-11-13 21:57:00,
2013-11-13 14:58:00,84.1,27.7,29.35,NNW,339,1.8,3.8,12,-99.99,,,0.00,431.9,rob ver 1B,2013-11-13 21:58:00,
2013-11-13 14:59:00,84.5,27.6,29.35,West,276,3.1,4.5,12,-99.99,,,0.00,429.6,rob ver 1B,2013-11-13 21:59:00,
2013-11-13 15:00:00,84.6,27.7,29.35,West,260,4.3,5.8,12,-99.99,,,0.00,428,rob ver 1B,2013-11-13 22:00:00,
2013-11-13 15:01:00,84.5,27.6,29.35,West,271,4.5,5.3,12,-99.99,,,0.00,424.7,rob ver 1B,2013-11-13 22:01:00,
2013-11-13 15:02:00,84.2,27.5,29.35,West,271,4.7,5.9,12,-99.99,,,0.00,422.8,rob ver 1B,2013-11-13 22:02:00,
2013-11-13 15:03:00,87.0,33.5,29.44,WSW,251,5.7,7.7,14,-99.99,,,0.00,417.8,rob ver 1A,2013-11-13 22:03:00,
2013-11-13 15:04:00,83.9,27.5,29.35,WSW,253,4.6,6.0,12,-99.99,,,0.00,417.6,rob ver 1B,2013-11-13 22:04:00,
2013-11-13 15:05:00,83.8,27.4,29.35,West,271,3.5,4.4,12,-99.99,,,0.00,415.4,rob ver 1B,2013-11-13 22:05:00,
2013-11-13 15:06:00,83.8,27.5,29.35,WSW,247,3.5,5.0,12,-99.99,,,0.00,413.3,rob ver 1B,2013-11-13 22:06:00,
2013-11-13 15:07:00,83.9,27.4,29.35,WSW,239,2.6,4.5,12,-99.99,,,0.00,410.3,rob ver 1B,2013-11-13 22:07:00,
2013-11-13 15:08:00,87.6,34.5,29.44,NNW,339,6.9,10.9,15,-99.99,,,0.00,405.6,rob ver 1A,2013-11-13 22:08:00,
2013-11-13 15:09:00,84.2,27.5,29.35,WNW,282,3.3,4.5,12,-99.99,,,0.00,405.7,rob ver 1B,2013-11-13 22:09:00,
2013-11-13 15:10:00,84.2,27.6,29.35,West,277,3.3,4.4,12,-99.99,,,0.00,402.7,rob ver 1B,2013-11-13 22:10:00,
2013-11-13 15:11:00,84.3,27.6,29.35,NW,310,3.5,4.5,12,-99.99,,,0.00,400.8,rob ver 1B,2013-11-13 22:11:00,
2013-11-13 15:12:00,84.2,27.4,29.35,NW,313,3.6,5.1,12,-99.99,,,0.00,398.1,rob ver 1B,2013-11-13 22:12:00,
2013-11-13 15:13:00,87.6,35.0,29.41,NNW,327,10.7,12.4,14,-99.99,,,0.00,392.4,rob ver 1A,2013-11-13 22:13:00,
2013-11-13 15:14:00,84.3,27.7,29.35,NW,312,1.7,2.8,12,-99.99,,,0.00,392.5,rob ver 1B,2013-11-13 22:14:00,
2013-11-13 15:15:00,84.6,27.5,29.35,SW,217,4.5,6.5,12,-99.99,,,0.00,390.2,rob ver 1B,2013-11-13 22:15:00,
2013-11-13 15:16:00,84.5,27.6,29.35,SSW,201,3.4,4.7,12,-99.99,,,0.00,387.6,rob ver 1B,2013-11-13 22:16:00,
2013-11-13 15:17:00,84.5,27.6,29.32,South,169,2.1,2.6,12,-99.99,,,0.00,385.3,rob ver 1B,2013-11-13 22:17:00,
2013-11-13 15:18:00,87.5,33.6,29.44,NW,309,7.5,9.4,14,-99.99,,,0.00,379.4,rob ver 1A,2013-11-13 22:18:00,
2013-11-13 15:19:00,84.7,27.5,29.32,SW,218,4.1,5.3,12,-99.99,,,0.00,380.7,rob ver 1B,2013-11-13 22:19:00,
2013-11-13 15:20:00,84.7,27.5,29.35,SW,231,3.6,4.9,12,-99.99,,,0.00,378.4,rob ver 1B,2013-11-13 22:20:00,
2013-11-13 15:21:00,84.6,27.5,29.32,WSW,243,3.5,4.8,12,-99.99,,,0.00,375.6,rob ver 1B,2013-11-13 22:21:00,
2013-11-13 15:22:00,84.5,27.5,29.32,SW,222,3.0,4.4,12,-99.99,,,0.00,373.2,rob ver 1B,2013-11-13 22:22:00,
2013-11-13 15:23:00,87.2,33.5,29.41,WNW,290,8.2,11.8,14,-99.99,,,0.00,366.3,rob ver 1A,2013-11-13 22:23:00,
2013-11-13 15:24:00,84.5,27.4,29.32,WSW,244,2.9,3.8,12,-99.99,,,0.00,367.1,rob ver 1B,2013-11-13 22:24:00,
2013-11-13 15:25:00,84.5,27.4,29.32,SW,231,3.2,3.9,12,-99.99,,,0.00,367.5,rob ver 1B,2013-11-13 22:25:00,
2013-11-13 15:26:00,84.6,27.4,29.32,SSW,198,3.1,4.5,12,-99.99,,,0.00,365.8,rob ver 1B,2013-11-13 22:26:00,
2013-11-13 15:27:00,84.7,27.5,29.32,SSW,200,2.9,4.2,12,-99.99,,,0.00,336.8,rob ver 1B,2013-11-13 22:27:00,
2013-11-13 15:28:00,87.0,33.7,29.41,WNW,292,6.0,9.6,14,-99.99,,,0.00,351.9,rob ver 1A,2013-11-13 22:28:00,
2013-11-13 15:29:00,85.0,27.5,29.32,SSW,205,2.2,3.4,12,-99.99,,,0.00,361.2,rob ver 1B,2013-11-13 22:29:00,
2013-11-13 15:30:00,85.2,27.4,29.32,SW,214,1.8,2.9,12,-99.99,,,0.00,357.9,rob ver 1B,2013-11-13 22:30:00,
2013-11-13 15:31:00,85.2,27.3,29.32,SW,222,2.0,3.6,12,-99.99,,,0.00,355.9,rob ver 1B,2013-11-13 22:31:00,
2013-11-13 15:32:00,85.2,27.3,29.32,SSW,197,2.6,4.0,12,-99.99,,,0.00,348.7,rob ver 1B,2013-11-13 22:32:00,
2013-11-13 15:33:00,87.2,33.6,29.41,West,278,7.2,9.4,14,-99.99,,,0.00,338.2,rob ver 1A,2013-11-13 22:33:00,
2013-11-13 15:34:00,85.4,27.2,29.32,SW,214,2.3,3.5,12,-99.99,,,0.00,333.2,rob ver 1B,2013-11-13 22:34:00,
2013-11-13 15:35:00,85.5,27.2,29.32,SW,227,2.2,3.8,11,-99.99,,,0.00,333.5,rob ver 1B,2013-11-13 22:35:00,
2013-11-13 15:36:00,85.5,27.2,29.32,SW,233,1.2,1.9,12,-99.99,,,0.00,307.5,rob ver 1B,2013-11-13 22:36:00,
2013-11-13 15:37:00,85.7,27.4,29.32,WNW,300,0.7,1.5,11,-99.99,,,0.00,339.1,rob ver 1B,2013-11-13 22:37:00,
2013-11-13 15:38:00,87.1,33.5,29.41,WNW,296,5.3,7.5,14,-99.99,,,0.00,324.6,rob ver 1A,2013-11-13 22:38:00,
2013-11-13 15:39:00,86.1,27.3,29.32,NNW,347,0.9,2.0,11,-99.99,,,0.00,313.4,rob ver 1B,2013-11-13 22:39:00,
2013-11-13 15:40:00,86.0,27.0,29.32,NNE,19,2.2,2.9,11,-99.99,,,0.00,321.7,rob ver 1B,2013-11-13 22:40:00,
2013-11-13 15:41:00,85.7,27.0,29.32,ENE,77,1.6,2.3,11,-99.99,,,0.00,295.3,rob ver 1B,2013-11-13 22:41:00,
2013-11-13 15:42:00,85.7,27.3,29.32,SE,141,1.7,2.6,12,-99.99,,,0.00,271.6,rob ver 1B,2013-11-13 22:42:00,
2013-11-13 15:43:00,85.7,27.5,29.32,South,180,2.6,4.0,12,-99.99,,,0.00,286.7,rob ver 1B,2013-11-13 22:43:00,
2013-11-13 15:44:00,85.7,27.4,29.32,SSW,212,2.4,3.2,12,-99.99,,,0.00,262.7,rob ver 1B,2013-11-13 22:44:00,
2013-11-13 15:45:00,85.6,27.6,29.32,South,182,2.7,3.5,12,-99.99,,,0.00,230.5,rob ver 1B,2013-11-13 22:45:00,
2013-11-13 15:46:00,85.5,27.4,29.32,South,185,3.6,6.7,12,-99.99,,,0.00,296,rob ver 1B,2013-11-13 22:46:00,
2013-11-13 15:47:00,85.4,27.4,29.32,South,182,4.7,6.2,12,-99.99,,,0.00,322.3,rob ver 1B,2013-11-13 22:47:00,
2013-11-13 15:48:00,87.3,33.5,29.41,WNW,296,1.6,3.8,14,-99.99,,,0.00,294.3,rob ver 1A,2013-11-13 22:48:00,
2013-11-13 15:49:00,84.9,27.3,29.32,SSE,148,5.0,6.3,12,-99.99,,,0.00,343.1,rob ver 1B,2013-11-13 22:49:00,
2013-11-13 15:50:00,84.6,27.3,29.32,SE,133,2.6,4.2,12,-99.99,,,0.00,340.5,rob ver 1B,2013-11-13 22:50:00,
2013-11-13 15:51:00,84.6,27.4,29.32,SE,135,0.9,1.8,12,-99.99,,,0.00,262.8,rob ver 1B,2013-11-13 22:51:00,
2013-11-13 15:52:00,84.8,27.3,29.32,SE,136,0.9,1.7,12,-99.99,,,0.00,300.6,rob ver 1B,2013-11-13 22:52:00,
2013-11-13 15:53:00,87.9,33.8,29.41,WNW,285,2.3,3.2,14,-99.99,,,0.00,277.1,rob ver 1A,2013-11-13 22:53:00,
2013-11-13 15:54:00,85.2,27.1,29.32,SW,218,5.2,6.5,12,-99.99,,,0.00,300.6,rob ver 1B,2013-11-13 22:54:00,
2013-11-13 15:55:00,85.1,27.1,29.32,South,190,5.3,6.5,12,-99.99,,,0.00,180.3,rob ver 1B,2013-11-13 22:55:00,
2013-11-13 15:56:00,85.0,27.0,29.32,South,191,5.6,6.4,12,-99.99,,,0.00,211.9,rob ver 1B,2013-11-13 22:56:00,
2013-11-13 15:57:00,84.7,27.1,29.32,SSW,201,3.5,4.6,12,-99.99,,,0.00,166.8,rob ver 1B,2013-11-13 22:57:00,
2013-11-13 15:58:00,84.5,27.0,29.32,SW,216,4.7,5.7,12,-99.99,,,0.00,200.4,rob ver 1B,2013-11-13 22:58:00,
2013-11-13 15:59:00,87.8,35.3,29.41,NNE,12,4.8,5.9,15,-99.99,,,0.00,262.5,rob ver 1A,2013-11-13 22:59:00,
2013-11-13 16:00:00,87.7,35.4,29.41,North,11,4.3,6.1,15,-99.99,,,0.00,260.2,rob ver 1A,2013-11-13 23:00:00,
2013-11-13 16:01:00,84.1,27.1,29.32,South,171,7.1,8.5,12,-99.99,,,0.00,227.7,rob ver 1B,2013-11-13 23:01:00,
2013-11-13 16:02:00,84.0,27.0,29.32,SSE,162,5.6,7.6,12,-99.99,,,0.00,217.5,rob ver 1B,2013-11-13 23:02:00,
2013-11-13 16:03:00,83.9,27.1,29.32,SSE,147,3.1,4.6,12,-99.99,,,0.00,273.4,rob ver 1B,2013-11-13 23:03:00,
2013-11-13 16:04:00,83.9,27.1,29.32,SSE,166,4.5,6.4,12,-99.99,,,0.00,267.9,rob ver 1B,2013-11-13 23:04:00,
2013-11-13 16:05:00,87.6,36.5,29.41,NW,323,8.3,10.7,16,-99.99,,,0.00,246.1,rob ver 1A,2013-11-13 23:05:00,
2013-11-13 16:06:00,84.2,27.0,29.32,SSW,204,2.1,3.6,12,-99.99,,,0.00,255.1,rob ver 1B,2013-11-13 23:06:00,
2013-11-13 16:07:00,84.5,27.0,29.32,South,180,1.6,2.7,12,-99.99,,,0.00,249.7,rob ver 1B,2013-11-13 23:07:00,
2013-11-13 16:08:00,84.7,26.9,29.32,South,186,3.6,5.3,12,-99.99,,,0.00,244,rob ver 1B,2013-11-13 23:08:00,
2013-11-13 16:09:00,84.7,26.6,29.32,SW,216,3.7,4.9,11,-99.99,,,0.00,239.3,rob ver 1B,2013-11-13 23:09:00,
2013-11-13 16:10:00,87.7,35.8,29.41,NE,34,6.0,8.6,15,-99.99,,,0.00,231,rob ver 1A,2013-11-13 23:10:00,
2013-11-13 16:11:00,84.8,26.8,29.32,WNW,290,1.2,1.9,12,-99.99,,,0.00,231.4,rob ver 1B,2013-11-13 23:11:00,
2013-11-13 16:12:00,84.8,27.0,29.32,SW,214,1.8,3.4,12,-99.99,,,0.00,227.2,rob ver 1B,2013-11-13 23:12:00,
2013-11-13 16:13:00,84.9,26.7,29.32,South,177,3.7,4.5,12,-99.99,,,0.00,223.5,rob ver 1B,2013-11-13 23:13:00,
2013-11-13 16:14:00,84.8,26.7,29.32,SSE,153,2.7,3.5,12,-99.99,,,0.00,220.2,rob ver 1B,2013-11-13 23:14:00,
2013-11-13 16:15:00,87.5,36.5,29.41,ENE,71,4.4,6.2,16,-99.99,,,0.00,215.2,rob ver 1A,2013-11-13 23:15:00,
2013-11-13 16:16:00,84.8,26.8,29.32,SSE,147,1.5,3.0,11,-99.99,,,0.00,213.9,rob ver 1B,2013-11-13 23:16:00,
2013-11-13 16:17:00,84.9,26.7,29.32,SSE,151,1.7,2.9,12,-99.99,,,0.00,210.9,rob ver 1B,2013-11-13 23:17:00,
2013-11-13 16:18:00,84.9,26.7,29.32,SSW,198,4.1,5.0,11,-99.99,,,0.00,207.6,rob ver 1B,2013-11-13 23:18:00,
2013-11-13 16:19:00,84.8,26.6,29.32,SSW,209,3.8,4.5,11,-99.99,,,0.00,204.3,rob ver 1B,2013-11-13 23:19:00,
2013-11-13 16:20:00,87.2,36.3,29.41,NE,47,4.6,7.0,16,-99.99,,,0.00,200.7,rob ver 1A,2013-11-13 23:20:00,
2013-11-13 16:21:00,84.8,26.6,29.32,South,185,3.2,4.4,12,-99.99,,,0.00,197.9,rob ver 1B,2013-11-13 23:21:00,
2013-11-13 16:22:00,84.7,26.5,29.32,SSW,195,2.9,3.8,11,-99.99,,,0.00,195.1,rob ver 1B,2013-11-13 23:22:00,
2013-11-13 16:23:00,84.8,26.2,29.32,SW,214,2.7,3.8,11,-99.99,,,0.00,191.8,rob ver 1B,2013-11-13 23:23:00,
2013-11-13 16:24:00,84.8,26.2,29.32,SW,216,2.0,2.8,11,-99.99,,,0.00,188.5,rob ver 1B,2013-11-13 23:24:00,
2013-11-13 16:25:00,87.1,36.7,29.41,NNE,33,6.8,7.9,16,-99.99,,,0.00,186.2,rob ver 1A,2013-11-13 23:25:00,
2013-11-13 16:26:00,84.9,26.3,29.32,SSW,206,1.9,3.5,11,-99.99,,,0.00,182.6,rob ver 1B,2013-11-13 23:26:00,
2013-11-13 16:27:00,85.0,26.4,29.32,South,186,3.8,4.8,11,-99.99,,,0.00,179.3,rob ver 1B,2013-11-13 23:27:00,
2013-11-13 16:28:00,84.9,26.3,29.32,South,185,3.7,4.3,11,-99.99,,,0.00,176.5,rob ver 1B,2013-11-13 23:28:00,
2013-11-13 16:29:00,84.8,26.3,29.32,South,177,2.9,4.5,11,-99.99,,,0.00,173.4,rob ver 1B,2013-11-13 23:29:00,
2013-11-13 16:30:00,87.3,36.5,29.41,NNE,29,6.8,8.7,16,-99.99,,,0.00,170.9,rob ver 1A,2013-11-13 23:30:00,
2013-11-13 16:31:00,84.6,26.3,29.32,South,169,3.2,4.4,11,-99.99,,,0.00,167.4,rob ver 1B,2013-11-13 23:31:00,
2013-11-13 16:32:00,84.5,26.0,29.32,South,186,2.5,3.7,11,-99.99,,,0.00,164.5,rob ver 1B,2013-11-13 23:32:00,
2013-11-13 16:33:00,84.6,26.1,29.32,SSE,153,2.1,2.6,11,-99.99,,,0.00,161.5,rob ver 1B,2013-11-13 23:33:00,
2013-11-13 16:34:00,84.5,26.0,29.32,SE,137,2.4,3.2,11,-99.99,,,0.00,158.7,rob ver 1B,2013-11-13 23:34:00,
2013-11-13 16:35:00,87.1,36.5,29.41,NE,48,5.4,6.9,16,-99.99,,,0.00,153.9,rob ver 1A,2013-11-13 23:35:00,
2013-11-13 16:36:00,84.1,26.2,29.32,SE,142,3.0,3.8,12,-99.99,,,0.00,152.9,rob ver 1B,2013-11-13 23:36:00,
2013-11-13 16:37:00,84.0,26.3,29.32,SE,141,2.4,3.2,12,-99.99,,,0.00,149.6,rob ver 1B,2013-11-13 23:37:00,
2013-11-13 16:38:00,84.0,26.2,29.32,SE,146,2.5,3.2,12,-99.99,,,0.00,147,rob ver 1B,2013-11-13 23:38:00,
2013-11-13 16:39:00,83.9,26.1,29.32,SSE,150,2.0,2.8,12,-99.99,,,0.00,143.9,rob ver 1B,2013-11-13 23:39:00,
2013-11-13 16:40:00,87.1,36.7,29.41,ENE,70,5.5,7.0,16,-99.99,,,0.00,140,rob ver 1A,2013-11-13 23:40:00,
2013-11-13 16:41:00,84.1,26.2,29.32,East,99,0.7,1.0,12,-99.99,,,0.00,137.8,rob ver 1B,2013-11-13 23:41:00,
2013-11-13 16:42:00,84.1,26.1,29.32,ENE,73,0.9,1.5,11,-99.99,,,0.00,134.5,rob ver 1B,2013-11-13 23:42:00,
2013-11-13 16:43:00,84.2,26.1,29.32,NNW,345,0.4,0.9,11,-99.99,,,0.00,131.8,rob ver 1B,2013-11-13 23:43:00,
2013-11-13 16:44:00,84.3,26.0,29.32,North,1,0.9,1.4,11,-99.99,,,0.00,128.9,rob ver 1B,2013-11-13 23:44:00,
2013-11-13 16:45:00,87.0,36.9,29.41,NE,53,4.5,5.8,17,-99.99,,,0.00,128.8,rob ver 1A,2013-11-13 23:45:00,
2013-11-13 16:46:00,84.4,25.8,29.32,NW,313,0.7,1.3,11,-99.99,,,0.00,123.1,rob ver 1B,2013-11-13 23:46:00,
2013-11-13 16:47:00,84.5,25.8,29.32,NW,308,0.7,1.1,11,-99.99,,,0.00,120,rob ver 1B,2013-11-13 23:47:00,
2013-11-13 16:48:00,84.6,25.9,29.32,NNW,333,0.5,0.9,11,-99.99,,,0.00,117.3,rob ver 1B,2013-11-13 23:48:00,
2013-11-13 16:49:00,84.6,25.7,29.32,NNE,16,1.1,1.6,11,-99.99,,,0.00,114.7,rob ver 1B,2013-11-13 23:49:00,
2013-11-13 16:50:00,86.9,36.7,29.41,NE,41,2.5,3.4,16,-99.99,,,0.00,112.4,rob ver 1A,2013-11-13 23:50:00,
2013-11-13 16:51:00,84.5,25.7,29.32,ESE,104,0.5,1.0,11,-99.99,,,0.00,108.4,rob ver 1B,2013-11-13 23:51:00,
2013-11-13 16:52:00,84.6,26.0,29.32,SSE,154,0.4,0.8,11,-99.99,,,0.00,105.5,rob ver 1B,2013-11-13 23:52:00,
2013-11-13 16:53:00,84.7,26.0,29.32,South,172,1.3,1.7,11,-99.99,,,0.00,102.8,rob ver 1B,2013-11-13 23:53:00,
2013-11-13 16:54:00,84.8,25.9,29.29,South,187,1.2,1.4,11,-99.99,,,0.00,100.2,rob ver 1B,2013-11-13 23:54:00,
2013-11-13 16:55:00,84.8,25.7,29.29,SSW,194,1.9,2.3,11,-99.99,,,0.00,97.6,rob ver 1B,2013-11-13 23:55:00,
2013-11-13 16:56:00,87.1,36.8,29.41,ENE,61,1.5,2.1,16,-99.99,,,0.00,98.5,rob ver 1A,2013-11-13 23:56:00,
2013-11-13 16:57:00,84.8,25.6,29.29,SSW,195,1.4,1.8,11,-99.99,,,0.00,92.3,rob ver 1B,2013-11-13 23:57:00,
2013-11-13 16:58:00,84.8,26.0,29.29,SW,225,1.8,2.1,11,-99.99,,,0.00,89.3,rob ver 1B,2013-11-13 23:58:00,
2013-11-13 16:59:00,84.7,26.1,29.29,SW,222,1.9,2.4,11,-99.99,,,0.00,86.8,rob ver 1B,2013-11-13 23:59:00,
2013-11-13 17:00:00,84.5,26.2,29.29,SW,228,2.1,2.6,11,-99.99,,,0.00,83.7,rob ver 1B,2013-11-14 00:00:00,
2013-11-13 17:01:00,86.9,36.8,29.41,NE,51,2.9,3.9,16,-99.99,,,0.00,85.9,rob ver 1A,2013-11-14 00:01:00,
2013-11-13 17:02:00,84.3,26.0,29.32,SSW,199,2.0,2.8,11,-99.99,,,0.00,78.4,rob ver 1B,2013-11-14 00:02:00,
2013-11-13 17:03:00,84.2,25.7,29.29,SSW,197,2.8,3.4,11,-99.99,,,0.00,75.8,rob ver 1B,2013-11-14 00:03:00,
2013-11-13 17:04:00,84.1,25.6,29.29,South,184,3.2,3.7,11,-99.99,,,0.00,73.2,rob ver 1B,2013-11-14 00:04:00,
2013-11-13 17:05:00,84.0,25.6,29.29,SSW,193,3.1,3.8,11,-99.99,,,0.00,70.5,rob ver 1B,2013-11-14 00:05:00,
2013-11-13 17:06:00,86.7,36.9,29.41,ENE,71,2.8,4.0,17,-99.99,,,0.00,73.5,rob ver 1A,2013-11-14 00:06:00,
2013-11-13 17:07:00,83.7,25.5,29.29,South,191,3.0,3.9,11,-99.99,,,0.00,65.42,rob ver 1B,2013-11-14 00:07:00,
2013-11-13 17:08:00,83.6,25.4,29.29,SSW,205,3.2,3.8,11,-99.99,,,0.00,62.79,rob ver 1B,2013-11-14 00:08:00,
2013-11-13 17:09:00,83.5,25.5,29.29,SSW,211,3.3,3.7,11,-99.99,,,0.00,60.31,rob ver 1B,2013-11-14 00:09:00,
2013-11-13 17:10:00,83.4,25.5,29.29,SSW,208,3.1,3.8,11,-99.99,,,0.00,57.68,rob ver 1B,2013-11-14 00:10:00,
2013-11-13 17:11:00,86.4,37.0,29.41,ENE,72,3.8,5.0,17,-99.99,,,0.00,60.64,rob ver 1A,2013-11-14 00:11:00,
2013-11-13 17:12:00,83.3,25.4,29.29,SSW,202,2.3,3.0,11,-99.99,,,0.00,52.57,rob ver 1B,2013-11-14 00:12:00,
2013-11-13 17:13:00,83.2,25.4,29.29,SSW,193,2.3,3.0,11,-99.99,,,0.00,50.1,rob ver 1B,2013-11-14 00:13:00,
2013-11-13 17:14:00,83.2,25.2,29.29,South,188,2.6,3.0,11,-99.99,,,0.00,47.46,rob ver 1B,2013-11-14 00:14:00,
2013-11-13 17:15:00,83.1,25.3,29.29,South,190,2.5,2.9,11,-99.99,,,0.00,44.82,rob ver 1B,2013-11-14 00:15:00,
2013-11-13 17:16:00,86.1,37.0,29.41,ESE,110,3.4,3.8,17,-99.99,,,0.00,47.79,rob ver 1A,2013-11-14 00:16:00,
2013-11-13 17:17:00,83.0,25.3,29.29,SSW,196,2.3,2.6,12,-99.99,,,0.00,40.21,rob ver 1B,2013-11-14 00:17:00,
2013-11-13 17:18:00,82.9,25.7,29.29,South,178,2.2,2.7,12,-99.99,,,0.00,37.57,rob ver 1B,2013-11-14 00:18:00,
2013-11-13 17:19:00,82.8,26.0,29.29,SSE,168,2.4,3.0,12,-99.99,,,0.00,35.6,rob ver 1B,2013-11-14 00:19:00,
2013-11-13 17:20:00,82.6,26.0,29.29,South,174,2.7,2.9,12,-99.99,,,0.00,32.96,rob ver 1B,2013-11-14 00:20:00,
2013-11-13 17:21:00,85.7,37.1,29.41,East,97,4.1,5.1,17,-99.99,,,0.00,35.43,rob ver 1A,2013-11-14 00:21:00,
2013-11-13 17:22:00,82.4,26.0,29.29,South,175,2.4,2.6,12,-99.99,,,0.00,28.34,rob ver 1B,2013-11-14 00:22:00,
2013-11-13 17:23:00,82.3,25.9,29.29,South,177,2.4,2.5,12,-99.99,,,0.00,26.04,rob ver 1B,2013-11-14 00:23:00,
2013-11-13 17:24:00,82.2,25.9,29.29,South,178,2.4,2.5,12,-99.99,,,0.00,23.73,rob ver 1B,2013-11-14 00:24:00,
2013-11-13 17:25:00,82.1,26.0,29.29,South,178,2.3,2.4,12,-99.99,,,0.00,21.42,rob ver 1B,2013-11-14 00:25:00,
2013-11-13 17:26:00,85.4,37.4,29.41,ESE,115,4.7,5.8,18,-99.99,,,0.00,23.56,rob ver 1A,2013-11-14 00:26:00,
2013-11-13 17:27:00,82.0,25.8,29.29,South,185,2.0,2.1,12,-99.99,,,0.00,17.14,rob ver 1B,2013-11-14 00:27:00,
2013-11-13 17:28:00,81.9,25.7,29.29,South,188,1.9,2.0,12,-99.99,,,0.00,15.16,rob ver 1B,2013-11-14 00:28:00,
2013-11-13 17:29:00,81.9,25.7,29.29,South,183,1.8,1.9,12,-99.99,,,0.00,12.85,rob ver 1B,2013-11-14 00:29:00,
2013-11-13 17:30:00,81.8,25.6,29.29,South,178,1.8,1.9,12,-99.99,,,0.00,9.89,rob ver 1B,2013-11-14 00:30:00,
2013-11-13 17:31:00,85.0,37.3,29.41,ESE,116,3.9,4.8,18,-99.99,,,0.00,13.18,rob ver 1A,2013-11-14 00:31:00,
2013-11-13 17:32:00,81.7,25.9,29.29,South,170,1.8,1.9,12,-99.99,,,0.00,6.592,rob ver 1B,2013-11-14 00:32:00,
2013-11-13 17:33:00,81.5,26.0,29.29,South,169,1.7,1.8,13,-99.99,,,0.00,5.933,rob ver 1B,2013-11-14 00:33:00,
2013-11-13 17:34:00,81.4,25.9,29.29,SSE,167,1.9,2.0,13,-99.99,,,0.00,5.274,rob ver 1B,2013-11-14 00:34:00,
2013-11-13 17:35:00,81.2,25.8,29.29,SSE,166,2.0,2.1,13,-99.99,,,0.00,4.615,rob ver 1B,2013-11-14 00:35:00,
2013-11-13 17:36:00,84.5,37.1,29.41,ESE,103,4.4,5.5,18,-99.99,,,0.00,5.603,rob ver 1A,2013-11-14 00:36:00,
2013-11-13 17:37:00,80.9,25.6,29.29,SSE,167,1.9,1.9,13,-99.99,,,0.00,3.791,rob ver 1B,2013-11-14 00:37:00,
2013-11-13 17:38:00,80.9,25.6,29.29,SSE,166,1.8,1.9,13,-99.99,,,0.00,3.296,rob ver 1B,2013-11-14 00:38:00,
2013-11-13 17:39:00,80.8,25.5,29.29,SSE,166,1.8,1.8,13,-99.99,,,0.00,2.967,rob ver 1B,2013-11-14 00:39:00,
2013-11-13 17:40:00,80.8,25.6,29.29,SSE,161,1.9,2.1,13,-99.99,,,0.00,2.637,rob ver 1B,2013-11-14 00:40:00,
2013-11-13 17:41:00,84.2,37.0,29.41,East,98,3.5,4.0,18,-99.99,,,0.00,3.296,rob ver 1A,2013-11-14 00:41:00,
2013-11-13 17:42:00,80.6,26.0,29.29,SE,142,1.8,2.0,13,-99.99,,,0.00,2.143,rob ver 1B,2013-11-14 00:42:00,
2013-11-13 17:43:00,80.5,26.2,29.29,SE,138,2.0,2.1,13,-99.99,,,0.00,1.978,rob ver 1B,2013-11-14 00:43:00,
2013-11-13 17:44:00,80.4,26.2,29.29,SE,139,2.0,2.0,13,-99.99,,,0.00,1.648,rob ver 1B,2013-11-14 00:44:00,
2013-11-13 17:45:00,80.3,26.0,29.29,SE,143,1.9,2.0,13,-99.99,,,0.00,1.319,rob ver 1B,2013-11-14 00:45:00,
2013-11-13 17:46:00,83.6,37.0,29.41,East,98,2.4,2.8,19,-99.99,,,0.00,1.648,rob ver 1A,2013-11-14 00:46:00,
2013-11-13 17:47:00,80.2,25.9,29.29,SE,143,1.8,2.0,13,-99.99,,,0.00,.989,rob ver 1B,2013-11-14 00:47:00,
2013-11-13 17:48:00,80.2,26.0,29.29,SE,142,1.8,1.9,13,-99.99,,,0.00,.659,rob ver 1B,2013-11-14 00:48:00,
2013-11-13 17:49:00,80.1,26.0,29.29,SE,142,1.9,2.0,13,-99.99,,,0.00,.659,rob ver 1B,2013-11-14 00:49:00,
2013-11-13 17:50:00,80.0,25.9,29.29,SE,142,1.8,1.9,13,-99.99,,,0.00,.659,rob ver 1B,2013-11-14 00:50:00,
2013-11-13 17:51:00,82.9,36.7,29.41,East,98,2.9,3.1,19,-99.99,,,0.00,.824,rob ver 1A,2013-11-14 00:51:00,
2013-11-13 17:52:00,79.9,25.7,29.29,SE,141,1.8,1.9,13,-99.99,,,0.00,.165,rob ver 1B,2013-11-14 00:52:00,
2013-11-13 17:53:00,79.8,25.7,29.29,SE,138,1.7,1.8,13,-99.99,,,0.00,.165,rob ver 1B,2013-11-14 00:53:00,
2013-11-13 17:54:00,79.8,25.7,29.29,SE,138,1.7,1.8,13,-99.99,,,0.00,0,rob ver 1B,2013-11-14 00:54:00,
2013-11-13 17:55:00,79.8,25.8,29.29,SE,136,1.6,1.7,13,-99.99,,,0.00,0,rob ver 1B,2013-11-14 00:55:00,
2013-11-13 17:56:00,82.9,37.2,29.41,East,94,2.3,2.6,19,-99.99,,,0.00,.33,rob ver 1A,2013-11-14 00:56:00,
2013-11-13 17:57:00,79.8,25.7,29.29,ESE,122,1.6,1.7,13,-99.99,,,0.00,0,rob ver 1B,2013-11-14 00:57:00,
2013-11-13 17:58:00,79.7,25.8,29.29,ESE,122,1.6,1.6,13,-99.99,,,0.00,0,rob ver 1B,2013-11-14 00:58:00,
2013-11-13 17:59:00,79.6,25.9,29.29,SE,130,1.5,1.6,13,-99.99,,,0.00,0,rob ver 1B,2013-11-14 00:59:00,
2013-11-13 18:00:00,79.6,26.0,29.29,SE,130,1.5,1.5,13,-99.99,,,0.00,0,rob ver 1B,2013-11-14 01:00:00,
2013-11-13 18:01:00,79.5,26.0,29.29,SE,137,1.5,1.6,13,-99.99,,,0.00,0,rob ver 1B,2013-11-14 01:01:00,
2013-11-13 18:02:00,82.3,37.3,29.41,ESE,117,2.0,2.3,19,-99.99,,,0.00,0,rob ver 1A,2013-11-14 01:02:00,
2013-11-13 18:03:00,79.3,26.0,29.29,SE,146,1.6,1.7,13,-99.99,,,0.00,0,rob ver 1B,2013-11-14 01:03:00,
2013-11-13 18:04:00,79.3,26.0,29.29,SSE,148,1.7,1.7,14,-99.99,,,0.00,0,rob ver 1B,2013-11-14 01:04:00,
2013-11-13 18:05:00,79.2,26.0,29.29,SSE,149,1.7,1.9,13,-99.99,,,0.00,0,rob ver 1B,2013-11-14 01:05:00,
2013-11-13 18:06:00,79.2,25.9,29.29,SSE,152,2.0,2.2,13,-99.99,,,0.00,0,rob ver 1B,2013-11-14 01:06:00,
2013-11-13 18:07:00,81.8,37.5,29.41,ESE,115,2.5,2.6,20,-99.99,,,0.00,0,rob ver 1A,2013-11-14 01:07:00,
2013-11-13 18:08:00,79.2,25.7,29.29,SSE,151,2.3,2.4,13,-99.99,,,0.00,0,rob ver 1B,2013-11-14 01:08:00,
2013-11-13 18:09:00,79.2,25.7,29.29,SSE,150,2.4,2.6,13,-99.99,,,0.00,0,rob ver 1B,2013-11-14 01:09:00,
2013-11-13 18:10:00,79.2,25.5,29.29,SSE,151,2.6,2.7,13,-99.99,,,0.00,0,rob ver 1B,2013-11-14 01:10:00,
2013-11-13 18:11:00,79.2,25.5,29.29,SSE,154,2.6,2.6,13,-99.99,,,0.00,0,rob ver 1B,2013-11-14 01:11:00,
2013-11-13 18:12:00,81.4,37.7,29.41,SE,137,2.8,3.1,20,-99.99,,,0.00,0,rob ver 1A,2013-11-14 01:12:00,
2013-11-13 18:13:00,79.2,25.3,29.29,SSE,153,2.6,3.0,13,-99.99,,,0.00,0,rob ver 1B,2013-11-14 01:13:00,
2013-11-13 18:14:00,79.2,25.3,29.29,SSE,147,2.9,3.4,13,-99.99,,,0.00,0,rob ver 1B,2013-11-14 01:14:00,
2013-11-13 18:15:00,79.0,25.5,29.29,SE,144,2.6,2.7,13,-99.99,,,0.00,0,rob ver 1B,2013-11-14 01:15:00,
2013-11-13 18:16:00,78.9,25.9,29.29,SE,141,2.5,2.6,14,-99.99,,,0.00,0,rob ver 1B,2013-11-14 01:16:00,
2013-11-13 18:17:00,80.9,37.6,29.41,SSE,162,2.8,3.2,21,-99.99,,,0.00,0,rob ver 1A,2013-11-14 01:17:00,
2013-11-13 18:18:00,78.5,26.1,29.29,SE,136,2.4,2.5,14,-99.99,,,0.00,0,rob ver 1B,2013-11-14 01:18:00,
2013-11-13 18:19:00,78.5,26.2,29.29,SE,139,2.4,2.5,14,-99.99,,,0.00,0,rob ver 1B,2013-11-14 01:19:00,
2013-11-13 18:20:00,78.4,26.3,29.29,SE,140,2.2,2.3,14,-99.99,,,0.00,0,rob ver 1B,2013-11-14 01:20:00,
2013-11-13 18:21:00,78.3,26.2,29.29,SE,143,2.0,2.1,14,-99.99,,,0.00,0,rob ver 1B,2013-11-14 01:21:00,
2013-11-13 18:22:00,80.0,37.6,29.41,SSE,166,3.7,3.9,21,-99.99,,,0.00,0,rob ver 1A,2013-11-14 01:22:00,
2013-11-13 18:23:00,78.3,26.2,29.29,SSE,156,1.7,1.9,14,-99.99,,,0.00,0,rob ver 1B,2013-11-14 01:23:00,
2013-11-13 18:24:00,78.2,25.8,29.29,SSE,162,1.5,1.7,14,-99.99,,,0.00,0,rob ver 1B,2013-11-14 01:24:00,
2013-11-13 18:25:00,78.2,25.5,29.29,SSE,168,1.5,1.7,14,-99.99,,,0.00,0,rob ver 1B,2013-11-14 01:25:00,
2013-11-13 18:26:00,78.1,25.4,29.29,SSE,168,1.5,1.7,14,-99.99,,,0.00,0,rob ver 1B,2013-11-14 01:26:00,
2013-11-13 18:27:00,79.3,38.4,29.41,SSW,192,3.8,4.3,22,-99.99,,,0.00,0,rob ver 1A,2013-11-14 01:27:00,
2013-11-13 18:28:00,78.0,25.6,29.29,SSE,157,1.7,1.8,14,-99.99,,,0.00,0,rob ver 1B,2013-11-14 01:28:00,
2013-11-13 18:29:00,78.0,25.6,29.29,SE,145,1.9,2.1,14,-99.99,,,0.00,0,rob ver 1B,2013-11-14 01:29:00,
2013-11-13 18:30:00,77.8,25.5,29.29,SE,140,2.2,2.4,14,-99.99,,,0.00,0,rob ver 1B,2013-11-14 01:30:00,
2013-11-13 18:31:00,77.8,25.6,29.29,SE,138,2.4,2.7,14,-99.99,,,0.00,0,rob ver 1B,2013-11-14 01:31:00,
2013-11-13 18:32:00,78.4,38.1,29.41,SSW,206,4.3,5.2,23,-99.99,,,0.00,0,rob ver 1A,2013-11-14 01:32:00,
2013-11-13 18:33:00,77.5,25.5,29.29,SE,137,2.6,2.7,14,-99.99,,,0.00,0,rob ver 1B,2013-11-14 01:33:00,
2013-11-13 18:34:00,77.4,25.4,29.29,SE,137,2.5,2.6,14,-99.99,,,0.00,0,rob ver 1B,2013-11-14 01:34:00,
2013-11-13 18:35:00,77.4,25.5,29.29,SE,137,2.5,2.7,14,-99.99,,,0.00,0,rob ver 1B,2013-11-14 01:35:00,
2013-11-13 18:36:00,77.3,25.5,29.29,SE,135,2.4,2.5,14,-99.99,,,0.00,0,rob ver 1B,2013-11-14 01:36:00,
2013-11-13 18:37:00,79.0,38.7,29.41,SSW,212,3.6,4.4,23,-99.99,,,0.00,0,rob ver 1A,2013-11-14 01:37:00,
2013-11-13 18:38:00,77.3,25.7,29.29,SE,129,2.3,2.4,14,-99.99,,,0.00,0,rob ver 1B,2013-11-14 01:38:00,
2013-11-13 18:39:00,77.2,25.7,29.29,SE,130,2.1,2.2,14,-99.99,,,0.00,0,rob ver 1B,2013-11-14 01:39:00,
2013-11-13 18:40:00,77.2,25.6,29.29,SE,137,2.2,2.3,14,-99.99,,,0.00,0,rob ver 1B,2013-11-14 01:40:00,
2013-11-13 18:41:00,77.2,25.6,29.29,SE,140,2.4,2.6,14,-99.99,,,0.00,0,rob ver 1B,2013-11-14 01:41:00,
2013-11-13 18:42:00,79.8,38.9,29.41,SSW,212,4.2,5.5,22,-99.99,,,0.00,0,rob ver 1A,2013-11-14 01:42:00,
2013-11-13 18:43:00,77.0,25.5,29.29,SE,139,2.5,2.6,14,-99.99,,,0.00,0,rob ver 1B,2013-11-14 01:43:00,
2013-11-13 18:44:00,76.9,25.6,29.29,SE,135,2.4,2.6,14,-99.99,,,0.00,0,rob ver 1B,2013-11-14 01:44:00,
2013-11-13 18:45:00,76.9,25.6,29.29,SE,132,2.3,2.5,14,-99.99,,,0.00,0,rob ver 1B,2013-11-14 01:45:00,
2013-11-13 18:46:00,76.8,25.6,29.29,SE,134,2.2,2.3,14,-99.99,,,0.00,0,rob ver 1B,2013-11-14 01:46:00,
2013-11-13 18:47:00,80.3,39.3,29.41,SSW,195,5.8,6.8,23,-99.99,,,0.00,0,rob ver 1A,2013-11-14 01:47:00,
2013-11-13 18:48:00,76.8,25.5,29.29,SE,132,2.2,2.4,14,-99.99,,,0.00,0,rob ver 1B,2013-11-14 01:48:00,
2013-11-13 18:49:00,76.8,25.6,29.29,SE,131,2.2,2.4,14,-99.99,,,0.00,0,rob ver 1B,2013-11-14 01:49:00,
2013-11-13 18:50:00,76.8,25.6,29.29,SE,128,2.4,2.6,14,-99.99,,,0.00,0,rob ver 1B,2013-11-14 01:50:00,
2013-11-13 18:51:00,76.8,25.6,29.29,SE,126,2.5,2.8,14,-99.99,,,0.00,0,rob ver 1B,2013-11-14 01:51:00,
2013-11-13 18:52:00,76.9,25.7,29.29,SE,125,2.6,2.7,14,-99.99,,,0.00,0,rob ver 1B,2013-11-14 01:52:00,
2013-11-13 18:53:00,80.5,39.3,29.41,South,188,4.3,5.7,23,-99.99,,,0.00,0,rob ver 1A,2013-11-14 01:53:00,
2013-11-13 18:54:00,76.8,25.7,29.29,SE,125,2.3,2.5,15,-99.99,,,0.00,0,rob ver 1B,2013-11-14 01:54:00,
2013-11-13 18:55:00,76.8,25.6,29.29,ESE,121,2.3,2.4,14,-99.99,,,0.00,0,rob ver 1B,2013-11-14 01:55:00,
2013-11-13 18:56:00,76.7,25.5,29.29,ESE,115,2.5,2.7,15,-99.99,,,0.00,0,rob ver 1B,2013-11-14 01:56:00,
2013-11-13 18:57:00,76.5,25.4,29.29,ESE,121,2.7,2.9,15,-99.99,,,0.00,0,rob ver 1B,2013-11-14 01:57:00,
2013-11-13 18:58:00,80.4,39.6,29.41,South,169,3.6,4.3,23,-99.99,,,0.00,0,rob ver 1A,2013-11-14 01:58:00,
2013-11-13 18:59:00,76.1,25.2,29.29,ESE,116,3.0,3.1,15,-99.99,,,0.00,0,rob ver 1B,2013-11-14 01:59:00,
2013-11-13 19:00:00,75.8,25.1,29.29,ESE,120,3.1,3.4,15,-99.99,,,0.00,0,rob ver 1B,2013-11-14 02:00:00,
2013-11-13 19:01:00,75.5,25.0,29.29,ESE,114,3.0,3.4,15,-99.99,,,0.00,0,rob ver 1B,2013-11-14 02:01:00,
2013-11-13 19:02:00,75.3,25.0,29.29,ESE,102,2.8,3.0,15,-99.99,,,0.00,0,rob ver 1B,2013-11-14 02:02:00,
2013-11-13 19:03:00,80.2,39.6,29.41,SSE,168,1.8,2.0,23,-99.99,,,0.00,0,rob ver 1A,2013-11-14 02:03:00,
2013-11-13 19:04:00,74.9,25.0,29.29,East,101,2.9,3.1,15,-99.99,,,0.00,0,rob ver 1B,2013-11-14 02:04:00,
2013-11-13 19:05:00,74.8,25.0,29.29,East,99,2.9,3.1,15,-99.99,,,0.00,0,rob ver 1B,2013-11-14 02:05:00,
2013-11-13 19:06:00,74.6,25.4,29.29,East,100,3.0,3.1,15,-99.99,,,0.00,0,rob ver 1B,2013-11-14 02:06:00,
2013-11-13 19:07:00,74.6,25.8,29.29,East,94,2.8,3.2,16,-99.99,,,0.00,0,rob ver 1B,2013-11-14 02:07:00,
2013-11-13 19:08:00,79.2,39.4,29.41,ESE,118,1.0,1.9,24,-99.99,,,0.00,0,rob ver 1A,2013-11-14 02:08:00,
2013-11-13 19:09:00,74.7,25.6,29.29,East,95,2.5,2.8,16,-99.99,,,0.00,0,rob ver 1B,2013-11-14 02:09:00,
2013-11-13 19:10:00,74.7,25.1,29.29,East,101,2.5,2.9,15,-99.99,,,0.00,0,rob ver 1B,2013-11-14 02:10:00,
2013-11-13 19:11:00,74.5,24.9,29.29,ESE,103,2.8,3.1,15,-99.99,,,0.00,0,rob ver 1B,2013-11-14 02:11:00,
2013-11-13 19:12:00,74.2,25.5,29.29,ESE,113,3.0,3.1,16,-99.99,,,0.00,0,rob ver 1B,2013-11-14 02:12:00,
2013-11-13 19:13:00,78.9,39.2,29.41,SW,222,0.7,1.1,24,-99.99,,,0.00,0,rob ver 1A,2013-11-14 02:13:00,
2013-11-13 19:14:00,73.9,26.2,29.29,ESE,112,3.1,3.2,17,-99.99,,,0.00,0,rob ver 1B,2013-11-14 02:14:00,
2013-11-13 19:15:00,73.8,26.6,29.29,ESE,111,3.1,3.3,17,-99.99,,,0.00,0,rob ver 1B,2013-11-14 02:15:00,
2013-11-13 19:16:00,73.8,26.9,29.29,ESE,108,3.0,3.2,17,-99.99,,,0.00,0,rob ver 1B,2013-11-14 02:16:00,
2013-11-13 19:17:00,73.8,27.3,29.29,ESE,107,3.0,3.2,17,-99.99,,,0.00,0,rob ver 1B,2013-11-14 02:17:00,
2013-11-13 19:18:00,79.1,38.6,29.41,West,275,1.9,2.3,23,-99.99,,,0.00,0,rob ver 1A,2013-11-14 02:18:00,
2013-11-13 19:19:00,73.8,27.4,29.29,ESE,106,2.9,3.1,17,-99.99,,,0.00,0,rob ver 1B,2013-11-14 02:19:00,
2013-11-13 19:20:00,73.9,27.7,29.29,ESE,106,2.9,3.1,17,-99.99,,,0.00,0,rob ver 1B,2013-11-14 02:20:00,
2013-11-13 19:21:00,73.9,28.1,29.29,ESE,108,2.9,3.0,18,-99.99,,,0.00,0,rob ver 1B,2013-11-14 02:21:00,
2013-11-13 19:22:00,74.0,28.5,29.29,ESE,109,2.9,3.0,18,-99.99,,,0.00,0,rob ver 1B,2013-11-14 02:22:00,
2013-11-13 19:23:00,78.9,38.5,29.41,South,185,0.6,0.9,23,-99.99,,,0.00,0,rob ver 1A,2013-11-14 02:23:00,
2013-11-13 19:24:00,74.1,28.8,29.29,ESE,112,2.7,2.8,18,-99.99,,,0.00,0,rob ver 1B,2013-11-14 02:24:00,
2013-11-13 19:25:00,74.2,29.3,29.29,ESE,112,2.7,2.8,19,-99.99,,,0.00,0,rob ver 1B,2013-11-14 02:25:00,
2013-11-13 19:26:00,74.3,29.9,29.29,ESE,109,2.7,2.8,19,-99.99,,,0.00,0,rob ver 1B,2013-11-14 02:26:00,
2013-11-13 19:27:00,74.3,30.0,29.29,ESE,107,2.8,2.9,19,-99.99,,,0.00,0,rob ver 1B,2013-11-14 02:27:00,
2013-11-13 19:28:00,78.5,38.2,29.41,NW,307,0.7,1.0,23,-99.99,,,0.00,0,rob ver 1A,2013-11-14 02:28:00,
2013-11-13 19:29:00,74.3,31.1,29.29,ESE,107,2.9,3.1,20,-99.99,,,0.00,0,rob ver 1B,2013-11-14 02:29:00,
2013-11-13 19:30:00,74.2,31.2,29.29,ESE,106,2.8,3.0,20,-99.99,,,0.00,0,rob ver 1B,2013-11-14 02:30:00,
2013-11-13 19:31:00,74.2,31.8,29.29,ESE,104,2.5,2.7,21,-99.99,,,0.00,0,rob ver 1B,2013-11-14 02:31:00,
2013-11-13 19:32:00,74.2,32.5,29.29,ESE,106,2.3,2.5,21,-99.99,,,0.00,0,rob ver 1B,2013-11-14 02:32:00,
2013-11-13 19:33:00,78.2,37.7,29.41,NW,315,1.6,2.0,23,-99.99,,,0.00,0,rob ver 1A,2013-11-14 02:33:00,
2013-11-13 19:34:00,74.4,32.8,29.29,ESE,107,2.0,2.0,21,-99.99,,,0.00,0,rob ver 1B,2013-11-14 02:34:00,
2013-11-13 19:35:00,74.5,33.1,29.29,ESE,108,2.0,2.1,21,-99.99,,,0.00,0,rob ver 1B,2013-11-14 02:35:00,
2013-11-13 19:36:00,74.6,33.0,29.29,ESE,108,2.2,2.4,21,-99.99,,,0.00,0,rob ver 1B,2013-11-14 02:36:00,
2013-11-13 19:37:00,74.6,32.7,29.29,ESE,108,2.5,2.6,21,-99.99,,,0.00,0,rob ver 1B,2013-11-14 02:37:00,
2013-11-13 19:38:00,77.8,37.7,29.41,North,354,1.3,1.6,23,-99.99,,,0.00,0,rob ver 1A,2013-11-14 02:38:00,
2013-11-13 19:39:00,74.3,32.4,29.29,ESE,102,2.7,2.8,21,-99.99,,,0.00,0,rob ver 1B,2013-11-14 02:39:00,
2013-11-13 19:40:00,74.2,32.6,29.29,East,97,2.6,2.9,21,-99.99,,,0.00,0,rob ver 1B,2013-11-14 02:40:00,
2013-11-13 19:41:00,74.1,32.9,29.29,East,91,2.8,3.0,21,-99.99,,,0.00,0,rob ver 1B,2013-11-14 02:41:00,
2013-11-13 19:42:00,73.9,32.3,29.29,East,85,3.0,3.2,21,-99.99,,,0.00,0,rob ver 1B,2013-11-14 02:42:00,
2013-11-13 19:43:00,77.6,37.5,29.41,North,353,1.8,2.3,23,-99.99,,,0.00,0,rob ver 1A,2013-11-14 02:43:00,
2013-11-13 19:44:00,73.3,31.6,29.29,East,79,2.8,3.0,21,-99.99,,,0.00,0,rob ver 1B,2013-11-14 02:44:00,
2013-11-13 19:45:00,73.1,31.9,29.29,ENE,78,2.8,3.0,21,-99.99,,,0.00,0,rob ver 1B,2013-11-14 02:45:00,
2013-11-13 19:46:00,72.9,31.9,29.29,ENE,78,3.0,3.2,22,-99.99,,,0.00,0,rob ver 1B,2013-11-14 02:46:00,
2013-11-13 19:47:00,72.8,32.2,29.29,East,79,3.1,3.2,22,-99.99,,,0.00,0,rob ver 1B,2013-11-14 02:47:00,
2013-11-13 19:48:00,76.4,38.8,29.41,North,353,3.4,3.8,25,-99.99,,,0.00,0,rob ver 1A,2013-11-14 02:48:00,
2013-11-13 19:49:00,72.7,31.5,29.29,ENE,68,2.9,3.0,21,-99.99,,,0.00,0,rob ver 1B,2013-11-14 02:49:00,
2013-11-13 19:50:00,72.5,31.2,29.29,ENE,58,3.0,3.2,21,-99.99,,,0.00,0,rob ver 1B,2013-11-14 02:50:00,
2013-11-13 19:51:00,72.4,31.1,29.29,NE,56,3.2,3.3,22,-99.99,,,0.00,0,rob ver 1B,2013-11-14 02:51:00,
2013-11-13 19:52:00,72.2,31.6,29.29,NE,55,3.3,3.4,22,-99.99,,,0.00,0,rob ver 1B,2013-11-14 02:52:00,
2013-11-13 19:53:00,75.8,38.5,29.41,North,3,3.7,4.1,26,-99.99,,,0.00,0,rob ver 1A,2013-11-14 02:53:00,
2013-11-13 19:54:00,72.2,31.9,29.29,ENE,61,3.1,3.4,22,-99.99,,,0.00,0,rob ver 1B,2013-11-14 02:54:00,
2013-11-13 19:55:00,72.1,32.0,29.29,ENE,70,3.4,3.8,23,-99.99,,,0.00,0,rob ver 1B,2013-11-14 02:55:00,
2013-11-13 19:56:00,72.2,32.9,29.29,East,79,3.5,3.8,23,-99.99,,,0.00,0,rob ver 1B,2013-11-14 02:56:00,
2013-11-13 19:57:00,72.3,32.8,29.29,ENE,77,3.5,3.7,23,-99.99,,,0.00,0,rob ver 1B,2013-11-14 02:57:00,
2013-11-13 19:58:00,74.9,37.6,29.41,East,85,3.9,4.8,26,-99.99,,,0.00,0,rob ver 1A,2013-11-14 02:58:00,
2013-11-13 19:59:00,72.3,32.4,29.29,ENE,77,3.7,4.0,22,-99.99,,,0.00,0,rob ver 1B,2013-11-14 02:59:00,
2013-11-13 20:00:00,72.3,32.9,29.26,East,85,3.6,3.8,23,-99.99,,,0.00,0,rob ver 1B,2013-11-14 03:00:00,
2013-11-13 20:01:00,72.4,33.0,29.26,East,86,3.5,3.9,23,-99.99,,,0.00,0,rob ver 1B,2013-11-14 03:01:00,
2013-11-13 20:02:00,72.4,32.6,29.29,East,85,3.6,3.7,23,-99.99,,,0.00,0,rob ver 1B,2013-11-14 03:02:00,
2013-11-13 20:03:00,72.3,32.5,29.29,East,86,3.5,3.7,23,-99.99,,,0.00,0,rob ver 1B,2013-11-14 03:03:00,
2013-11-13 20:04:00,76.4,38.7,29.41,NNE,25,2.3,2.8,25,-99.99,,,0.00,0,rob ver 1A,2013-11-14 03:04:00,
2013-11-13 20:05:00,72.2,32.5,29.26,East,85,3.5,3.6,23,-99.99,,,0.00,0,rob ver 1B,2013-11-14 03:05:00,
2013-11-13 20:06:00,72.1,32.9,29.29,East,89,3.3,3.4,24,-99.99,,,0.00,0,rob ver 1B,2013-11-14 03:06:00,
2013-11-13 20:07:00,72.3,34.1,29.26,East,94,3.0,3.2,24,-99.99,,,0.00,0,rob ver 1B,2013-11-14 03:07:00,
2013-11-13 20:08:00,72.6,34.5,29.26,East,97,2.9,3.0,24,-99.99,,,0.00,0,rob ver 1B,2013-11-14 03:08:00,
2013-11-13 20:09:00,77.2,38.7,29.41,NE,39,2.6,2.9,24,-99.99,,,0.00,0,rob ver 1A,2013-11-14 03:09:00,
2013-11-13 20:10:00,73.1,34.4,29.29,East,95,2.7,2.8,24,-99.99,,,0.00,0,rob ver 1B,2013-11-14 03:10:00,
2013-11-13 20:11:00,73.3,34.3,29.26,East,92,2.7,3.0,23,-99.99,,,0.00,0,rob ver 1B,2013-11-14 03:11:00,
2013-11-13 20:12:00,73.2,33.4,29.26,East,85,2.8,3.0,22,-99.99,,,0.00,0,rob ver 1B,2013-11-14 03:12:00,
2013-11-13 20:13:00,73.0,33.1,29.26,East,79,2.9,3.3,23,-99.99,,,0.00,0,rob ver 1B,2013-11-14 03:13:00,
2013-11-13 20:14:00,75.8,38.3,29.41,NE,42,2.1,2.3,25,-99.99,,,0.00,0,rob ver 1A,2013-11-14 03:14:00,
2013-11-13 20:15:00,72.1,31.9,29.26,ENE,58,4.4,5.0,22,-99.99,,,0.00,0,rob ver 1B,2013-11-14 03:15:00,
2013-11-13 20:16:00,71.7,31.9,29.26,NE,56,3.6,4.4,22,-99.99,,,0.00,0,rob ver 1B,2013-11-14 03:16:00,
2013-11-13 20:17:00,71.3,31.8,29.26,ENE,57,3.8,4.4,23,-99.99,,,0.00,0,rob ver 1B,2013-11-14 03:17:00,
2013-11-13 20:18:00,71.1,32.1,29.26,ENE,60,3.8,4.2,23,-99.99,,,0.00,0,rob ver 1B,2013-11-14 03:18:00,
2013-11-13 20:19:00,76.3,38.8,29.41,NNE,17,2.7,3.0,25,-99.99,,,0.00,0,rob ver 1A,2013-11-14 03:19:00,
2013-11-13 20:20:00,70.8,32.2,29.26,NE,52,4.1,4.6,23,-99.99,,,0.00,0,rob ver 1B,2013-11-14 03:20:00,
2013-11-13 20:21:00,70.6,31.8,29.26,NE,47,4.3,4.7,23,-99.99,,,0.00,0,rob ver 1B,2013-11-14 03:21:00,
2013-11-13 20:22:00,70.4,31.8,29.26,NE,43,4.3,4.5,24,-99.99,,,0.00,0,rob ver 1B,2013-11-14 03:22:00,
2013-11-13 20:23:00,70.4,31.8,29.26,NE,42,4.4,4.9,23,-99.99,,,0.00,0,rob ver 1B,2013-11-14 03:23:00,
2013-11-13 20:24:00,77.0,38.5,29.41,NNE,13,2.4,2.7,24,-99.99,,,0.00,0,rob ver 1A,2013-11-14 03:24:00,
2013-11-13 20:25:00,70.3,31.7,29.26,NE,42,4.2,4.5,23,-99.99,,,0.00,0,rob ver 1B,2013-11-14 03:25:00,
2013-11-13 20:26:00,70.3,31.8,29.26,NE,42,4.3,4.6,23,-99.99,,,0.00,0,rob ver 1B,2013-11-14 03:26:00,
2013-11-13 20:27:00,70.2,31.6,29.26,NE,43,4.3,5.1,24,-99.99,,,0.00,0,rob ver 1B,2013-11-14 03:27:00,
2013-11-13 20:28:00,70.1,31.7,29.26,NE,42,4.4,5.3,23,-99.99,,,0.00,0,rob ver 1B,2013-11-14 03:28:00,
2013-11-13 20:29:00,76.6,38.3,29.41,NNE,20,2.6,2.8,25,-99.99,,,0.00,0,rob ver 1A,2013-11-14 03:29:00,
2013-11-13 20:30:00,70.1,31.3,29.26,NE,37,4.6,4.9,23,-99.99,,,0.00,0,rob ver 1B,2013-11-14 03:30:00,
2013-11-13 20:31:00,70.1,31.2,29.26,NE,35,4.8,5.1,23,-99.99,,,0.00,0,rob ver 1B,2013-11-14 03:31:00,
2013-11-13 20:32:00,70.1,31.2,29.26,NE,34,4.5,4.8,23,-99.99,,,0.00,0,rob ver 1B,2013-11-14 03:32:00,
2013-11-13 20:33:00,70.1,31.0,29.26,NNE,29,4.2,4.8,23,-99.99,,,0.00,0,rob ver 1B,2013-11-14 03:33:00,
2013-11-13 20:34:00,76.9,38.1,29.41,NNE,20,2.2,2.5,24,-99.99,,,0.00,0,rob ver 1A,2013-11-14 03:34:00,
2013-11-13 20:35:00,69.7,31.1,29.26,NNE,19,4.5,5.0,24,-99.99,,,0.00,0,rob ver 1B,2013-11-14 03:35:00,
2013-11-13 20:36:00,69.7,31.7,29.26,NNE,15,4.8,5.2,24,-99.99,,,0.00,0,rob ver 1B,2013-11-14 03:36:00,
2013-11-13 20:37:00,69.7,31.3,29.26,NNE,13,4.3,4.5,23,-99.99,,,0.00,0,rob ver 1B,2013-11-14 03:37:00,
2013-11-13 20:38:00,69.6,30.8,29.26,NNE,15,4.4,4.8,23,-99.99,,,0.00,0,rob ver 1B,2013-11-14 03:38:00,
2013-11-13 20:39:00,77.4,38.8,29.41,North,5,2.7,3.1,24,-99.99,,,0.00,0,rob ver 1A,2013-11-14 03:39:00,
2013-11-13 20:40:00,69.3,30.2,29.26,NNE,17,4.2,4.6,23,-99.99,,,0.00,0,rob ver 1B,2013-11-14 03:40:00,
2013-11-13 20:41:00,69.1,30.0,29.26,NNE,18,4.0,4.4,23,-99.99,,,0.00,0,rob ver 1B,2013-11-14 03:41:00,
2013-11-13 20:42:00,68.9,29.9,29.26,NNE,18,3.7,4.1,23,-99.99,,,0.00,0,rob ver 1B,2013-11-14 03:42:00,
2013-11-13 20:43:00,68.7,29.8,29.26,NNE,18,3.7,4.0,23,-99.99,,,0.00,0,rob ver 1B,2013-11-14 03:43:00,
2013-11-13 20:44:00,76.7,37.6,29.41,NNW,345,3.1,3.4,24,-99.99,,,0.00,0,rob ver 1A,2013-11-14 03:44:00,
2013-11-13 20:45:00,68.4,29.8,29.26,NNE,20,3.5,3.7,23,-99.99,,,0.00,0,rob ver 1B,2013-11-14 03:45:00,
2013-11-13 20:46:00,68.4,30.0,29.26,NNE,22,3.3,3.8,23,-99.99,,,0.00,0,rob ver 1B,2013-11-14 03:46:00,
2013-11-13 20:47:00,68.3,30.1,29.26,NNE,21,3.5,3.9,23,-99.99,,,0.00,0,rob ver 1B,2013-11-14 03:47:00,
2013-11-13 20:48:00,68.4,30.1,29.26,NNE,25,3.5,3.9,23,-99.99,,,0.00,0,rob ver 1B,2013-11-14 03:48:00,
2013-11-13 20:49:00,76.0,37.6,29.41,NNW,340,2.7,3.0,25,-99.99,,,0.00,0,rob ver 1A,2013-11-14 03:49:00,
2013-11-13 20:50:00,68.6,30.4,29.26,NNE,33,4.6,5.1,23,-99.99,,,0.00,0,rob ver 1B,2013-11-14 03:50:00,
2013-11-13 20:51:00,68.8,30.3,29.26,NNE,33,4.5,4.9,23,-99.99,,,0.00,0,rob ver 1B,2013-11-14 03:51:00,
2013-11-13 20:52:00,68.9,30.3,29.26,NE,37,4.6,5.2,23,-99.99,,,0.00,0,rob ver 1B,2013-11-14 03:52:00,
2013-11-13 20:53:00,69.1,30.5,29.26,NE,37,5.1,5.6,23,-99.99,,,0.00,0,rob ver 1B,2013-11-14 03:53:00,
2013-11-13 20:54:00,74.9,37.8,29.44,NNW,331,3.2,3.6,25,-99.99,,,0.00,0,rob ver 1A,2013-11-14 03:54:00,
2013-11-13 20:55:00,69.4,30.7,29.26,NE,35,5.3,5.6,23,-99.99,,,0.00,0,rob ver 1B,2013-11-14 03:55:00,
2013-11-13 20:56:00,69.5,30.6,29.26,NE,34,4.8,5.5,23,-99.99,,,0.00,0,rob ver 1B,2013-11-14 03:56:00,
2013-11-13 20:57:00,69.5,30.6,29.26,NNE,32,4.1,4.9,23,-99.99,,,0.00,0,rob ver 1B,2013-11-14 03:57:00,
2013-11-13 20:58:00,69.5,30.5,29.26,NE,35,3.7,4.3,23,-99.99,,,0.00,0,rob ver 1B,2013-11-14 03:58:00,
2013-11-13 20:59:00,74.4,37.1,29.44,NW,324,3.0,3.6,25,-99.99,,,0.00,0,rob ver 1A,2013-11-14 03:59:00,
2013-11-13 21:00:00,69.3,30.8,29.26,NNE,33,4.2,4.7,23,-99.99,,,0.00,0,rob ver 1B,2013-11-14 04:00:00,
2013-11-13 21:01:00,69.2,30.8,29.26,NE,37,3.6,4.5,23,-99.99,,,0.00,0,rob ver 1B,2013-11-14 04:01:00,
2013-11-13 21:02:00,69.2,31.0,29.26,NE,34,3.9,4.3,24,-99.99,,,0.00,0,rob ver 1B,2013-11-14 04:02:00,
2013-11-13 21:03:00,69.2,31.2,29.26,NNE,32,4.1,4.5,24,-99.99,,,0.00,0,rob ver 1B,2013-11-14 04:03:00,
2013-11-13 21:04:00,74.6,36.9,29.44,NW,314,3.3,3.7,25,-99.99,,,0.00,0,rob ver 1A,2013-11-14 04:04:00,
2013-11-13 21:05:00,69.1,31.1,29.26,NNE,29,3.3,3.7,24,-99.99,,,0.00,0,rob ver 1B,2013-11-14 04:05:00,
2013-11-13 21:06:00,69.0,31.2,29.26,NE,38,2.9,3.5,24,-99.99,,,0.00,0,rob ver 1B,2013-11-14 04:06:00,
2013-11-13 21:07:00,69.0,31.4,29.26,NE,35,3.5,4.0,24,-99.99,,,0.00,0,rob ver 1B,2013-11-14 04:07:00,
2013-11-13 21:08:00,69.0,31.5,29.26,NE,39,3.6,4.1,24,-99.99,,,0.00,0,rob ver 1B,2013-11-14 04:08:00,
2013-11-13 21:09:00,69.0,31.5,29.26,NE,44,3.7,4.6,24,-99.99,,,0.00,0,rob ver 1B,2013-11-14 04:09:00,
2013-11-13 21:10:00,74.4,36.3,29.44,NW,325,2.3,2.9,25,-99.99,,,0.00,0,rob ver 1A,2013-11-14 04:10:00,
2013-11-13 21:11:00,69.1,31.7,29.26,NE,42,4.3,4.9,24,-99.99,,,0.00,0,rob ver 1B,2013-11-14 04:11:00,
2013-11-13 21:12:00,69.2,31.7,29.26,NE,43,4.5,4.9,24,-99.99,,,0.00,0,rob ver 1B,2013-11-14 04:12:00,
2013-11-13 21:13:00,69.2,31.6,29.26,NE,45,4.4,5.6,24,-99.99,,,0.00,0,rob ver 1B,2013-11-14 04:13:00,
2013-11-13 21:14:00,69.2,31.7,29.26,NE,44,5.2,5.8,24,-99.99,,,0.00,0,rob ver 1B,2013-11-14 04:14:00,
2013-11-13 21:15:00,74.1,36.6,29.44,NW,323,2.9,3.2,25,-99.99,,,0.00,0,rob ver 1A,2013-11-14 04:15:00,
2013-11-13 21:16:00,69.2,31.7,29.26,NE,43,4.7,5.6,24,-99.99,,,0.00,0,rob ver 1B,2013-11-14 04:16:00,
2013-11-13 21:17:00,69.2,31.8,29.26,NE,42,5.0,5.8,24,-99.99,,,0.00,0,rob ver 1B,2013-11-14 04:17:00,
2013-11-13 21:18:00,69.1,31.8,29.26,NE,41,5.3,5.9,24,-99.99,,,0.00,0,rob ver 1B,2013-11-14 04:18:00,
2013-11-13 21:19:00,69.1,31.8,29.26,NE,40,5.5,6.3,24,-99.99,,,0.00,0,rob ver 1B,2013-11-14 04:19:00,
2013-11-13 21:20:00,74.0,36.4,29.44,NNW,329,3.1,4.0,25,-99.99,,,0.00,0,rob ver 1A,2013-11-14 04:20:00,
2013-11-13 21:21:00,69.0,31.8,29.26,NE,40,5.1,6.1,25,-99.99,,,0.00,0,rob ver 1B,2013-11-14 04:21:00,
2013-11-13 21:22:00,68.8,31.8,29.26,NE,39,4.5,5.3,25,-99.99,,,0.00,0,rob ver 1B,2013-11-14 04:22:00,
2013-11-13 21:23:00,68.7,31.7,29.26,NE,40,4.9,5.5,25,-99.99,,,0.00,0,rob ver 1B,2013-11-14 04:23:00,
2013-11-13 21:24:00,68.6,31.8,29.26,NE,39,5.0,5.6,25,-99.99,,,0.00,0,rob ver 1B,2013-11-14 04:24:00,
2013-11-13 21:25:00,73.3,36.1,29.44,NNW,332,2.7,3.0,25,-99.99,,,0.00,0,rob ver 1A,2013-11-14 04:25:00,
2013-11-13 21:26:00,68.4,31.9,29.26,NE,39,4.7,5.3,25,-99.99,,,0.00,0,rob ver 1B,2013-11-14 04:26:00,
2013-11-13 21:27:00,68.5,32.2,29.26,NE,37,5.0,5.4,25,-99.99,,,0.00,0,rob ver 1B,2013-11-14 04:27:00,
2013-11-13 21:28:00,68.5,32.0,29.26,NE,37,4.6,5.0,25,-99.99,,,0.00,0,rob ver 1B,2013-11-14 04:28:00,
2013-11-13 21:29:00,68.5,32.1,29.26,NE,37,5.0,5.7,26,-99.99,,,0.00,0,rob ver 1B,2013-11-14 04:29:00,
2013-11-13 21:30:00,72.6,36.4,29.44,NNW,342,1.5,1.7,26,-99.99,,,0.00,0,rob ver 1A,2013-11-14 04:30:00,
2013-11-13 21:31:00,68.6,32.3,29.26,NE,38,5.6,6.4,25,-99.99,,,0.00,0,rob ver 1B,2013-11-14 04:31:00,
2013-11-13 21:32:00,68.7,32.2,29.26,NE,39,5.4,6.4,25,-99.99,,,0.00,0,rob ver 1B,2013-11-14 04:32:00,
2013-11-13 21:33:00,68.6,32.1,29.26,NE,38,5.3,6.0,25,-99.99,,,0.00,0,rob ver 1B,2013-11-14 04:33:00,
2013-11-13 21:34:00,68.6,32.0,29.26,NE,39,4.8,5.8,25,-99.99,,,0.00,0,rob ver 1B,2013-11-14 04:34:00,
2013-11-13 21:35:00,72.3,36.5,29.44,North,350,1.7,1.8,27,-99.99,,,0.00,0,rob ver 1A,2013-11-14 04:35:00,
2013-11-13 21:36:00,68.4,32.2,29.26,NE,39,4.8,5.4,26,-99.99,,,0.00,0,rob ver 1B,2013-11-14 04:36:00,
2013-11-13 21:37:00,68.4,32.2,29.26,NE,35,5.0,5.4,25,-99.99,,,0.00,0,rob ver 1B,2013-11-14 04:37:00,
2013-11-13 21:38:00,68.4,32.2,29.26,NE,36,4.9,5.6,26,-99.99,,,0.00,0,rob ver 1B,2013-11-14 04:38:00,
2013-11-13 21:39:00,68.5,32.4,29.26,NE,35,5.4,6.0,26,-99.99,,,0.00,0,rob ver 1B,2013-11-14 04:39:00,
2013-11-13 21:40:00,72.7,36.1,29.44,NNW,346,1.5,1.7,25,-99.99,,,0.00,0,rob ver 1A,2013-11-14 04:40:00,
2013-11-13 21:41:00,68.6,32.4,29.26,NE,34,5.2,5.9,26,-99.99,,,0.00,0,rob ver 1B,2013-11-14 04:41:00,
2013-11-13 21:42:00,68.7,32.6,29.26,NNE,32,5.8,6.2,26,-99.99,,,0.00,0,rob ver 1B,2013-11-14 04:42:00,
2013-11-13 21:43:00,68.7,32.5,29.26,NE,35,4.8,5.6,26,-99.99,,,0.00,0,rob ver 1B,2013-11-14 04:43:00,
2013-11-13 21:44:00,68.6,32.5,29.26,NE,36,4.2,4.9,26,-99.99,,,0.00,0,rob ver 1B,2013-11-14 04:44:00,
2013-11-13 21:45:00,71.6,35.8,29.44,SW,236,2.6,3.2,27,-99.99,,,0.00,0,rob ver 1A,2013-11-14 04:45:00,
2013-11-13 21:46:00,68.4,32.5,29.26,NE,39,3.8,4.7,26,-99.99,,,0.00,0,rob ver 1B,2013-11-14 04:46:00,
2013-11-13 21:47:00,68.3,32.5,29.26,NE,38,3.7,4.3,26,-99.99,,,0.00,0,rob ver 1B,2013-11-14 04:47:00,
2013-11-13 21:48:00,68.2,32.6,29.26,NE,40,3.8,4.5,26,-99.99,,,0.00,0,rob ver 1B,2013-11-14 04:48:00,
2013-11-13 21:49:00,68.1,32.6,29.26,NE,38,4.0,4.6,26,-99.99,,,0.00,0,rob ver 1B,2013-11-14 04:49:00,
2013-11-13 21:50:00,70.3,35.7,29.44,NW,311,1.0,1.2,28,-99.99,,,0.00,0,rob ver 1A,2013-11-14 04:50:00,
2013-11-13 21:51:00,68.1,32.6,29.26,NE,40,3.9,4.6,26,-99.99,,,0.00,0,rob ver 1B,2013-11-14 04:51:00,
2013-11-13 21:52:00,68.0,32.6,29.26,NE,35,3.9,5.1,26,-99.99,,,0.00,0,rob ver 1B,2013-11-14 04:52:00,
2013-11-13 21:53:00,67.9,32.6,29.26,NE,34,4.0,4.6,26,-99.99,,,0.00,0,rob ver 1B,2013-11-14 04:53:00,
2013-11-13 21:54:00,67.9,32.7,29.26,NNE,33,3.7,4.5,26,-99.99,,,0.00,0,rob ver 1B,2013-11-14 04:54:00,
2013-11-13 21:55:00,70.5,36.1,29.44,West,270,2.1,3.3,27,-99.99,,,0.00,0,rob ver 1A,2013-11-14 04:55:00,
2013-11-13 21:56:00,67.8,32.7,29.26,NE,35,3.5,4.0,27,-99.99,,,0.00,0,rob ver 1B,2013-11-14 04:56:00,
2013-11-13 21:57:00,67.9,32.9,29.26,NE,34,3.7,4.3,27,-99.99,,,0.00,0,rob ver 1B,2013-11-14 04:57:00,
2013-11-13 21:58:00,68.0,32.9,29.26,NE,37,3.4,4.2,27,-99.99,,,0.00,0,rob ver 1B,2013-11-14 04:58:00,
2013-11-13 21:59:00,68.1,33.1,29.26,NNE,32,3.8,4.6,27,-99.99,,,0.00,0,rob ver 1B,2013-11-14 04:59:00,
2013-11-13 22:00:00,68.4,33.2,29.26,NNE,30,3.9,4.5,26,-99.99,,,0.00,0,rob ver 1B,2013-11-14 05:00:00,
2013-11-13 22:01:00,70.2,35.8,29.44,WNW,283,2.2,2.5,28,-99.99,,,0.00,0,rob ver 1A,2013-11-14 05:01:00,
2013-11-13 22:02:00,70.2,35.8,29.44,West,278,1.9,2.0,28,-99.99,,,0.00,0,rob ver 1A,2013-11-14 05:02:00,
2013-11-13 22:03:00,70.1,35.7,29.44,WNW,293,1.7,2.1,27,-99.99,,,0.00,0,rob ver 1A,2013-11-14 05:03:00,
2013-11-13 22:04:00,69.9,35.3,29.44,NW,322,1.2,1.5,28,-99.99,,,0.00,0,rob ver 1A,2013-11-14 05:04:00,
2013-11-13 22:05:00,69.0,33.2,29.26,NNE,30,4.1,4.4,26,-99.99,,,0.00,0,rob ver 1B,2013-11-14 05:05:00,
2013-11-13 22:06:00,69.0,33.1,29.26,NE,35,3.6,4.0,26,-99.99,,,0.00,0,rob ver 1B,2013-11-14 05:06:00,
2013-11-13 22:07:00,68.9,33.1,29.26,NNE,26,3.8,4.3,26,-99.99,,,0.00,0,rob ver 1B,2013-11-14 05:07:00,
2013-11-13 22:08:00,68.9,33.2,29.26,NNE,25,3.4,3.8,26,-99.99,,,0.00,0,rob ver 1B,2013-11-14 05:08:00,
2013-11-13 22:09:00,69.3,35.3,29.44,West,259,0.6,0.9,28,-99.99,,,0.00,0,rob ver 1A,2013-11-14 05:09:00,
2013-11-13 22:10:00,69.0,33.4,29.26,NNE,31,3.8,4.4,26,-99.99,,,0.00,0,rob ver 1B,2013-11-14 05:10:00,
2013-11-13 22:11:00,69.0,33.1,29.26,NNE,30,3.7,4.1,26,-99.99,,,0.00,0,rob ver 1B,2013-11-14 05:11:00,
2013-11-13 22:12:00,68.8,33.1,29.26,NNE,28,4.2,5.1,26,-99.99,,,0.00,0,rob ver 1B,2013-11-14 05:12:00,
2013-11-13 22:13:00,68.8,33.1,29.26,NNE,30,4.5,4.8,26,-99.99,,,0.00,0,rob ver 1B,2013-11-14 05:13:00,
2013-11-13 22:14:00,69.0,35.7,29.44,WNW,297,2.3,2.9,29,-99.99,,,0.00,0,rob ver 1A,2013-11-14 05:14:00,
2013-11-13 22:15:00,68.9,33.3,29.26,NE,36,4.8,5.1,26,-99.99,,,0.00,0,rob ver 1B,2013-11-14 05:15:00,
2013-11-13 22:16:00,68.9,33.3,29.26,NE,37,4.8,5.1,26,-99.99,,,0.00,0,rob ver 1B,2013-11-14 05:16:00,
2013-11-13 22:17:00,69.0,33.3,29.26,NE,36,4.8,5.1,26,-99.99,,,0.00,0,rob ver 1B,2013-11-14 05:17:00,
2013-11-13 22:18:00,69.1,33.2,29.26,NE,35,4.6,4.9,26,-99.99,,,0.00,0,rob ver 1B,2013-11-14 05:18:00,
2013-11-13 22:19:00,69.5,36.4,29.44,NNW,339,1.9,2.3,29,-99.99,,,0.00,0,rob ver 1A,2013-11-14 05:19:00,
2013-11-13 22:20:00,69.0,33.3,29.26,NE,36,5.2,5.7,26,-99.99,,,0.00,0,rob ver 1B,2013-11-14 05:20:00,
2013-11-13 22:21:00,69.0,33.1,29.26,NE,37,5.5,5.8,26,-99.99,,,0.00,0,rob ver 1B,2013-11-14 05:21:00,
2013-11-13 22:22:00,68.9,33.0,29.26,NE,37,5.2,5.6,26,-99.99,,,0.00,0,rob ver 1B,2013-11-14 05:22:00,
2013-11-13 22:23:00,68.8,32.9,29.26,NE,36,5.1,5.6,26,-99.99,,,0.00,0,rob ver 1B,2013-11-14 05:23:00,
2013-11-13 22:24:00,69.0,35.3,29.44,NW,317,1.1,1.5,28,-99.99,,,0.00,0,rob ver 1A,2013-11-14 05:24:00,
2013-11-13 22:25:00,68.6,33.0,29.26,NE,36,5.0,5.4,26,-99.99,,,0.00,0,rob ver 1B,2013-11-14 05:25:00,
2013-11-13 22:26:00,68.6,32.9,29.26,NE,37,5.0,5.3,26,-99.99,,,0.00,0,rob ver 1B,2013-11-14 05:26:00,
2013-11-13 22:27:00,68.5,32.9,29.26,NE,38,5.0,5.3,26,-99.99,,,0.00,0,rob ver 1B,2013-11-14 05:27:00,
2013-11-13 22:28:00,68.5,33.0,29.26,NE,35,4.9,5.3,26,-99.99,,,0.00,0,rob ver 1B,2013-11-14 05:28:00,
2013-11-13 22:29:00,68.3,35.5,29.44,NNW,329,1.4,1.6,29,-99.99,,,0.00,0,rob ver 1A,2013-11-14 05:29:00,
2013-11-13 22:30:00,68.4,33.0,29.26,NE,38,5.2,5.6,26,-99.99,,,0.00,0,rob ver 1B,2013-11-14 05:30:00,
2013-11-13 22:31:00,68.5,33.0,29.26,NE,36,5.3,5.8,26,-99.99,,,0.00,0,rob ver 1B,2013-11-14 05:31:00,
2013-11-13 22:32:00,68.5,33.0,29.26,NE,37,5.1,5.6,26,-99.99,,,0.00,0,rob ver 1B,2013-11-14 05:32:00,
2013-11-13 22:33:00,68.5,32.8,29.26,NE,39,4.9,5.5,26,-99.99,,,0.00,0,rob ver 1B,2013-11-14 05:33:00,
2013-11-13 22:34:00,68.4,35.9,29.44,NNW,339,1.7,1.9,30,-99.99,,,0.00,0,rob ver 1A,2013-11-14 05:34:00,
2013-11-13 22:35:00,68.3,32.9,29.26,NE,40,4.9,5.7,26,-99.99,,,0.00,0,rob ver 1B,2013-11-14 05:35:00,
2013-11-13 22:36:00,68.2,32.8,29.26,NE,41,4.8,5.7,26,-99.99,,,0.00,0,rob ver 1B,2013-11-14 05:36:00,
2013-11-13 22:37:00,68.1,32.8,29.26,NE,40,5.1,5.7,26,-99.99,,,0.00,0,rob ver 1B,2013-11-14 05:37:00,
2013-11-13 22:38:00,68.1,32.9,29.26,NE,41,5.0,5.6,26,-99.99,,,0.00,0,rob ver 1B,2013-11-14 05:38:00,
2013-11-13 22:39:00,67.3,34.8,29.44,West,277,1.2,1.4,29,-99.99,,,0.00,0,rob ver 1A,2013-11-14 05:39:00,
2013-11-13 22:40:00,67.9,32.8,29.26,NE,40,4.9,6.0,27,-99.99,,,0.00,0,rob ver 1B,2013-11-14 05:40:00,
2013-11-13 22:41:00,67.8,32.8,29.26,NE,44,4.6,5.5,27,-99.99,,,0.00,0,rob ver 1B,2013-11-14 05:41:00,
2013-11-13 22:42:00,67.8,32.8,29.26,NE,45,4.6,5.5,27,-99.99,,,0.00,0,rob ver 1B,2013-11-14 05:42:00,
2013-11-13 22:43:00,67.7,32.8,29.26,NE,42,4.9,5.9,27,-99.99,,,0.00,0,rob ver 1B,2013-11-14 05:43:00,
2013-11-13 22:44:00,66.8,34.8,29.44,NNW,337,1.7,1.8,30,-99.99,,,0.00,0,rob ver 1A,2013-11-14 05:44:00,
2013-11-13 22:45:00,67.5,32.8,29.26,NE,34,5.5,6.3,27,-99.99,,,0.00,0,rob ver 1B,2013-11-14 05:45:00,
2013-11-13 22:46:00,67.5,32.9,29.26,NE,34,5.6,6.3,27,-99.99,,,0.00,0,rob ver 1B,2013-11-14 05:46:00,
2013-11-13 22:47:00,67.5,32.9,29.26,NE,36,5.3,6.1,27,-99.99,,,0.00,0,rob ver 1B,2013-11-14 05:47:00,
2013-11-13 22:48:00,67.5,32.9,29.26,NNE,33,5.5,6.2,27,-99.99,,,0.00,0,rob ver 1B,2013-11-14 05:48:00,
2013-11-13 22:49:00,66.8,35.2,29.44,North,5,2.7,2.9,30,-99.99,,,0.00,0,rob ver 1A,2013-11-14 05:49:00,
2013-11-13 22:50:00,67.5,32.9,29.26,NNE,32,5.4,5.8,27,-99.99,,,0.00,0,rob ver 1B,2013-11-14 05:50:00,
2013-11-13 22:51:00,67.5,32.9,29.26,NNE,31,5.6,6.6,27,-99.99,,,0.00,0,rob ver 1B,2013-11-14 05:51:00,
2013-11-13 22:52:00,67.4,32.9,29.26,NE,36,5.0,5.8,27,-99.99,,,0.00,0,rob ver 1B,2013-11-14 05:52:00,
2013-11-13 22:53:00,67.4,32.9,29.26,NE,38,4.8,5.3,27,-99.99,,,0.00,0,rob ver 1B,2013-11-14 05:53:00,
2013-11-13 22:54:00,67.3,32.8,29.26,NE,36,4.7,5.3,27,-99.99,,,0.00,0,rob ver 1B,2013-11-14 05:54:00,
2013-11-13 22:55:00,67.9,35.2,29.44,NNE,16,5.0,5.2,30,-99.99,,,0.00,0,rob ver 1A,2013-11-14 05:55:00,
2013-11-13 22:56:00,67.2,32.9,29.26,NNE,33,5.3,5.9,27,-99.99,,,0.00,0,rob ver 1B,2013-11-14 05:56:00,
2013-11-13 22:57:00,67.2,32.9,29.26,NE,35,5.1,5.7,27,-99.99,,,0.00,0,rob ver 1B,2013-11-14 05:57:00,
2013-11-13 22:58:00,67.2,32.9,29.26,NNE,32,5.2,5.9,27,-99.99,,,0.00,0,rob ver 1B,2013-11-14 05:58:00,
2013-11-13 22:59:00,67.2,32.9,29.26,NNE,33,5.4,6.3,28,-99.99,,,0.00,0,rob ver 1B,2013-11-14 05:59:00,
2013-11-13 23:00:00,68.3,35.7,29.44,North,358,4.3,4.8,30,-99.99,,,0.00,0,rob ver 1A,2013-11-14 06:00:00,
2013-11-13 23:01:00,67.4,33.0,29.23,NNE,32,5.4,6.4,27,-99.99,,,0.00,0,rob ver 1B,2013-11-14 06:01:00,
2013-11-13 23:02:00,67.4,33.0,29.26,NE,35,5.6,6.4,27,-99.99,,,0.00,0,rob ver 1B,2013-11-14 06:02:00,
2013-11-13 23:03:00,67.5,33.0,29.26,NE,35,5.3,5.9,27,-99.99,,,0.00,0,rob ver 1B,2013-11-14 06:03:00,
2013-11-13 23:04:00,67.4,33.0,29.26,NE,34,5.2,6.0,27,-99.99,,,0.00,0,rob ver 1B,2013-11-14 06:04:00,
2013-11-13 23:05:00,68.4,35.7,29.44,NW,325,3.3,3.7,29,-99.99,,,0.00,0,rob ver 1A,2013-11-14 06:05:00,
2013-11-13 23:06:00,67.5,33.2,29.26,NNE,26,6.0,6.5,27,-99.99,,,0.00,0,rob ver 1B,2013-11-14 06:06:00,
2013-11-13 23:07:00,67.7,33.2,29.26,NNE,24,6.2,6.7,27,-99.99,,,0.00,0,rob ver 1B,2013-11-14 06:07:00,
2013-11-13 23:08:00,67.8,33.2,29.23,NNE,23,6.1,6.8,27,-99.99,,,0.00,0,rob ver 1B,2013-11-14 06:08:00,
2013-11-13 23:09:00,67.9,33.2,29.23,NNE,24,6.1,6.7,27,-99.99,,,0.00,0,rob ver 1B,2013-11-14 06:09:00,
2013-11-13 23:10:00,67.6,35.9,29.44,NW,307,3.7,4.0,30,-99.99,,,0.00,0,rob ver 1A,2013-11-14 06:10:00,
2013-11-13 23:11:00,68.1,33.2,29.23,NNE,26,6.2,6.7,27,-99.99,,,0.00,0,rob ver 1B,2013-11-14 06:11:00,
2013-11-13 23:12:00,68.1,33.2,29.23,NNE,26,6.3,6.8,27,-99.99,,,0.00,0,rob ver 1B,2013-11-14 06:12:00,
2013-11-13 23:13:00,68.1,33.2,29.23,NNE,26,6.1,6.7,27,-99.99,,,0.00,0,rob ver 1B,2013-11-14 06:13:00,
2013-11-13 23:14:00,68.1,33.2,29.26,NNE,28,6.0,6.7,27,-99.99,,,0.00,0,rob ver 1B,2013-11-14 06:14:00,
2013-11-13 23:15:00,66.8,35.7,29.44,WNW,299,3.8,4.0,31,-99.99,,,0.00,0,rob ver 1A,2013-11-14 06:15:00,
2013-11-13 23:16:00,68.0,33.1,29.23,NNE,28,5.8,6.4,27,-99.99,,,0.00,0,rob ver 1B,2013-11-14 06:16:00,
2013-11-13 23:17:00,67.8,33.1,29.23,NNE,30,5.6,6.2,27,-99.99,,,0.00,0,rob ver 1B,2013-11-14 06:17:00,
2013-11-13 23:18:00,67.8,33.2,29.23,NNE,28,6.0,6.7,27,-99.99,,,0.00,0,rob ver 1B,2013-11-14 06:18:00,
2013-11-13 23:19:00,67.8,33.2,29.23,NNE,28,6.4,6.9,27,-99.99,,,0.00,0,rob ver 1B,2013-11-14 06:19:00,
2013-11-13 23:20:00,67.5,36.8,29.44,North,350,3.3,3.6,32,-99.99,,,0.00,0,rob ver 1A,2013-11-14 06:20:00,
2013-11-13 23:21:00,67.7,33.0,29.23,NNE,31,5.2,6.1,27,-99.99,,,0.00,0,rob ver 1B,2013-11-14 06:21:00,
2013-11-13 23:22:00,67.6,33.1,29.23,NNE,32,5.2,5.7,27,-99.99,,,0.00,0,rob ver 1B,2013-11-14 06:22:00,
2013-11-13 23:23:00,67.5,33.1,29.23,NNE,30,5.7,6.6,27,-99.99,,,0.00,0,rob ver 1B,2013-11-14 06:23:00,
2013-11-13 23:24:00,67.6,33.2,29.23,NNE,28,6.1,6.7,27,-99.99,,,0.00,0,rob ver 1B,2013-11-14 06:24:00,
2013-11-13 23:25:00,67.3,36.1,29.44,West,277,2.5,2.9,31,-99.99,,,0.00,0,rob ver 1A,2013-11-14 06:25:00,
2013-11-13 23:26:00,67.7,33.2,29.23,NNE,26,6.2,6.9,27,-99.99,,,0.00,0,rob ver 1B,2013-11-14 06:26:00,
2013-11-13 23:27:00,67.9,33.2,29.23,NNE,26,6.1,6.8,27,-99.99,,,0.00,0,rob ver 1B,2013-11-14 06:27:00,
2013-11-13 23:28:00,67.9,33.2,29.23,NNE,27,5.8,6.5,27,-99.99,,,0.00,0,rob ver 1B,2013-11-14 06:28:00,
2013-11-13 23:29:00,67.9,33.2,29.23,NNE,27,5.9,6.4,27,-99.99,,,0.00,0,rob ver 1B,2013-11-14 06:29:00,
2013-11-13 23:30:00,66.8,34.9,29.44,West,262,2.8,3.0,30,-99.99,,,0.00,0,rob ver 1A,2013-11-14 06:30:00,
2013-11-13 23:31:00,67.9,33.1,29.23,NNE,28,5.5,6.0,27,-99.99,,,0.00,0,rob ver 1B,2013-11-14 06:31:00,
2013-11-13 23:32:00,67.8,33.1,29.23,NNE,28,5.6,6.3,27,-99.99,,,0.00,0,rob ver 1B,2013-11-14 06:32:00,
2013-11-13 23:33:00,67.7,33.1,29.23,NNE,29,5.4,5.9,27,-99.99,,,0.00,0,rob ver 1B,2013-11-14 06:33:00,
2013-11-13 23:34:00,67.7,33.1,29.23,NNE,28,5.5,5.9,27,-99.99,,,0.00,0,rob ver 1B,2013-11-14 06:34:00,
2013-11-13 23:35:00,66.3,34.8,29.44,West,259,3.4,3.8,31,-99.99,,,0.00,0,rob ver 1A,2013-11-14 06:35:00,
2013-11-13 23:36:00,67.8,33.2,29.23,NNE,23,5.9,6.4,27,-99.99,,,0.00,0,rob ver 1B,2013-11-14 06:36:00,
2013-11-13 23:37:00,67.9,33.2,29.23,NNE,24,5.9,6.4,27,-99.99,,,0.00,0,rob ver 1B,2013-11-14 06:37:00,
2013-11-13 23:38:00,67.9,33.1,29.23,NNE,26,5.7,6.3,27,-99.99,,,0.00,0,rob ver 1B,2013-11-14 06:38:00,
2013-11-13 23:39:00,67.9,33.1,29.23,NNE,26,5.8,6.4,27,-99.99,,,0.00,0,rob ver 1B,2013-11-14 06:39:00,
2013-11-13 23:40:00,65.7,34.3,29.44,West,279,4.1,4.4,31,-99.99,,,0.00,0,rob ver 1A,2013-11-14 06:40:00,
2013-11-13 23:41:00,67.9,33.1,29.23,NNE,24,6.1,6.6,27,-99.99,,,0.00,0,rob ver 1B,2013-11-14 06:41:00,
2013-11-13 23:42:00,68.0,33.2,29.23,NNE,25,6.3,7.0,27,-99.99,,,0.00,0,rob ver 1B,2013-11-14 06:42:00,
2013-11-13 23:43:00,68.1,33.2,29.23,NNE,24,6.4,7.0,27,-99.99,,,0.00,0,rob ver 1B,2013-11-14 06:43:00,
2013-11-13 23:44:00,68.1,33.2,29.23,NNE,24,6.4,7.1,27,-99.99,,,0.00,0,rob ver 1B,2013-11-14 06:44:00,
2013-11-13 23:45:00,65.3,34.6,29.44,West,267,4.6,5.1,32,-99.99,,,0.00,0,rob ver 1A,2013-11-14 06:45:00,
2013-11-13 23:46:00,68.2,33.2,29.23,NNE,25,6.0,6.8,27,-99.99,,,0.00,0,rob ver 1B,2013-11-14 06:46:00,
2013-11-13 23:47:00,68.1,33.2,29.23,NNE,25,6.1,6.8,27,-99.99,,,0.00,0,rob ver 1B,2013-11-14 06:47:00,
2013-11-13 23:48:00,68.1,33.2,29.23,NNE,25,6.0,6.7,27,-99.99,,,0.00,0,rob ver 1B,2013-11-14 06:48:00,
2013-11-13 23:49:00,68.0,33.2,29.23,NNE,26,5.7,6.4,27,-99.99,,,0.00,0,rob ver 1B,2013-11-14 06:49:00,
2013-11-13 23:50:00,67.9,33.2,29.23,NNE,25,5.8,6.5,27,-99.99,,,0.00,0,rob ver 1B,2013-11-14 06:50:00,
2013-11-13 23:51:00,65.5,34.9,29.44,WNW,289,4.9,5.3,32,-99.99,,,0.00,0,rob ver 1A,2013-11-14 06:51:00,
2013-11-13 23:52:00,67.9,33.3,29.23,NNE,22,6.1,6.7,27,-99.99,,,0.00,0,rob ver 1B,2013-11-14 06:52:00,
2013-11-13 23:53:00,68.0,33.3,29.23,NNE,19,6.2,6.7,27,-99.99,,,0.00,0,rob ver 1B,2013-11-14 06:53:00,
2013-11-13 23:54:00,68.0,33.3,29.23,NNE,20,6.5,6.8,27,-99.99,,,0.00,0,rob ver 1B,2013-11-14 06:54:00,
2013-11-13 23:55:00,68.0,33.3,29.23,NNE,21,6.5,6.9,27,-99.99,,,0.00,0,rob ver 1B,2013-11-14 06:55:00,
2013-11-13 23:56:00,66.1,35.4,29.44,NW,321,3.8,4.3,31,-99.99,,,0.00,0,rob ver 1A,2013-11-14 06:56:00,
2013-11-13 23:57:00,68.1,33.4,29.23,NNE,25,6.4,7.0,27,-99.99,,,0.00,0,rob ver 1B,2013-11-14 06:57:00,
2013-11-13 23:58:00,68.2,33.4,29.23,NNE,25,5.9,6.5,27,-99.99,,,0.00,0,rob ver 1B,2013-11-14 06:58:00,
2013-11-13 23:59:00,68.1,33.3,29.23,NNE,26,5.7,6.1,27,-99.99,,,0.00,0,rob ver 1B,2013-11-14 06:59:00,